| time (UTC) | temp F | wind direction | speed knots | gust knots | rain 1hr in | rain 24hr in | rain mn in | humidity % | barometer mb |
| 20260510061122 | 73 | 161 | 3.5 | 7.0 | 0.00 | 0.03 | 0.00 | 77 | 1010.3 |
| 20260510061006 | 73 | 147 | 2.6 | 7.0 | 0.00 | 0.03 | 0.00 | 77 | 1010.2 |
| 20260510060915 | 73 | 174 | 2.6 | 7.0 | 0.00 | 0.03 | 0.00 | 77 | 1010.2 |
| 20260510060820 | 73 | 168 | 3.5 | 7.0 | 0.00 | 0.03 | 0.00 | 77 | 1010.2 |
| 20260510060732 | 73 | 148 | 3.5 | 7.0 | 0.00 | 0.03 | 0.00 | 77 | 1010.3 |
| 20260510060615 | 73 | 159 | 2.6 | 7.0 | 0.00 | 0.03 | 0.00 | 77 | 1010.3 |
| 20260510060500 | 73 | 145 | 2.6 | 7.0 | 0.00 | 0.03 | 0.00 | 77 | 1010.2 |
| 20260510060432 | 73 | 143 | 3.5 | 7.0 | 0.00 | 0.03 | 0.00 | 77 | 1010.3 |
| 20260510060316 | 73 | 137 | 3.5 | 7.0 | 0.00 | 0.03 | 0.00 | 77 | 1010.2 |
| 20260510060204 | 73 | 167 | 3.5 | 7.0 | 0.00 | 0.03 | 0.00 | 77 | 1010.3 |
| 20260510060137 | 73 | 159 | 3.5 | 7.0 | 0.00 | 0.03 | 0.00 | 77 | 1010.2 |
| 20260510060021 | 73 | 147 | 2.6 | 6.1 | 0.00 | 0.03 | 0.00 | 77 | 1010.2 |
| 20260510055912 | 73 | 175 | 1.7 | 5.2 | 0.00 | 0.03 | 0.00 | 77 | 1010.2 |
| 20260510055756 | 73 | 182 | 2.6 | 5.2 | 0.00 | 0.03 | 0.00 | 77 | 1010.1 |
| 20260510055701 | 73 | 182 | 2.6 | 5.2 | 0.00 | 0.03 | 0.00 | 77 | 1010.1 |
| 20260510055610 | 73 | 179 | 1.7 | 5.2 | 0.00 | 0.03 | 0.00 | 77 | 1010.0 |
| 20260510055521 | 73 | 187 | 1.7 | 5.2 | 0.00 | 0.03 | 0.00 | 77 | 1010.1 |
| 20260510055405 | 73 | 187 | 1.7 | 5.2 | 0.00 | 0.03 | 0.00 | 77 | 1010.0 |
| 20260510055310 | 73 | 187 | 2.6 | 5.2 | 0.00 | 0.03 | 0.00 | 76 | 1010.0 |
| 20260510055216 | 73 | 184 | 2.6 | 5.2 | 0.00 | 0.03 | 0.00 | 76 | 1010.1 |
| 20260510055121 | 73 | 190 | 2.6 | 5.2 | 0.00 | 0.03 | 0.00 | 76 | 1010.2 |
| 20260510054956 | 73 | 193 | 2.6 | 6.1 | 0.00 | 0.03 | 0.00 | 76 | 1010.1 |
| 20260510054901 | 73 | 188 | 1.7 | 6.1 | 0.00 | 0.03 | 0.00 | 76 | 1010.1 |
| 20260510054806 | 73 | 182 | 1.7 | 6.1 | 0.00 | 0.03 | 0.00 | 76 | 1010.1 |
| 20260510054738 | 73 | 182 | 3.5 | 6.1 | 0.00 | 0.03 | 0.00 | 76 | 1010.0 |
| 20260510054602 | 74 | 170 | 3.5 | 6.1 | 0.00 | 0.03 | 0.00 | 75 | 1010.0 |
| 20260510054505 | 74 | 168 | 3.5 | 6.1 | 0.00 | 0.03 | 0.00 | 75 | 1010.1 |
| 20260510054414 | 74 | 166 | 3.5 | 6.1 | 0.00 | 0.03 | 0.00 | 75 | 1010.1 |
| 20260510054325 | 74 | 160 | 2.6 | 6.1 | 0.00 | 0.03 | 0.00 | 75 | 1010.1 |
| 20260510054231 | 74 | 148 | 2.6 | 5.2 | 0.00 | 0.03 | 0.00 | 75 | 1010.1 |
| 20260510054121 | 74 | 169 | 2.6 | 5.2 | 0.00 | 0.03 | 0.00 | 75 | 1010.0 |
| 20260510054003 | 74 | 169 | 2.6 | 7.0 | 0.00 | 0.03 | 0.00 | 75 | 1010.1 |
| 20260510053914 | 74 | 170 | 2.6 | 7.0 | 0.00 | 0.03 | 0.00 | 74 | 1010.1 |
| 20260510053819 | 74 | 146 | 2.6 | 7.0 | 0.00 | 0.03 | 0.00 | 74 | 1010.2 |
| 20260510053731 | 74 | 160 | 2.6 | 7.0 | 0.00 | 0.03 | 0.00 | 74 | 1010.2 |
| 20260510053617 | 74 | 153 | 3.5 | 7.8 | 0.00 | 0.03 | 0.00 | 74 | 1010.1 |
| 20260510053502 | 74 | 151 | 3.5 | 7.8 | 0.00 | 0.03 | 0.00 | 74 | 1010.2 |
| 20260510053412 | 75 | 165 | 2.6 | 7.8 | 0.00 | 0.03 | 0.00 | 74 | 1010.2 |
| 20260510053317 | 75 | 157 | 2.6 | 7.8 | 0.00 | 0.03 | 0.00 | 74 | 1010.2 |
| 20260510053207 | 75 | 157 | 2.6 | 7.8 | 0.00 | 0.03 | 0.00 | 74 | 1010.2 |
| 20260510053112 | 75 | 161 | 2.6 | 7.8 | 0.00 | 0.03 | 0.00 | 74 | 1010.2 |
| 20260510053016 | 75 | 158 | 2.6 | 7.8 | 0.00 | 0.03 | 0.00 | 74 | 1010.3 |
| 20260510052904 | 75 | 157 | 3.5 | 7.8 | 0.00 | 0.03 | 0.00 | 73 | 1010.3 |
| 20260510052816 | 75 | 171 | 2.6 | 7.8 | 0.00 | 0.03 | 0.00 | 73 | 1010.3 |
| 20260510052659 | 75 | 155 | 2.6 | 7.8 | 0.00 | 0.03 | 0.00 | 73 | 1010.3 |
| 20260510052609 | 75 | 155 | 2.6 | 7.8 | 0.00 | 0.03 | 0.00 | 73 | 1010.3 |
| 20260510052513 | 75 | 153 | 3.5 | 7.8 | 0.00 | 0.03 | 0.00 | 73 | 1010.3 |
| 20260510052419 | 75 | 167 | 2.6 | 7.0 | 0.00 | 0.03 | 0.00 | 73 | 1010.3 |
| 20260510052309 | 75 | 140 | 2.6 | 7.8 | 0.00 | 0.03 | 0.00 | 73 | 1010.3 |
| 20260510052158 | 75 | 148 | 2.6 | 7.8 | 0.00 | 0.03 | 0.00 | 73 | 1010.3 |
| 20260510052102 | 75 | 147 | 3.5 | 7.8 | 0.00 | 0.03 | 0.00 | 73 | 1010.4 |
| 20260510052014 | 75 | 166 | 3.5 | 7.8 | 0.00 | 0.03 | 0.00 | 73 | 1010.4 |
| 20260510051917 | 75 | 148 | 2.6 | 7.8 | 0.00 | 0.03 | 0.00 | 73 | 1010.3 |
| 20260510051800 | 75 | 136 | 1.7 | 7.8 | 0.00 | 0.03 | 0.00 | 73 | 1010.3 |
| 20260510051732 | 75 | 150 | 2.6 | 7.8 | 0.00 | 0.03 | 0.00 | 73 | 1010.3 |
| 20260510051600 | 75 | 188 | 3.5 | 7.8 | 0.00 | 0.03 | 0.00 | 73 | 1010.3 |
| 20260510051505 | 75 | 147 | 3.5 | 7.8 | 0.00 | 0.03 | 0.00 | 73 | 1010.2 |
| 20260510051436 | 75 | 140 | 2.6 | 7.0 | 0.00 | 0.03 | 0.00 | 73 | 1010.2 |
| 20260510051319 | 75 | 148 | 2.6 | 6.1 | 0.00 | 0.03 | 0.00 | 73 | 1010.2 |
| 20260510051202 | 75 | 148 | 2.6 | 6.1 | 0.00 | 0.03 | 0.00 | 73 | 1010.2 |
| 20260510051134 | 75 | 150 | 2.6 | 7.0 | 0.00 | 0.03 | 0.00 | 73 | 1010.1 |
| 20260510050958 | 75 | 140 | 1.7 | 7.0 | 0.00 | 0.03 | 0.00 | 73 | 1010.1 |
| 20260510050914 | 75 | 138 | 2.6 | 7.0 | 0.00 | 0.03 | 0.00 | 73 | 1010.2 |
| 20260510050817 | 75 | 149 | 3.5 | 7.0 | 0.00 | 0.03 | 0.00 | 73 | 1010.2 |
| 20260510050702 | 76 | 164 | 3.5 | 7.0 | 0.00 | 0.03 | 0.00 | 73 | 1010.1 |
| 20260510050607 | 76 | 160 | 2.6 | 7.0 | 0.00 | 0.03 | 0.03 | 73 | 1010.1 |
| 20260510050511 | 76 | 132 | 3.5 | 7.0 | 0.00 | 0.03 | 0.03 | 73 | 1010.1 |
| 20260510050356 | 76 | 136 | 3.5 | 7.0 | 0.00 | 0.03 | 0.03 | 73 | 1010.1 |
| 20260510050311 | 76 | 151 | 2.6 | 7.0 | 0.00 | 0.03 | 0.03 | 73 | 1010.2 |
| 20260510050217 | 76 | 161 | 3.5 | 7.0 | 0.00 | 0.03 | 0.03 | 73 | 1010.1 |
| 20260510050100 | 76 | 157 | 2.6 | 7.0 | 0.00 | 0.03 | 0.03 | 73 | 1010.1 |
| 20260510050005 | 76 | 160 | 2.6 | 6.1 | 0.00 | 0.03 | 0.03 | 73 | 1010.2 |
| 20260510045917 | 76 | 150 | 2.6 | 6.1 | 0.00 | 0.03 | 0.03 | 74 | 1010.0 |
| 20260510045805 | 76 | 143 | 2.6 | 6.1 | 0.00 | 0.03 | 0.03 | 74 | 1010.1 |
| 20260510045709 | 76 | 159 | 2.6 | 6.1 | 0.00 | 0.03 | 0.03 | 74 | 1010.2 |
| 20260510045615 | 76 | 146 | 2.6 | 6.1 | 0.00 | 0.03 | 0.03 | 74 | 1010.2 |
| 20260510045459 | 76 | 130 | 2.6 | 6.1 | 0.00 | 0.03 | 0.03 | 74 | 1010.1 |
| 20260510045403 | 76 | 163 | 3.5 | 6.1 | 0.00 | 0.03 | 0.03 | 74 | 1010.1 |
| 20260510045314 | 76 | 165 | 2.6 | 6.1 | 0.00 | 0.03 | 0.03 | 75 | 1010.1 |
| 20260510045202 | 76 | 157 | 2.6 | 6.1 | 0.00 | 0.03 | 0.03 | 75 | 1010.1 |
| 20260510045107 | 76 | 169 | 3.5 | 6.1 | 0.00 | 0.03 | 0.03 | 75 | 1010.1 |
| 20260510045018 | 76 | 147 | 3.5 | 6.1 | 0.00 | 0.03 | 0.03 | 75 | 1010.0 |
| 20260510044922 | 76 | 146 | 2.6 | 6.1 | 0.00 | 0.03 | 0.03 | 75 | 1010.1 |
| 20260510044833 | 76 | 146 | 2.6 | 6.1 | 0.00 | 0.03 | 0.03 | 75 | 1010.0 |
| 20260510044656 | 75 | 132 | 3.5 | 6.1 | 0.00 | 0.03 | 0.03 | 75 | 1010.1 |
| 20260510044628 | 75 | 153 | 3.5 | 6.1 | 0.00 | 0.03 | 0.03 | 75 | 1010.0 |
| 20260510044456 | 75 | 160 | 3.5 | 6.1 | 0.00 | 0.03 | 0.03 | 75 | 1010.1 |
| 20260510044358 | 75 | 144 | 2.6 | 6.1 | 0.00 | 0.03 | 0.03 | 75 | 1010.1 |
| 20260510044303 | 75 | 144 | 2.6 | 6.1 | 0.00 | 0.03 | 0.03 | 75 | 1010.1 |
| 20260510044214 | 75 | 172 | 2.6 | 6.1 | 0.00 | 0.03 | 0.03 | 75 | 1010.1 |
| 20260510044059 | 75 | 155 | 2.6 | 6.1 | 0.00 | 0.03 | 0.03 | 75 | 1010.1 |
| 20260510044004 | 75 | 155 | 2.6 | 6.1 | 0.00 | 0.03 | 0.03 | 75 | 1010.1 |
| 20260510043913 | 75 | 155 | 2.6 | 6.1 | 0.00 | 0.03 | 0.03 | 75 | 1010.2 |
| 20260510043758 | 75 | 163 | 2.6 | 6.1 | 0.00 | 0.03 | 0.03 | 75 | 1010.1 |
| 20260510043710 | 75 | 163 | 2.6 | 6.1 | 0.00 | 0.03 | 0.03 | 75 | 1010.1 |
| 20260510043615 | 76 | 163 | 2.6 | 6.1 | 0.00 | 0.03 | 0.03 | 75 | 1010.1 |
| 20260510043459 | 75 | 137 | 3.5 | 6.1 | 0.00 | 0.03 | 0.03 | 75 | 1010.0 |
| 20260510043431 | 75 | 163 | 2.6 | 6.1 | 0.00 | 0.03 | 0.03 | 75 | 1010.1 |
| 20260510043320 | 76 | 160 | 1.7 | 4.3 | 0.00 | 0.03 | 0.03 | 75 | 1010.1 |
| 20260510043204 | 76 | 159 | 1.7 | 4.3 | 0.00 | 0.03 | 0.03 | 75 | 1010.1 |
| 20260510043115 | 76 | 163 | 1.7 | 3.5 | 0.00 | 0.03 | 0.03 | 75 | 1010.1 |
| 20260510043021 | 76 | 186 | 2.6 | 3.5 | 0.00 | 0.03 | 0.03 | 75 | 1010.1 |
| 20260510042905 | 76 | 190 | 1.7 | 4.3 | 0.00 | 0.03 | 0.03 | 75 | 1010.1 |
| 20260510042810 | 76 | 190 | 1.7 | 4.3 | 0.00 | 0.03 | 0.03 | 75 | 1010.0 |
| 20260510042657 | 76 | 190 | 1.7 | 4.3 | 0.00 | 0.03 | 0.03 | 75 | 1010.0 |
| 20260510042609 | 76 | 190 | 2.6 | 4.3 | 0.00 | 0.03 | 0.03 | 75 | 1010.0 |
| 20260510042514 | 76 | 183 | 2.6 | 4.3 | 0.00 | 0.03 | 0.03 | 75 | 1010.1 |
| 20260510042358 | 76 | 186 | 2.6 | 4.3 | 0.00 | 0.03 | 0.03 | 75 | 1010.0 |
| 20260510042306 | 76 | 186 | 1.7 | 4.3 | 0.00 | 0.03 | 0.03 | 75 | 1010.0 |
| 20260510042215 | 76 | 182 | 1.7 | 4.3 | 0.00 | 0.03 | 0.03 | 75 | 1010.0 |
| 20260510042104 | 76 | 184 | 2.6 | 4.3 | 0.00 | 0.03 | 0.03 | 75 | 1010.0 |
| 20260510042030 | 76 | 175 | 2.6 | 5.2 | 0.00 | 0.03 | 0.03 | 75 | 1010.0 |
| 20260510041920 | 76 | 180 | 1.7 | 4.3 | 0.00 | 0.03 | 0.03 | 75 | 1010.0 |
| 20260510041804 | 76 | 194 | 1.7 | 3.5 | 0.00 | 0.03 | 0.03 | 75 | 1010.0 |
| 20260510041709 | 76 | 176 | 1.7 | 3.5 | 0.00 | 0.03 | 0.03 | 75 | 1010.0 |
| 20260510041642 | 76 | 176 | 0.9 | 3.5 | 0.00 | 0.03 | 0.03 | 75 | 1010.0 |
| 20260510041509 | 76 | 176 | 1.7 | 3.5 | 0.00 | 0.03 | 0.03 | 75 | 1010.1 |
| 20260510041415 | 76 | 175 | 1.7 | 3.5 | 0.00 | 0.03 | 0.03 | 75 | 1010.0 |
| 20260510041259 | 76 | 176 | 1.7 | 3.5 | 0.00 | 0.03 | 0.03 | 75 | 1010.1 |
| 20260510041204 | 76 | 178 | 1.7 | 3.5 | 0.00 | 0.03 | 0.03 | 75 | 1010.0 |
| 20260510041108 | 76 | 178 | 2.6 | 3.5 | 0.00 | 0.03 | 0.03 | 75 | 1010.0 |
| 20260510041020 | 76 | 177 | 2.6 | 4.3 | 0.00 | 0.03 | 0.03 | 75 | 1010.0 |
| 20260510040930 | 76 | 169 | 2.6 | 4.3 | 0.00 | 0.03 | 0.03 | 75 | 1010.0 |
| 20260510040821 | 76 | 171 | 1.7 | 4.3 | 0.00 | 0.03 | 0.03 | 75 | 1010.0 |
| 20260510040725 | 76 | 165 | 1.7 | 3.5 | 0.00 | 0.03 | 0.03 | 75 | 1010.0 |
| 20260510040609 | 76 | 164 | 1.7 | 3.5 | 0.00 | 0.03 | 0.03 | 75 | 1010.0 |
| 20260510040514 | 76 | 172 | 2.6 | 5.2 | 0.00 | 0.03 | 0.03 | 76 | 1010.0 |
| 20260510040358 | 76 | 172 | 2.6 | 5.2 | 0.00 | 0.03 | 0.03 | 76 | 1009.9 |
| 20260510040313 | 76 | 172 | 2.6 | 5.2 | 0.00 | 0.03 | 0.03 | 76 | 1010.0 |
| 20260510040217 | 76 | 163 | 2.6 | 5.2 | 0.00 | 0.03 | 0.03 | 76 | 1009.9 |
| 20260510040128 | 76 | 165 | 1.7 | 5.2 | 0.00 | 0.03 | 0.03 | 76 | 1010.0 |
| 20260510040012 | 76 | 165 | 1.7 | 5.2 | 0.00 | 0.03 | 0.03 | 76 | 1009.9 |
| 20260510035856 | 76 | 165 | 1.7 | 5.2 | 0.00 | 0.03 | 0.03 | 76 | 1009.9 |
| 20260510035801 | 76 | 155 | 2.6 | 5.2 | 0.00 | 0.03 | 0.03 | 76 | 1009.9 |
| 20260510035712 | 76 | 158 | 2.6 | 5.2 | 0.00 | 0.03 | 0.03 | 76 | 1009.9 |
| 20260510035622 | 76 | 162 | 1.7 | 5.2 | 0.00 | 0.03 | 0.03 | 76 | 1009.9 |
| 20260510035532 | 76 | 198 | 1.7 | 5.2 | 0.00 | 0.03 | 0.03 | 76 | 1009.9 |
| 20260510035356 | 76 | 198 | 2.6 | 5.2 | 0.00 | 0.03 | 0.03 | 76 | 1009.9 |
| 20260510035301 | 76 | 186 | 2.6 | 4.3 | 0.00 | 0.03 | 0.03 | 76 | 1009.8 |
| 20260510035233 | 76 | 186 | 2.6 | 4.3 | 0.00 | 0.03 | 0.03 | 76 | 1009.9 |
| 20260510035117 | 77 | 171 | 3.5 | 4.3 | 0.00 | 0.03 | 0.03 | 76 | 1009.8 |
| 20260510035007 | 76 | 171 | 3.5 | 4.3 | 0.00 | 0.03 | 0.03 | 76 | 1009.8 |
| 20260510034916 | 77 | 175 | 2.6 | 5.2 | 0.00 | 0.03 | 0.03 | 76 | 1009.9 |
| 20260510034821 | 77 | 184 | 1.7 | 3.5 | 0.00 | 0.03 | 0.03 | 76 | 1009.8 |
| 20260510034711 | 77 | 184 | 1.7 | 4.3 | 0.00 | 0.03 | 0.03 | 76 | 1009.9 |
| 20260510034616 | 77 | 184 | 1.7 | 4.3 | 0.00 | 0.03 | 0.03 | 76 | 1009.8 |
| 20260510034459 | 77 | 183 | 1.7 | 4.3 | 0.00 | 0.03 | 0.03 | 76 | 1009.8 |
| 20260510034404 | 77 | 184 | 1.7 | 4.3 | 0.00 | 0.03 | 0.03 | 76 | 1009.8 |
| 20260510034319 | 77 | 184 | 1.7 | 4.3 | 0.00 | 0.03 | 0.03 | 76 | 1009.8 |
| 20260510034205 | 77 | 186 | 0.9 | 4.3 | 0.00 | 0.03 | 0.03 | 76 | 1009.7 |
| 20260510034109 | 77 | 186 | 0.9 | 4.3 | 0.00 | 0.03 | 0.03 | 75 | 1009.8 |
| 20260510034015 | 77 | 186 | 1.7 | 4.3 | 0.00 | 0.03 | 0.03 | 76 | 1009.9 |
| 20260510033859 | 77 | 186 | 1.7 | 4.3 | 0.00 | 0.03 | 0.03 | 75 | 1009.7 |
| 20260510033804 | 77 | 190 | 1.7 | 3.5 | 0.00 | 0.03 | 0.03 | 75 | 1009.7 |
| 20260510033720 | 77 | 190 | 1.7 | 3.5 | 0.00 | 0.03 | 0.03 | 75 | 1009.8 |
| 20260510033604 | 77 | 190 | 2.6 | 6.1 | 0.00 | 0.03 | 0.03 | 75 | 1009.7 |
| 20260510033507 | 77 | 186 | 2.6 | 6.1 | 0.00 | 0.03 | 0.03 | 75 | 1009.7 |
| 20260510033418 | 77 | 185 | 1.7 | 6.1 | 0.00 | 0.03 | 0.03 | 75 | 1009.8 |
| 20260510033300 | 77 | 161 | 1.7 | 6.1 | 0.00 | 0.03 | 0.03 | 74 | 1009.8 |
| 20260510033204 | 77 | 161 | 2.6 | 6.1 | 0.00 | 0.03 | 0.03 | 74 | 1009.8 |
| 20260510033119 | 77 | 159 | 2.6 | 6.1 | 0.00 | 0.03 | 0.03 | 74 | 1009.8 |
| 20260510033002 | 77 | 148 | 2.6 | 6.1 | 0.00 | 0.03 | 0.03 | 74 | 1009.8 |
| 20260510032905 | 77 | 158 | 2.6 | 6.1 | 0.00 | 0.03 | 0.03 | 74 | 1009.8 |
| 20260510032817 | 77 | 158 | 3.5 | 6.1 | 0.00 | 0.03 | 0.03 | 74 | 1009.7 |
| 20260510032722 | 77 | 154 | 2.6 | 4.3 | 0.00 | 0.03 | 0.03 | 75 | 1009.7 |
| 20260510032606 | 77 | 149 | 2.6 | 4.3 | 0.00 | 0.03 | 0.03 | 75 | 1009.7 |
| 20260510032517 | 77 | 167 | 1.7 | 4.3 | 0.00 | 0.03 | 0.03 | 75 | 1009.7 |
| 20260510032405 | 77 | 157 | 1.7 | 4.3 | 0.00 | 0.03 | 0.03 | 76 | 1009.7 |
| 20260510032310 | 77 | 163 | 0.9 | 5.2 | 0.00 | 0.03 | 0.03 | 76 | 1009.7 |
| 20260510032215 | 77 | 163 | 1.7 | 5.2 | 0.00 | 0.03 | 0.03 | 76 | 1009.7 |
| 20260510032127 | 77 | 162 | 2.6 | 5.2 | 0.00 | 0.03 | 0.03 | 76 | 1009.6 |
| 20260510032011 | 77 | 162 | 2.6 | 5.2 | 0.00 | 0.03 | 0.03 | 76 | 1009.7 |
| 20260510031922 | 77 | 162 | 2.6 | 5.2 | 0.00 | 0.03 | 0.03 | 76 | 1009.6 |
| 20260510031809 | 77 | 159 | 1.7 | 5.2 | 0.00 | 0.03 | 0.03 | 76 | 1009.6 |
| 20260510031714 | 77 | 159 | 2.6 | 5.2 | 0.00 | 0.03 | 0.03 | 76 | 1009.6 |
| 20260510031558 | 77 | 163 | 1.7 | 5.2 | 0.00 | 0.03 | 0.03 | 76 | 1009.6 |
| 20260510031504 | 77 | 171 | 1.7 | 3.5 | 0.00 | 0.03 | 0.03 | 76 | 1009.6 |
| 20260510031409 | 77 | 152 | 1.7 | 3.5 | 0.00 | 0.03 | 0.03 | 76 | 1009.6 |
| 20260510031320 | 77 | 182 | 1.7 | 3.5 | 0.00 | 0.03 | 0.03 | 75 | 1009.6 |
| 20260510031207 | 77 | 182 | 1.7 | 3.5 | 0.00 | 0.03 | 0.03 | 75 | 1009.6 |
| 20260510031112 | 78 | 182 | 1.7 | 3.5 | 0.00 | 0.03 | 0.03 | 75 | 1009.6 |
| 20260510031024 | 78 | 182 | 2.6 | 3.5 | 0.00 | 0.03 | 0.03 | 75 | 1009.5 |
| 20260510030909 | 78 | 180 | 1.7 | 3.5 | 0.00 | 0.03 | 0.03 | 75 | 1009.6 |
| 20260510030814 | 78 | 182 | 1.7 | 3.5 | 0.00 | 0.03 | 0.03 | 75 | 1009.6 |
| 20260510030659 | 78 | 184 | 0.9 | 3.5 | 0.00 | 0.03 | 0.03 | 75 | 1009.5 |
| 20260510030613 | 78 | 184 | 0.9 | 4.3 | 0.00 | 0.03 | 0.03 | 75 | 1009.5 |
| 20260510030519 | 78 | 184 | 0.9 | 4.3 | 0.00 | 0.03 | 0.03 | 75 | 1009.6 |
| 20260510030431 | 78 | 184 | 1.7 | 4.3 | 0.00 | 0.03 | 0.03 | 75 | 1009.5 |
| 20260510030315 | 78 | 184 | 1.7 | 4.3 | 0.00 | 0.03 | 0.03 | 74 | 1009.5 |
| 20260510030159 | 78 | 152 | 1.7 | 7.8 | 0.00 | 0.03 | 0.03 | 74 | 1009.5 |
| 20260510030110 | 78 | 152 | 1.7 | 7.8 | 0.00 | 0.03 | 0.03 | 74 | 1009.5 |
| 20260510025959 | 78 | 152 | 1.7 | 7.8 | 0.00 | 0.03 | 0.03 | 74 | 1009.5 |
| 20260510025904 | 78 | 151 | 2.6 | 7.8 | 0.00 | 0.03 | 0.03 | 74 | 1009.4 |
| 20260510025809 | 78 | 169 | 2.6 | 7.8 | 0.00 | 0.03 | 0.03 | 74 | 1009.4 |
| 20260510025721 | 78 | 187 | 2.6 | 7.8 | 0.00 | 0.03 | 0.03 | 74 | 1009.3 |
| 20260510025625 | 78 | 169 | 1.7 | 7.8 | 0.00 | 0.03 | 0.03 | 74 | 1009.4 |
| 20260510025536 | 78 | 144 | 2.6 | 7.8 | 0.00 | 0.03 | 0.03 | 74 | 1009.3 |
| 20260510025400 | 78 | 145 | 2.6 | 7.8 | 0.00 | 0.03 | 0.03 | 74 | 1009.3 |
| 20260510025307 | 78 | 136 | 2.6 | 7.8 | 0.00 | 0.03 | 0.03 | 74 | 1009.2 |
| 20260510025212 | 78 | 141 | 2.6 | 7.0 | 0.00 | 0.03 | 0.03 | 74 | 1009.2 |
| 20260510025056 | 78 | 139 | 2.6 | 7.0 | 0.00 | 0.03 | 0.03 | 74 | 1009.2 |
| 20260510025001 | 78 | 144 | 2.6 | 7.0 | 0.00 | 0.03 | 0.03 | 74 | 1009.3 |
| 20260510024933 | 78 | 144 | 2.6 | 7.0 | 0.00 | 0.03 | 0.03 | 74 | 1009.2 |
| 20260510024757 | 79 | 140 | 2.6 | 6.1 | 0.00 | 0.03 | 0.03 | 74 | 1009.2 |
| 20260510024706 | 79 | 144 | 1.7 | 7.0 | 0.00 | 0.03 | 0.03 | 74 | 1009.2 |
| 20260510024617 | 79 | 145 | 1.7 | 7.0 | 0.00 | 0.03 | 0.03 | 74 | 1009.3 |
| 20260510024521 | 79 | 145 | 1.7 | 7.0 | 0.00 | 0.03 | 0.03 | 74 | 1009.2 |
| 20260510024405 | 79 | 156 | 1.7 | 7.0 | 0.00 | 0.03 | 0.03 | 74 | 1009.1 |
| 20260510024317 | 79 | 163 | 2.6 | 7.0 | 0.00 | 0.03 | 0.03 | 74 | 1009.1 |
| 20260510024200 | 79 | 140 | 2.6 | 7.0 | 0.00 | 0.03 | 0.03 | 74 | 1009.1 |
| 20260510024109 | 79 | 161 | 3.5 | 7.0 | 0.00 | 0.03 | 0.03 | 74 | 1009.0 |
| 20260510024012 | 79 | 161 | 3.5 | 7.0 | 0.00 | 0.03 | 0.03 | 74 | 1009.1 |
| 20260510023924 | 79 | 145 | 3.5 | 7.0 | 0.00 | 0.03 | 0.03 | 74 | 1009.1 |
| 20260510023807 | 79 | 163 | 3.5 | 7.0 | 0.00 | 0.03 | 0.03 | 74 | 1009.0 |
| 20260510023713 | 79 | 163 | 2.6 | 7.0 | 0.00 | 0.03 | 0.03 | 74 | 1009.1 |
| 20260510023557 | 79 | 155 | 3.5 | 7.8 | 0.00 | 0.03 | 0.03 | 73 | 1009.1 |
| 20260510023512 | 79 | 168 | 3.5 | 7.8 | 0.00 | 0.03 | 0.03 | 73 | 1009.1 |
| 20260510023417 | 79 | 135 | 3.5 | 7.8 | 0.00 | 0.03 | 0.03 | 73 | 1009.0 |
| 20260510023328 | 79 | 165 | 2.6 | 8.7 | 0.00 | 0.03 | 0.03 | 73 | 1009.0 |
| 20260510023211 | 79 | 123 | 2.6 | 8.7 | 0.00 | 0.03 | 0.03 | 73 | 1008.9 |
| 20260510023056 | 79 | 133 | 2.6 | 8.7 | 0.00 | 0.03 | 0.03 | 73 | 1009.0 |
| 20260510023000 | 79 | 129 | 2.6 | 8.7 | 0.00 | 0.03 | 0.03 | 73 | 1009.0 |
| 20260510022915 | 79 | 123 | 2.6 | 8.7 | 0.00 | 0.03 | 0.03 | 73 | 1009.0 |
| 20260510022820 | 79 | 159 | 2.6 | 8.7 | 0.00 | 0.03 | 0.03 | 73 | 1009.0 |
| 20260510022704 | 79 | 138 | 3.5 | 8.7 | 0.00 | 0.03 | 0.03 | 73 | 1009.0 |
| 20260510022609 | 79 | 148 | 3.5 | 8.7 | 0.00 | 0.03 | 0.03 | 72 | 1009.0 |
| 20260510022514 | 80 | 162 | 4.3 | 8.7 | 0.00 | 0.03 | 0.03 | 72 | 1008.9 |
| 20260510022358 | 80 | 136 | 3.5 | 8.7 | 0.00 | 0.03 | 0.03 | 72 | 1008.9 |
| 20260510022313 | 80 | 135 | 2.6 | 7.8 | 0.00 | 0.03 | 0.03 | 72 | 1008.8 |
| 20260510022157 | 80 | 136 | 2.6 | 7.0 | 0.00 | 0.03 | 0.03 | 72 | 1008.9 |
| 20260510022129 | 80 | 148 | 2.6 | 7.0 | 0.00 | 0.03 | 0.03 | 72 | 1008.9 |
| 20260510022012 | 80 | 144 | 2.6 | 6.1 | 0.00 | 0.03 | 0.03 | 72 | 1008.8 |
| 20260510021857 | 80 | 154 | 1.7 | 7.8 | 0.00 | 0.03 | 0.03 | 71 | 1008.9 |
| 20260510021801 | 80 | 134 | 1.7 | 7.8 | 0.00 | 0.03 | 0.03 | 71 | 1008.8 |
| 20260510021717 | 80 | 132 | 1.7 | 8.7 | 0.00 | 0.03 | 0.03 | 71 | 1008.8 |
| 20260510021600 | 80 | 161 | 3.5 | 9.6 | 0.00 | 0.03 | 0.03 | 71 | 1008.8 |
| 20260510021506 | 80 | 138 | 3.5 | 9.6 | 0.00 | 0.03 | 0.03 | 71 | 1008.9 |
| 20260510021409 | 80 | 134 | 2.6 | 9.6 | 0.00 | 0.03 | 0.03 | 71 | 1008.8 |
| 20260510021321 | 80 | 136 | 2.6 | 9.6 | 0.00 | 0.03 | 0.03 | 71 | 1008.9 |
| 20260510021225 | 80 | 152 | 3.5 | 9.6 | 0.00 | 0.03 | 0.03 | 71 | 1008.8 |
| 20260510021112 | 80 | 135 | 4.3 | 9.6 | 0.00 | 0.03 | 0.03 | 71 | 1008.8 |
| 20260510021023 | 80 | 136 | 4.3 | 9.6 | 0.00 | 0.03 | 0.03 | 71 | 1008.8 |
| 20260510020927 | 80 | 130 | 4.3 | 9.6 | 0.00 | 0.03 | 0.03 | 71 | 1008.8 |
| 20260510020811 | 80 | 155 | 3.5 | 9.6 | 0.00 | 0.03 | 0.03 | 71 | 1008.8 |
| 20260510020717 | 80 | 129 | 2.6 | 9.6 | 0.00 | 0.03 | 0.03 | 71 | 1008.8 |
| 20260510020601 | 80 | 136 | 5.2 | 9.6 | 0.00 | 0.03 | 0.03 | 71 | 1008.8 |
| 20260510020516 | 80 | 127 | 5.2 | 9.6 | 0.00 | 0.03 | 0.03 | 71 | 1008.8 |
| 20260510020400 | 80 | 123 | 3.5 | 7.8 | 0.00 | 0.03 | 0.03 | 71 | 1008.7 |
| 20260510020306 | 80 | 144 | 2.6 | 7.0 | 0.00 | 0.03 | 0.03 | 71 | 1008.7 |
| 20260510020211 | 80 | 130 | 2.6 | 7.0 | 0.00 | 0.03 | 0.03 | 71 | 1008.7 |
| 20260510020005 | 80 | 128 | 3.5 | 7.8 | 0.00 | 0.03 | 0.03 | 71 | 1008.7 |
| 20260510015914 | 80 | 135 | 3.5 | 7.8 | 0.00 | 0.03 | 0.03 | 71 | 1008.7 |
| 20260510015759 | 80 | 122 | 2.6 | 7.8 | 0.00 | 0.03 | 0.03 | 71 | 1008.7 |
| 20260510015710 | 80 | 137 | 1.7 | 7.8 | 0.00 | 0.03 | 0.03 | 71 | 1008.7 |
| 20260510015616 | 80 | 146 | 1.7 | 7.8 | 0.00 | 0.03 | 0.03 | 71 | 1008.6 |
| 20260510015459 | 80 | 141 | 1.7 | 7.8 | 0.00 | 0.03 | 0.03 | 71 | 1008.6 |
| 20260510015431 | 80 | 122 | 2.6 | 7.8 | 0.00 | 0.03 | 0.03 | 71 | 1008.6 |
| 20260510015258 | 80 | 134 | 2.6 | 7.8 | 0.00 | 0.03 | 0.03 | 70 | 1008.6 |
| 20260510015203 | 80 | 146 | 1.7 | 6.1 | 0.00 | 0.03 | 0.03 | 70 | 1008.5 |
| 20260510015109 | 80 | 146 | 1.7 | 5.2 | 0.00 | 0.03 | 0.03 | 70 | 1008.6 |
| 20260510015012 | 80 | 139 | 1.7 | 3.5 | 0.00 | 0.03 | 0.03 | 70 | 1008.5 |
| 20260510014857 | 80 | 127 | 0.9 | 3.5 | 0.00 | 0.03 | 0.03 | 70 | 1008.6 |
| 20260510014808 | 80 | 128 | 0.9 | 3.5 | 0.00 | 0.03 | 0.03 | 70 | 1008.6 |
| 20260510014657 | 80 | 127 | 1.7 | 6.1 | 0.00 | 0.03 | 0.03 | 70 | 1008.6 |
| 20260510014603 | 80 | 127 | 1.7 | 6.1 | 0.00 | 0.03 | 0.03 | 70 | 1008.6 |
| 20260510014507 | 81 | 136 | 1.7 | 6.1 | 0.00 | 0.03 | 0.03 | 70 | 1008.5 |
| 20260510014419 | 81 | 138 | 1.7 | 6.1 | 0.00 | 0.03 | 0.03 | 70 | 1008.6 |
| 20260510014303 | 81 | 140 | 1.7 | 6.1 | 0.00 | 0.03 | 0.03 | 70 | 1008.6 |
| 20260510014212 | 81 | 142 | 0.9 | 6.1 | 0.00 | 0.03 | 0.03 | 69 | 1008.6 |
| 20260510014056 | 81 | 144 | 0.9 | 6.1 | 0.00 | 0.03 | 0.03 | 69 | 1008.6 |
| 20260510014001 | 81 | 146 | 1.7 | 6.1 | 0.00 | 0.03 | 0.03 | 69 | 1008.6 |
| 20260510013913 | 81 | 150 | 1.7 | 6.1 | 0.00 | 0.03 | 0.03 | 69 | 1008.6 |
| 20260510013818 | 81 | 133 | 0.9 | 4.3 | 0.00 | 0.03 | 0.03 | 69 | 1008.5 |
| 20260510013704 | 81 | 133 | 0.9 | 3.5 | 0.00 | 0.03 | 0.03 | 69 | 1008.6 |
| 20260510013618 | 81 | 133 | 1.7 | 3.5 | 0.00 | 0.03 | 0.03 | 69 | 1008.6 |
| 20260510013524 | 81 | 133 | 0.9 | 4.3 | 0.00 | 0.03 | 0.03 | 69 | 1008.5 |
| 20260510013408 | 81 | 135 | 0.9 | 4.3 | 0.00 | 0.03 | 0.03 | 69 | 1008.5 |
| 20260510013319 | 81 | 136 | 0.9 | 4.3 | 0.00 | 0.03 | 0.03 | 69 | 1008.5 |
| 20260510013157 | 81 | 135 | 0.9 | 4.3 | 0.00 | 0.03 | 0.03 | 69 | 1008.6 |
| 20260510013108 | 81 | 135 | 0.0 | 4.3 | 0.00 | 0.03 | 0.03 | 69 | 1008.5 |
| 20260510012956 | 81 | 135 | 0.9 | 4.3 | 0.00 | 0.03 | 0.03 | 68 | 1008.5 |
| 20260510012902 | 81 | 135 | 0.9 | 4.3 | 0.00 | 0.03 | 0.03 | 68 | 1008.6 |
| 20260510012807 | 81 | 135 | 1.7 | 4.3 | 0.00 | 0.03 | 0.03 | 68 | 1008.5 |
| 20260510012718 | 81 | 134 | 1.7 | 4.3 | 0.00 | 0.03 | 0.03 | 68 | 1008.5 |
| 20260510012603 | 81 | 135 | 0.9 | 5.2 | 0.00 | 0.03 | 0.03 | 68 | 1008.5 |
| 20260510012508 | 81 | 138 | 0.0 | 5.2 | 0.00 | 0.03 | 0.03 | 68 | 1008.5 |
| 20260510012416 | 81 | 138 | 0.9 | 5.2 | 0.00 | 0.03 | 0.03 | 68 | 1008.5 |
| 20260510012300 | 81 | 138 | 0.9 | 5.2 | 0.00 | 0.03 | 0.03 | 68 | 1008.5 |
| 20260510012232 | 81 | 138 | 0.9 | 5.2 | 0.00 | 0.03 | 0.03 | 68 | 1008.4 |
| 20260510012056 | 81 | 113 | 0.0 | 5.2 | 0.00 | 0.03 | 0.03 | 68 | 1008.4 |
| 20260510012001 | 81 | 113 | 0.9 | 5.2 | 0.00 | 0.03 | 0.03 | 68 | 1008.4 |
| 20260510011913 | 81 | 113 | 1.7 | 5.2 | 0.00 | 0.03 | 0.03 | 68 | 1008.4 |
| 20260510011802 | 81 | 113 | 1.7 | 5.2 | 0.00 | 0.03 | 0.03 | 67 | 1008.5 |
| 20260510011707 | 81 | 115 | 1.7 | 3.5 | 0.00 | 0.03 | 0.03 | 67 | 1008.3 |
| 20260510011612 | 81 | 114 | 1.7 | 4.3 | 0.00 | 0.03 | 0.03 | 67 | 1008.4 |
| 20260510011456 | 82 | 117 | 1.7 | 4.3 | 0.00 | 0.03 | 0.03 | 67 | 1008.4 |
| 20260510011428 | 82 | 122 | 1.7 | 4.3 | 0.00 | 0.03 | 0.03 | 67 | 1008.4 |
| 20260510011312 | 82 | 123 | 1.7 | 4.3 | 0.00 | 0.03 | 0.03 | 67 | 1008.3 |
| 20260510011200 | 82 | 126 | 1.7 | 4.3 | 0.00 | 0.03 | 0.03 | 66 | 1008.3 |
| 20260510011105 | 82 | 126 | 1.7 | 6.1 | 0.00 | 0.03 | 0.03 | 66 | 1008.3 |
| 20260510011038 | 82 | 127 | 1.7 | 6.1 | 0.00 | 0.03 | 0.03 | 66 | 1008.3 |
| 20260510010900 | 82 | 128 | 0.9 | 6.1 | 0.00 | 0.03 | 0.03 | 66 | 1008.3 |
| 20260510010805 | 82 | 128 | 1.7 | 6.1 | 0.00 | 0.03 | 0.03 | 66 | 1008.3 |
| 20260510010718 | 82 | 128 | 1.7 | 6.1 | 0.00 | 0.03 | 0.03 | 65 | 1008.3 |
| 20260510010606 | 82 | 136 | 2.6 | 6.1 | 0.00 | 0.03 | 0.03 | 65 | 1008.3 |
| 20260510010511 | 82 | 136 | 2.6 | 6.1 | 0.00 | 0.03 | 0.03 | 65 | 1008.3 |
| 20260510010443 | 82 | 149 | 1.7 | 6.1 | 0.00 | 0.03 | 0.03 | 65 | 1008.3 |
| 20260510010306 | 82 | 138 | 2.6 | 6.1 | 0.00 | 0.03 | 0.03 | 65 | 1008.2 |
| 20260510010237 | 83 | 132 | 2.6 | 6.1 | 0.00 | 0.03 | 0.03 | 65 | 1008.3 |
| 20260510010100 | 83 | 136 | 1.7 | 7.0 | 0.00 | 0.03 | 0.03 | 65 | 1008.3 |
| 20260510010009 | 83 | 138 | 2.6 | 7.0 | 0.00 | 0.03 | 0.03 | 65 | 1008.2 |
| 20260510005914 | 83 | 157 | 1.7 | 7.0 | 0.00 | 0.03 | 0.03 | 65 | 1008.2 |
| 20260510005758 | 83 | 130 | 1.7 | 7.0 | 0.00 | 0.03 | 0.03 | 65 | 1008.2 |
| 20260510005709 | 83 | 165 | 1.7 | 7.0 | 0.00 | 0.03 | 0.03 | 65 | 1008.2 |
| 20260510005614 | 83 | 135 | 1.7 | 7.0 | 0.00 | 0.03 | 0.03 | 64 | 1008.2 |
| 20260510005459 | 83 | 134 | 1.7 | 7.0 | 0.00 | 0.03 | 0.03 | 64 | 1008.2 |
| 20260510005408 | 83 | 140 | 1.7 | 7.0 | 0.00 | 0.03 | 0.03 | 64 | 1008.2 |
| 20260510005319 | 83 | 150 | 2.6 | 7.0 | 0.00 | 0.03 | 0.03 | 64 | 1008.1 |
| 20260510005223 | 83 | 130 | 1.7 | 7.8 | 0.00 | 0.03 | 0.03 | 64 | 1008.1 |
| 20260510005107 | 83 | 136 | 1.7 | 7.8 | 0.00 | 0.03 | 0.03 | 64 | 1008.1 |
| 20260510005040 | 83 | 144 | 0.9 | 7.8 | 0.00 | 0.03 | 0.03 | 64 | 1008.1 |
| 20260510004903 | 83 | 139 | 0.9 | 7.8 | 0.00 | 0.03 | 0.03 | 63 | 1008.1 |
| 20260510004828 | 83 | 139 | 1.7 | 7.8 | 0.00 | 0.03 | 0.03 | 63 | 1008.1 |
| 20260510004656 | 83 | 128 | 1.7 | 7.8 | 0.00 | 0.03 | 0.03 | 63 | 1008.1 |
| 20260510004607 | 83 | 134 | 1.7 | 7.8 | 0.00 | 0.03 | 0.03 | 63 | 1008.1 |
| 20260510004513 | 83 | 144 | 2.6 | 7.8 | 0.00 | 0.03 | 0.03 | 63 | 1008.1 |
| 20260510004418 | 83 | 149 | 2.6 | 7.8 | 0.00 | 0.03 | 0.03 | 63 | 1008.1 |
| 20260510004308 | 83 | 148 | 1.7 | 7.8 | 0.00 | 0.03 | 0.03 | 63 | 1008.1 |
| 20260510004240 | 83 | 143 | 1.7 | 7.8 | 0.00 | 0.03 | 0.03 | 63 | 1008.1 |
| 20260510004108 | 83 | 161 | 2.6 | 7.8 | 0.00 | 0.03 | 0.03 | 63 | 1008.1 |
| 20260510004013 | 83 | 141 | 1.7 | 7.8 | 0.00 | 0.03 | 0.03 | 63 | 1008.0 |
| 20260510003858 | 83 | 130 | 2.6 | 7.8 | 0.00 | 0.03 | 0.03 | 62 | 1008.0 |
| 20260510003803 | 84 | 138 | 2.6 | 7.8 | 0.00 | 0.03 | 0.03 | 62 | 1008.1 |
| 20260510003736 | 84 | 130 | 2.6 | 7.8 | 0.00 | 0.03 | 0.03 | 62 | 1008.0 |
| 20260510003558 | 84 | 139 | 2.6 | 7.8 | 0.00 | 0.03 | 0.03 | 62 | 1007.9 |
| 20260510003508 | 84 | 135 | 2.6 | 7.8 | 0.00 | 0.03 | 0.03 | 61 | 1008.0 |
| 20260510003419 | 84 | 142 | 1.7 | 7.8 | 0.00 | 0.03 | 0.03 | 61 | 1008.0 |
| 20260510003304 | 84 | 144 | 2.6 | 7.8 | 0.00 | 0.03 | 0.03 | 61 | 1008.0 |
| 20260510003229 | 84 | 138 | 3.5 | 7.8 | 0.00 | 0.03 | 0.03 | 61 | 1008.0 |
| 20260510003120 | 84 | 124 | 3.5 | 7.8 | 0.00 | 0.03 | 0.03 | 61 | 1007.9 |
| 20260510003004 | 84 | 136 | 1.7 | 7.8 | 0.00 | 0.03 | 0.03 | 61 | 1007.9 |
| 20260510002913 | 84 | 136 | 2.6 | 7.8 | 0.00 | 0.03 | 0.03 | 61 | 1008.0 |
| 20260510002819 | 84 | 120 | 2.6 | 7.8 | 0.00 | 0.03 | 0.03 | 60 | 1007.9 |
| 20260510002709 | 84 | 130 | 2.6 | 7.8 | 0.00 | 0.03 | 0.03 | 61 | 1007.9 |
| 20260510002614 | 84 | 163 | 1.7 | 6.1 | 0.00 | 0.03 | 0.03 | 61 | 1007.9 |
| 20260510002458 | 84 | 115 | 2.6 | 6.1 | 0.00 | 0.03 | 0.03 | 61 | 1007.9 |
| 20260510002403 | 84 | 136 | 1.7 | 6.1 | 0.00 | 0.03 | 0.03 | 61 | 1007.9 |
| 20260510002320 | 84 | 96 | 1.7 | 6.1 | 0.00 | 0.03 | 0.03 | 60 | 1007.9 |
| 20260510002202 | 84 | 115 | 2.6 | 6.1 | 0.00 | 0.03 | 0.03 | 60 | 1007.9 |
| 20260510002107 | 84 | 101 | 3.5 | 6.1 | 0.00 | 0.03 | 0.03 | 60 | 1007.9 |
| 20260510002012 | 84 | 138 | 2.6 | 6.1 | 0.00 | 0.03 | 0.03 | 60 | 1008.0 |
| 20260510001857 | 84 | 109 | 2.6 | 6.1 | 0.00 | 0.03 | 0.03 | 60 | 1007.9 |
| 20260510001808 | 84 | 111 | 2.6 | 6.1 | 0.00 | 0.03 | 0.03 | 60 | 1008.0 |
| 20260510001656 | 84 | 118 | 2.6 | 7.0 | 0.00 | 0.03 | 0.03 | 59 | 1007.9 |
| 20260510001623 | 84 | 121 | 2.6 | 7.0 | 0.00 | 0.03 | 0.03 | 59 | 1007.9 |
| 20260510001513 | 84 | 137 | 3.5 | 7.0 | 0.00 | 0.03 | 0.03 | 60 | 1007.9 |
| 20260510001358 | 84 | 128 | 1.7 | 7.0 | 0.00 | 0.03 | 0.03 | 59 | 1007.9 |
| 20260510001303 | 84 | 132 | 1.7 | 7.8 | 0.00 | 0.03 | 0.03 | 60 | 1007.8 |
| 20260510001208 | 84 | 131 | 2.6 | 7.8 | 0.00 | 0.03 | 0.03 | 60 | 1007.7 |
| 20260510001057 | 84 | 100 | 2.6 | 7.8 | 0.00 | 0.03 | 0.03 | 60 | 1007.7 |
| 20260510001008 | 84 | 91 | 3.5 | 7.8 | 0.00 | 0.03 | 0.03 | 60 | 1007.9 |
| 20260510000913 | 85 | 132 | 3.5 | 7.8 | 0.00 | 0.03 | 0.03 | 59 | 1007.8 |
| 20260510000818 | 85 | 108 | 2.6 | 7.8 | 0.00 | 0.03 | 0.03 | 59 | 1007.7 |
| 20260510000710 | 85 | 128 | 1.7 | 7.8 | 0.00 | 0.03 | 0.03 | 59 | 1007.8 |
| 20260510000613 | 85 | 132 | 2.6 | 7.8 | 0.00 | 0.03 | 0.03 | 59 | 1007.8 |
| 20260510000522 | 85 | 101 | 3.5 | 7.8 | 0.00 | 0.03 | 0.03 | 58 | 1007.7 |
| 20260510000412 | 85 | 98 | 2.6 | 7.8 | 0.00 | 0.03 | 0.03 | 58 | 1007.7 |
| 20260510000318 | 85 | 148 | 1.7 | 7.8 | 0.00 | 0.03 | 0.03 | 57 | 1007.8 |
| 20260510000222 | 85 | 180 | 2.6 | 7.8 | 0.00 | 0.03 | 0.03 | 56 | 1007.8 |
| 20260510000106 | 85 | 148 | 3.5 | 7.8 | 0.00 | 0.03 | 0.03 | 56 | 1007.7 |
| 20260510000017 | 85 | 164 | 3.5 | 7.8 | 0.00 | 0.03 | 0.03 | 56 | 1007.7 |
| 20260509235901 | 85 | 196 | 3.5 | 7.8 | 0.00 | 0.03 | 0.03 | 56 | 1007.7 |
| 20260509235810 | 85 | 184 | 2.6 | 7.8 | 0.00 | 0.03 | 0.03 | 56 | 1007.6 |
| 20260509235722 | 85 | 181 | 2.6 | 7.0 | 0.00 | 0.03 | 0.03 | 56 | 1007.7 |
| 20260509235606 | 85 | 111 | 3.5 | 7.0 | 0.00 | 0.03 | 0.03 | 56 | 1007.7 |
| 20260509235511 | 85 | 178 | 3.5 | 7.8 | 0.00 | 0.03 | 0.03 | 55 | 1007.6 |
| 20260509235422 | 85 | 171 | 2.6 | 7.8 | 0.00 | 0.03 | 0.03 | 55 | 1007.7 |
| 20260509235307 | 85 | 138 | 1.7 | 7.8 | 0.00 | 0.03 | 0.03 | 55 | 1007.7 |
| 20260509235235 | 85 | 154 | 3.5 | 7.8 | 0.00 | 0.03 | 0.03 | 55 | 1007.7 |
| 20260509235059 | 85 | 181 | 3.5 | 7.8 | 0.00 | 0.03 | 0.03 | 54 | 1007.7 |
| 20260509235010 | 85 | 171 | 2.6 | 7.8 | 0.00 | 0.03 | 0.03 | 54 | 1007.7 |
| 20260509234915 | 85 | 157 | 1.7 | 7.8 | 0.00 | 0.03 | 0.03 | 56 | 1007.6 |
| 20260509234759 | 85 | 153 | 2.6 | 7.8 | 0.00 | 0.03 | 0.03 | 56 | 1007.6 |
| 20260509234704 | 85 | 113 | 2.6 | 7.8 | 0.00 | 0.03 | 0.03 | 56 | 1007.6 |
| 20260509234620 | 85 | 125 | 2.6 | 7.0 | 0.00 | 0.03 | 0.03 | 56 | 1007.6 |
| 20260509234504 | 85 | 136 | 2.6 | 7.8 | 0.00 | 0.03 | 0.03 | 56 | 1007.6 |
| 20260509234408 | 85 | 109 | 3.5 | 8.7 | 0.00 | 0.03 | 0.03 | 55 | 1007.6 |
| 20260509234314 | 85 | 130 | 2.6 | 8.7 | 0.00 | 0.03 | 0.03 | 55 | 1007.6 |
| 20260509234219 | 85 | 125 | 2.6 | 8.7 | 0.00 | 0.03 | 0.03 | 55 | 1007.5 |
| 20260509234130 | 85 | 134 | 2.6 | 8.7 | 0.00 | 0.03 | 0.03 | 56 | 1007.6 |
| 20260509233957 | 85 | 132 | 2.6 | 9.6 | 0.00 | 0.03 | 0.03 | 55 | 1007.5 |
| 20260509233912 | 85 | 158 | 2.6 | 9.6 | 0.00 | 0.03 | 0.03 | 55 | 1007.5 |
| 20260509233815 | 85 | 135 | 3.5 | 9.6 | 0.00 | 0.03 | 0.03 | 55 | 1007.6 |
| 20260509233700 | 85 | 136 | 4.3 | 9.6 | 0.00 | 0.03 | 0.03 | 55 | 1007.6 |
| 20260509233604 | 85 | 141 | 3.5 | 9.6 | 0.00 | 0.03 | 0.03 | 54 | 1007.6 |
| 20260509233509 | 85 | 135 | 4.3 | 9.6 | 0.00 | 0.03 | 0.03 | 54 | 1007.6 |
| 20260509233358 | 85 | 129 | 5.2 | 9.6 | 0.00 | 0.03 | 0.03 | 53 | 1007.5 |
| 20260509233309 | 85 | 142 | 4.3 | 9.6 | 0.00 | 0.03 | 0.03 | 53 | 1007.6 |
| 20260509233214 | 86 | 134 | 4.3 | 9.6 | 0.00 | 0.03 | 0.03 | 54 | 1007.7 |
| 20260509233059 | 86 | 150 | 4.3 | 8.7 | 0.00 | 0.03 | 0.03 | 53 | 1007.6 |
| 20260509233004 | 86 | 145 | 4.3 | 8.7 | 0.00 | 0.03 | 0.03 | 54 | 1007.6 |
| 20260509232919 | 86 | 145 | 2.6 | 7.0 | 0.00 | 0.03 | 0.03 | 54 | 1007.5 |
| 20260509232804 | 86 | 105 | 1.7 | 7.0 | 0.00 | 0.03 | 0.03 | 53 | 1007.6 |
| 20260509232709 | 86 | 146 | 1.7 | 7.8 | 0.00 | 0.03 | 0.03 | 53 | 1007.5 |
| 20260509232614 | 86 | 117 | 1.7 | 7.8 | 0.00 | 0.03 | 0.03 | 53 | 1007.7 |
| 20260509232458 | 86 | 155 | 2.6 | 7.8 | 0.00 | 0.03 | 0.03 | 53 | 1007.5 |
| 20260509232412 | 86 | 126 | 2.6 | 10.4 | 0.00 | 0.03 | 0.03 | 53 | 1007.5 |
| 20260509232321 | 86 | 132 | 1.7 | 10.4 | 0.00 | 0.03 | 0.03 | 54 | 1007.6 |
| 20260509232204 | 86 | 151 | 1.7 | 10.4 | 0.00 | 0.03 | 0.03 | 53 | 1007.6 |
| 20260509232116 | 86 | 170 | 2.6 | 10.4 | 0.00 | 0.03 | 0.03 | 53 | 1007.5 |
| 20260509232020 | 86 | 136 | 2.6 | 10.4 | 0.00 | 0.03 | 0.03 | 53 | 1007.5 |
| 20260509231925 | 86 | 158 | 3.5 | 10.4 | 0.00 | 0.03 | 0.03 | 53 | 1007.5 |
| 20260509231809 | 86 | 148 | 2.6 | 10.4 | 0.00 | 0.03 | 0.03 | 54 | 1007.5 |
| 20260509231724 | 86 | 162 | 2.6 | 10.4 | 0.00 | 0.03 | 0.03 | 54 | 1007.5 |
| 20260509231609 | 86 | 144 | 3.5 | 10.4 | 0.00 | 0.03 | 0.03 | 54 | 1007.6 |
| 20260509231513 | 85 | 115 | 4.3 | 10.4 | 0.00 | 0.03 | 0.03 | 53 | 1007.6 |
| 20260509231358 | 86 | 133 | 2.6 | 10.4 | 0.00 | 0.03 | 0.03 | 54 | 1007.6 |
| 20260509231309 | 86 | 112 | 2.6 | 10.4 | 0.00 | 0.03 | 0.03 | 54 | 1007.7 |
| 20260509231214 | 86 | 128 | 2.6 | 10.4 | 0.00 | 0.03 | 0.03 | 54 | 1007.7 |
| 20260509231102 | 86 | 141 | 3.5 | 10.4 | 0.00 | 0.03 | 0.03 | 55 | 1007.6 |
| 20260509231007 | 86 | 86 | 4.3 | 10.4 | 0.00 | 0.03 | 0.03 | 54 | 1007.6 |
| 20260509230919 | 86 | 121 | 3.5 | 10.4 | 0.00 | 0.03 | 0.03 | 53 | 1007.6 |
| 20260509230803 | 86 | 115 | 3.5 | 10.4 | 0.00 | 0.03 | 0.03 | 53 | 1007.6 |
| 20260509230709 | 86 | 121 | 4.3 | 10.4 | 0.00 | 0.03 | 0.03 | 52 | 1007.6 |
| 20260509230641 | 87 | 98 | 3.5 | 7.8 | 0.00 | 0.03 | 0.03 | 52 | 1007.6 |
| 20260509230529 | 87 | 136 | 2.6 | 7.8 | 0.00 | 0.03 | 0.03 | 51 | 1007.6 |
| 20260509230413 | 86 | 185 | 2.6 | 11.3 | 0.00 | 0.03 | 0.03 | 49 | 1007.6 |
| 20260509230257 | 86 | 107 | 3.5 | 11.3 | 0.00 | 0.03 | 0.03 | 51 | 1007.6 |
| 20260509230208 | 86 | 118 | 2.6 | 11.3 | 0.00 | 0.03 | 0.03 | 50 | 1007.6 |
| 20260509230113 | 86 | 157 | 2.6 | 11.3 | 0.00 | 0.03 | 0.03 | 50 | 1007.6 |
| 20260509225957 | 86 | 155 | 3.5 | 11.3 | 0.00 | 0.03 | 0.03 | 51 | 1007.5 |
| 20260509225927 | 86 | 131 | 3.5 | 11.3 | 0.00 | 0.03 | 0.03 | 50 | 1007.6 |
| 20260509225815 | 86 | 103 | 3.5 | 11.3 | 0.00 | 0.03 | 0.03 | 50 | 1007.5 |
| 20260509225657 | 86 | 112 | 6.1 | 11.3 | 0.00 | 0.03 | 0.03 | 48 | 1007.6 |
| 20260509225628 | 86 | 98 | 7.0 | 11.3 | 0.00 | 0.03 | 0.03 | 47 | 1007.5 |
| 20260509225512 | 86 | 100 | 6.1 | 11.3 | 0.00 | 0.03 | 0.03 | 47 | 1007.5 |
| 20260509225357 | 87 | 86 | 4.3 | 11.3 | 0.00 | 0.03 | 0.03 | 46 | 1007.4 |
| 20260509225329 | 87 | 111 | 3.5 | 11.3 | 0.00 | 0.03 | 0.03 | 48 | 1007.4 |
| 20260509225218 | 87 | 138 | 3.5 | 11.3 | 0.00 | 0.03 | 0.03 | 48 | 1007.4 |
| 20260509225102 | 87 | 98 | 3.5 | 11.3 | 0.00 | 0.03 | 0.03 | 49 | 1007.4 |
| 20260509225013 | 87 | 120 | 4.3 | 11.3 | 0.00 | 0.03 | 0.03 | 48 | 1007.5 |
| 20260509224857 | 87 | 126 | 6.1 | 14.8 | 0.00 | 0.03 | 0.03 | 48 | 1007.4 |
| 20260509224830 | 87 | 85 | 6.1 | 14.8 | 0.00 | 0.03 | 0.03 | 48 | 1007.4 |
| 20260509224714 | 87 | 98 | 5.2 | 14.8 | 0.00 | 0.03 | 0.03 | 47 | 1007.5 |
| 20260509224619 | 87 | 129 | 5.2 | 14.8 | 0.00 | 0.03 | 0.03 | 46 | 1007.4 |
| 20260509224514 | 86 | 101 | 5.2 | 14.8 | 0.00 | 0.03 | 0.03 | 45 | 1007.5 |
| 20260509224358 | 86 | 71 | 7.0 | 14.8 | 0.00 | 0.03 | 0.03 | 46 | 1007.4 |
| 20260509224303 | 86 | 62 | 8.7 | 14.8 | 0.00 | 0.03 | 0.03 | 47 | 1007.4 |
| 20260509224208 | 86 | 94 | 7.8 | 14.8 | 0.00 | 0.03 | 0.03 | 47 | 1007.4 |
| 20260509224120 | 86 | 95 | 7.0 | 14.8 | 0.00 | 0.03 | 0.03 | 50 | 1007.4 |
| 20260509224004 | 86 | 129 | 5.2 | 11.3 | 0.00 | 0.03 | 0.03 | 52 | 1007.4 |
| 20260509223933 | 87 | 80 | 7.0 | 11.3 | 0.00 | 0.03 | 0.03 | 53 | 1007.4 |
| 20260509223757 | 87 | 98 | 7.0 | 11.3 | 0.00 | 0.03 | 0.03 | 53 | 1007.5 |
| 20260509223730 | 87 | 76 | 6.1 | 11.3 | 0.00 | 0.03 | 0.03 | 54 | 1007.4 |
| 20260509223613 | 87 | 80 | 4.3 | 11.3 | 0.00 | 0.03 | 0.03 | 55 | 1007.4 |
| 20260509223457 | 87 | 94 | 4.3 | 11.3 | 0.00 | 0.03 | 0.03 | 55 | 1007.4 |
| 20260509223408 | 87 | 88 | 3.5 | 9.6 | 0.00 | 0.03 | 0.03 | 55 | 1007.4 |
| 20260509223256 | 86 | 133 | 2.6 | 9.6 | 0.00 | 0.03 | 0.03 | 54 | 1007.4 |
| 20260509223201 | 87 | 101 | 4.3 | 9.6 | 0.00 | 0.03 | 0.03 | 54 | 1007.4 |
| 20260509223106 | 87 | 107 | 4.3 | 9.6 | 0.00 | 0.03 | 0.03 | 54 | 1007.4 |
| 20260509223011 | 87 | 106 | 3.5 | 9.6 | 0.00 | 0.03 | 0.03 | 55 | 1007.4 |
| 20260509222856 | 87 | 96 | 3.5 | 9.6 | 0.00 | 0.03 | 0.03 | 55 | 1007.4 |
| 20260509222807 | 87 | 90 | 4.3 | 9.6 | 0.00 | 0.03 | 0.03 | 54 | 1007.3 |
| 20260509222656 | 87 | 84 | 4.3 | 9.6 | 0.00 | 0.03 | 0.03 | 55 | 1007.4 |
| 20260509222601 | 87 | 105 | 3.5 | 9.6 | 0.00 | 0.03 | 0.03 | 54 | 1007.3 |
| 20260509222506 | 87 | 40 | 4.3 | 9.6 | 0.00 | 0.03 | 0.03 | 54 | 1007.2 |
| 20260509222417 | 87 | 57 | 5.2 | 9.6 | 0.00 | 0.03 | 0.03 | 54 | 1007.3 |
| 20260509222301 | 87 | 44 | 5.2 | 9.6 | 0.00 | 0.03 | 0.03 | 54 | 1007.2 |
| 20260509222206 | 87 | 31 | 3.5 | 9.6 | 0.00 | 0.03 | 0.03 | 54 | 1007.3 |
| 20260509222122 | 87 | 72 | 2.6 | 9.6 | 0.00 | 0.03 | 0.03 | 54 | 1007.2 |
| 20260509222006 | 87 | 78 | 4.3 | 8.7 | 0.00 | 0.03 | 0.03 | 55 | 1007.2 |
| 20260509221911 | 87 | 49 | 4.3 | 8.7 | 0.00 | 0.03 | 0.03 | 54 | 1007.1 |
| 20260509221816 | 87 | 26 | 4.3 | 8.7 | 0.00 | 0.03 | 0.03 | 55 | 1007.2 |
| 20260509221707 | 87 | 32 | 4.3 | 7.0 | 0.00 | 0.03 | 0.03 | 55 | 1007.1 |
| 20260509221610 | 87 | 30 | 3.5 | 7.0 | 0.00 | 0.03 | 0.03 | 55 | 1007.2 |
| 20260509221457 | 87 | 86 | 2.6 | 6.1 | 0.00 | 0.03 | 0.03 | 56 | 1007.2 |
| 20260509221403 | 87 | 103 | 2.6 | 6.1 | 0.00 | 0.03 | 0.03 | 55 | 1007.2 |
| 20260509221307 | 87 | 86 | 1.7 | 6.1 | 0.00 | 0.03 | 0.03 | 56 | 1007.2 |
| 20260509221219 | 87 | 105 | 1.7 | 5.2 | 0.00 | 0.03 | 0.03 | 55 | 1007.2 |
| 20260509221103 | 87 | 103 | 1.7 | 6.1 | 0.00 | 0.03 | 0.03 | 55 | 1007.2 |
| 20260509221012 | 87 | 105 | 1.7 | 6.1 | 0.00 | 0.03 | 0.03 | 56 | 1007.1 |
| 20260509220857 | 87 | 108 | 1.7 | 6.1 | 0.00 | 0.03 | 0.03 | 55 | 1007.1 |
| 20260509220802 | 87 | 108 | 1.7 | 6.1 | 0.00 | 0.03 | 0.03 | 56 | 1007.0 |
| 20260509220714 | 87 | 57 | 1.7 | 6.1 | 0.00 | 0.03 | 0.03 | 56 | 1007.1 |
| 20260509220558 | 86 | 94 | 2.6 | 6.1 | 0.00 | 0.03 | 0.03 | 56 | 1007.0 |
| 20260509220502 | 86 | 94 | 1.7 | 6.1 | 0.00 | 0.03 | 0.03 | 56 | 1007.1 |
| 20260509220411 | 86 | 109 | 2.6 | 6.1 | 0.00 | 0.03 | 0.03 | 56 | 1007.1 |
| 20260509220322 | 86 | 119 | 2.6 | 6.1 | 0.00 | 0.03 | 0.03 | 56 | 1007.1 |
| 20260509220207 | 86 | 84 | 2.6 | 6.1 | 0.00 | 0.03 | 0.03 | 56 | 1007.1 |
| 20260509220111 | 86 | 120 | 2.6 | 5.2 | 0.00 | 0.03 | 0.03 | 57 | 1007.1 |
| 20260509220014 | 86 | 101 | 2.6 | 6.1 | 0.00 | 0.03 | 0.03 | 57 | 1007.1 |
| 20260509215902 | 86 | 122 | 2.6 | 6.1 | 0.00 | 0.03 | 0.03 | 56 | 1007.2 |
| 20260509215813 | 86 | 127 | 1.7 | 6.1 | 0.00 | 0.03 | 0.03 | 57 | 1007.3 |
| 20260509215659 | 86 | 140 | 0.9 | 6.1 | 0.00 | 0.03 | 0.03 | 57 | 1007.4 |
| 20260509215602 | 86 | 140 | 1.7 | 6.1 | 0.00 | 0.03 | 0.03 | 57 | 1007.3 |
| 20260509215507 | 87 | 140 | 1.7 | 6.1 | 0.00 | 0.03 | 0.03 | 57 | 1007.4 |
| 20260509215439 | 87 | 141 | 1.7 | 6.1 | 0.00 | 0.03 | 0.03 | 57 | 1007.3 |
| 20260509215306 | 87 | 193 | 2.6 | 6.1 | 0.00 | 0.03 | 0.03 | 57 | 1007.3 |
| 20260509215211 | 87 | 156 | 1.7 | 6.1 | 0.00 | 0.03 | 0.03 | 57 | 1007.4 |
| 20260509215122 | 87 | 152 | 1.7 | 6.1 | 0.00 | 0.03 | 0.03 | 57 | 1007.3 |
| 20260509215006 | 86 | 159 | 1.7 | 6.1 | 0.00 | 0.03 | 0.03 | 57 | 1007.3 |
| 20260509214912 | 86 | 146 | 1.7 | 6.1 | 0.00 | 0.03 | 0.03 | 56 | 1007.4 |
| 20260509214756 | 86 | 183 | 2.6 | 6.1 | 0.00 | 0.03 | 0.03 | 56 | 1007.4 |
| 20260509214728 | 86 | 119 | 2.6 | 6.1 | 0.00 | 0.03 | 0.03 | 56 | 1007.4 |
| 20260509214617 | 86 | 136 | 2.6 | 6.1 | 0.00 | 0.03 | 0.03 | 56 | 1007.4 |
| 20260509214501 | 86 | 176 | 1.7 | 5.2 | 0.00 | 0.03 | 0.03 | 56 | 1007.4 |
| 20260509214433 | 86 | 155 | 0.9 | 5.2 | 0.00 | 0.03 | 0.03 | 58 | 1007.4 |
| 20260509214256 | 85 | 155 | 0.9 | 5.2 | 0.00 | 0.03 | 0.03 | 57 | 1007.4 |
| 20260509214200 | 85 | 178 | 0.9 | 5.2 | 0.00 | 0.03 | 0.03 | 58 | 1007.5 |
| 20260509214112 | 85 | 180 | 0.9 | 5.2 | 0.00 | 0.03 | 0.03 | 58 | 1007.5 |
| 20260509214000 | 84 | 178 | 0.9 | 5.2 | 0.00 | 0.03 | 0.03 | 59 | 1007.5 |
| 20260509213926 | 84 | 168 | 1.7 | 5.2 | 0.00 | 0.03 | 0.03 | 59 | 1007.5 |
| 20260509213816 | 83 | 168 | 1.7 | 7.0 | 0.00 | 0.03 | 0.03 | 60 | 1007.4 |
| 20260509213701 | 83 | 250 | 2.6 | 7.0 | 0.00 | 0.03 | 0.03 | 60 | 1007.5 |
| 20260509213626 | 83 | 215 | 2.6 | 8.7 | 0.00 | 0.03 | 0.03 | 60 | 1007.5 |
| 20260509213517 | 83 | 232 | 2.6 | 8.7 | 0.00 | 0.03 | 0.03 | 60 | 1007.5 |
| 20260509213405 | 83 | 231 | 2.6 | 9.6 | 0.00 | 0.03 | 0.03 | 61 | 1007.5 |
| 20260509213310 | 83 | 197 | 1.7 | 11.3 | 0.00 | 0.03 | 0.03 | 60 | 1007.6 |
| 20260509213215 | 83 | 195 | 1.7 | 11.3 | 0.00 | 0.03 | 0.03 | 59 | 1007.5 |
| 20260509213058 | 83 | 181 | 1.7 | 14.8 | 0.00 | 0.03 | 0.03 | 61 | 1007.6 |
| 20260509213003 | 82 | 192 | 2.6 | 14.8 | 0.00 | 0.03 | 0.03 | 61 | 1007.6 |
| 20260509212914 | 82 | 188 | 4.3 | 14.8 | 0.00 | 0.03 | 0.03 | 61 | 1007.8 |
| 20260509212802 | 81 | 196 | 4.3 | 14.8 | 0.00 | 0.03 | 0.03 | 61 | 1007.7 |
| 20260509212707 | 81 | 224 | 4.3 | 14.8 | 0.00 | 0.03 | 0.03 | 61 | 1007.7 |
| 20260509212612 | 81 | 188 | 5.2 | 14.8 | 0.00 | 0.03 | 0.03 | 61 | 1007.8 |
| 20260509212524 | 82 | 157 | 7.0 | 14.8 | 0.00 | 0.03 | 0.03 | 60 | 1007.7 |
| 20260509212408 | 82 | 195 | 7.8 | 14.8 | 0.00 | 0.03 | 0.03 | 59 | 1007.9 |
| 20260509212313 | 83 | 190 | 7.8 | 13.9 | 0.00 | 0.03 | 0.03 | 57 | 1007.8 |
| 20260509212201 | 83 | 138 | 6.1 | 13.0 | 0.00 | 0.03 | 0.03 | 56 | 1007.9 |
| 20260509212113 | 83 | 143 | 5.2 | 13.9 | 0.00 | 0.03 | 0.03 | 55 | 1007.9 |
| 20260509211957 | 83 | 173 | 3.5 | 11.3 | 0.00 | 0.03 | 0.03 | 54 | 1007.9 |
| 20260509211901 | 83 | 163 | 2.6 | 11.3 | 0.00 | 0.03 | 0.03 | 54 | 1007.8 |
| 20260509211806 | 83 | 171 | 2.6 | 14.8 | 0.00 | 0.03 | 0.03 | 54 | 1007.9 |
| 20260509211739 | 83 | 156 | 2.6 | 14.8 | 0.00 | 0.03 | 0.03 | 54 | 1007.9 |
| 20260509211606 | 82 | 180 | 3.5 | 14.8 | 0.00 | 0.03 | 0.03 | 54 | 1007.9 |
| 20260509211511 | 82 | 167 | 5.2 | 14.8 | 0.00 | 0.03 | 0.03 | 54 | 1007.9 |
| 20260509211416 | 82 | 165 | 5.2 | 14.8 | 0.00 | 0.03 | 0.03 | 53 | 1008.0 |
| 20260509211300 | 82 | 175 | 7.0 | 14.8 | 0.00 | 0.03 | 0.03 | 54 | 1008.0 |
| 20260509211232 | 82 | 187 | 6.1 | 14.8 | 0.00 | 0.03 | 0.03 | 53 | 1008.0 |
| 20260509211056 | 82 | 168 | 5.2 | 14.8 | 0.00 | 0.03 | 0.03 | 53 | 1008.1 |
| 20260509211005 | 82 | 161 | 6.1 | 14.8 | 0.00 | 0.03 | 0.03 | 53 | 1008.1 |
| 20260509210937 | 82 | 167 | 6.1 | 14.8 | 0.00 | 0.03 | 0.03 | 53 | 1008.1 |
| 20260509210800 | 81 | 131 | 5.2 | 13.9 | 0.00 | 0.03 | 0.03 | 53 | 1008.2 |
| 20260509210706 | 81 | 144 | 5.2 | 13.9 | 0.00 | 0.03 | 0.03 | 53 | 1008.1 |
| 20260509210616 | 82 | 119 | 4.3 | 14.8 | 0.00 | 0.03 | 0.03 | 52 | 1008.2 |
| 20260509210522 | 82 | 133 | 2.6 | 14.8 | 0.00 | 0.03 | 0.03 | 53 | 1008.1 |
| 20260509210411 | 82 | 125 | 4.3 | 14.8 | 0.00 | 0.03 | 0.03 | 54 | 1008.2 |
| 20260509210322 | 81 | 141 | 5.2 | 14.8 | 0.00 | 0.03 | 0.03 | 54 | 1008.2 |
| 20260509210206 | 82 | 138 | 6.1 | 14.8 | 0.00 | 0.03 | 0.03 | 54 | 1008.3 |
| 20260509210111 | 82 | 151 | 7.0 | 14.8 | 0.00 | 0.03 | 0.03 | 56 | 1008.2 |
| 20260509205956 | 82 | 157 | 4.3 | 14.8 | 0.00 | 0.03 | 0.03 | 58 | 1008.2 |
| 20260509205901 | 81 | 183 | 4.3 | 14.8 | 0.00 | 0.03 | 0.03 | 58 | 1008.3 |
| 20260509205818 | 81 | 134 | 5.2 | 16.5 | 0.00 | 0.03 | 0.03 | 57 | 1008.2 |
| 20260509205701 | 81 | 139 | 4.3 | 16.5 | 0.00 | 0.03 | 0.03 | 57 | 1008.2 |
| 20260509205606 | 81 | 149 | 4.3 | 16.5 | 0.00 | 0.03 | 0.03 | 58 | 1008.2 |
| 20260509205518 | 81 | 122 | 5.2 | 16.5 | 0.00 | 0.03 | 0.03 | 57 | 1008.2 |
| 20260509205422 | 81 | 138 | 4.3 | 16.5 | 0.00 | 0.03 | 0.03 | 57 | 1008.2 |
| 20260509205307 | 81 | 133 | 4.3 | 16.5 | 0.00 | 0.03 | 0.03 | 58 | 1008.3 |
| 20260509205216 | 81 | 163 | 6.1 | 16.5 | 0.00 | 0.03 | 0.03 | 58 | 1008.2 |
| 20260509205120 | 81 | 107 | 8.7 | 16.5 | 0.00 | 0.03 | 0.03 | 58 | 1008.1 |
| 20260509205010 | 81 | 116 | 10.4 | 16.5 | 0.00 | 0.03 | 0.03 | 57 | 1008.2 |
| 20260509204916 | 81 | 106 | 10.4 | 15.6 | 0.00 | 0.03 | 0.03 | 57 | 1008.2 |
| 20260509204800 | 81 | 89 | 9.6 | 15.6 | 0.00 | 0.03 | 0.03 | 57 | 1008.2 |
| 20260509204705 | 82 | 102 | 7.8 | 15.6 | 0.00 | 0.03 | 0.03 | 58 | 1008.2 |
| 20260509204621 | 82 | 102 | 6.1 | 15.6 | 0.00 | 0.03 | 0.03 | 59 | 1008.1 |
| 20260509204525 | 81 | 105 | 5.2 | 15.6 | 0.00 | 0.03 | 0.03 | 59 | 1008.2 |
| 20260509204409 | 81 | 87 | 4.3 | 16.5 | 0.00 | 0.03 | 0.03 | 58 | 1008.1 |
| 20260509204320 | 81 | 86 | 4.3 | 20.0 | 0.00 | 0.03 | 0.03 | 58 | 1008.2 |
| 20260509204205 | 82 | 103 | 7.0 | 24.3 | 0.00 | 0.03 | 0.03 | 57 | 1008.1 |
| 20260509204106 | 82 | 100 | 7.8 | 24.3 | 0.00 | 0.03 | 0.03 | 57 | 1008.3 |
| 20260509204014 | 82 | 89 | 9.6 | 24.3 | 0.00 | 0.03 | 0.03 | 56 | 1008.3 |
| 20260509203925 | 83 | 113 | 10.4 | 24.3 | 0.00 | 0.03 | 0.03 | 57 | 1008.3 |
| 20260509203808 | 83 | 101 | 9.6 | 24.3 | 0.00 | 0.03 | 0.03 | 58 | 1008.3 |
| 20260509203714 | 83 | 80 | 11.3 | 24.3 | 0.00 | 0.03 | 0.03 | 58 | 1008.3 |
| 20260509203558 | 84 | 90 | 14.8 | 24.3 | 0.00 | 0.03 | 0.03 | 57 | 1008.4 |
| 20260509203502 | 85 | 88 | 14.8 | 24.3 | 0.00 | 0.03 | 0.03 | 58 | 1008.4 |
| 20260509203417 | 86 | 83 | 8.7 | 23.5 | 0.00 | 0.03 | 0.03 | 59 | 1008.3 |
| 20260509203329 | 87 | 95 | 7.0 | 15.6 | 0.00 | 0.03 | 0.03 | 59 | 1008.4 |
| 20260509203213 | 88 | 113 | 7.8 | 13.9 | 0.00 | 0.03 | 0.03 | 58 | 1008.4 |
| 20260509203057 | 89 | 79 | 6.1 | 13.9 | 0.00 | 0.03 | 0.03 | 56 | 1008.4 |
| 20260509203002 | 90 | 64 | 5.2 | 8.7 | 0.00 | 0.03 | 0.03 | 54 | 1008.3 |
| 20260509202907 | 90 | 32 | 3.5 | 7.0 | 0.00 | 0.03 | 0.03 | 51 | 1008.3 |
| 20260509202756 | 90 | 35 | 2.6 | 7.0 | 0.00 | 0.03 | 0.03 | 51 | 1008.3 |
| 20260509202707 | 90 | 33 | 1.7 | 8.7 | 0.00 | 0.03 | 0.03 | 50 | 1008.3 |
| 20260509202633 | 90 | 34 | 1.7 | 8.7 | 0.00 | 0.03 | 0.03 | 51 | 1008.2 |
| 20260509202456 | 90 | 24 | 1.7 | 8.7 | 0.00 | 0.03 | 0.03 | 50 | 1008.2 |
| 20260509202407 | 90 | 43 | 2.6 | 8.7 | 0.00 | 0.03 | 0.03 | 48 | 1008.2 |
| 20260509202312 | 90 | 43 | 3.5 | 8.7 | 0.00 | 0.03 | 0.03 | 50 | 1008.2 |
| 20260509202222 | 91 | 5 | 3.5 | 8.7 | 0.00 | 0.03 | 0.03 | 49 | 1008.3 |
| 20260509202112 | 91 | 16 | 3.5 | 8.7 | 0.00 | 0.03 | 0.03 | 49 | 1008.3 |
| 20260509202018 | 91 | 23 | 5.2 | 8.7 | 0.00 | 0.03 | 0.03 | 48 | 1008.1 |
| 20260509201902 | 91 | 38 | 4.3 | 8.7 | 0.00 | 0.03 | 0.03 | 48 | 1008.2 |
| 20260509201813 | 92 | 30 | 2.6 | 8.7 | 0.00 | 0.03 | 0.03 | 49 | 1008.2 |
| 20260509201657 | 91 | 258 | 1.7 | 8.7 | 0.00 | 0.03 | 0.03 | 47 | 1008.1 |
| 20260509201607 | 92 | 255 | 3.5 | 8.7 | 0.00 | 0.03 | 0.03 | 47 | 1008.1 |
| 20260509201512 | 93 | 261 | 4.3 | 8.7 | 0.00 | 0.03 | 0.03 | 46 | 1008.2 |
| 20260509201356 | 93 | 273 | 2.6 | 8.7 | 0.00 | 0.03 | 0.03 | 45 | 1008.1 |
| 20260509201259 | 93 | 229 | 0.9 | 7.8 | 0.00 | 0.03 | 0.03 | 50 | 1008.2 |
| 20260509201211 | 92 | 223 | 0.0 | 7.8 | 0.00 | 0.03 | 0.03 | 48 | 1008.2 |
| 20260509201116 | 93 | 219 | 0.9 | 7.8 | 0.00 | 0.03 | 0.03 | 48 | 1008.2 |
| 20260509201003 | 93 | 259 | 0.9 | 7.8 | 0.00 | 0.03 | 0.03 | 47 | 1008.2 |
| 20260509200908 | 92 | 263 | 0.9 | 7.8 | 0.00 | 0.03 | 0.03 | 47 | 1008.2 |
| 20260509200820 | 92 | 344 | 0.9 | 7.8 | 0.00 | 0.03 | 0.03 | 48 | 1008.2 |
| 20260509200705 | 91 | 344 | 1.7 | 7.8 | 0.00 | 0.03 | 0.03 | 49 | 1008.3 |
| 20260509200608 | 91 | 345 | 3.5 | 7.8 | 0.00 | 0.03 | 0.03 | 50 | 1008.4 |
| 20260509200541 | 91 | 348 | 3.5 | 7.8 | 0.00 | 0.03 | 0.03 | 50 | 1008.3 |
| 20260509200408 | 90 | 309 | 2.6 | 7.0 | 0.00 | 0.03 | 0.03 | 51 | 1008.3 |
| 20260509200314 | 90 | 286 | 1.7 | 6.1 | 0.00 | 0.03 | 0.03 | 52 | 1008.3 |
| 20260509200158 | 89 | 271 | 0.0 | 7.8 | 0.00 | 0.03 | 0.03 | 51 | 1008.2 |
| 20260509200103 | 89 | 269 | 0.0 | 7.8 | 0.00 | 0.03 | 0.03 | 51 | 1008.3 |
| 20260509200036 | 89 | 269 | 0.0 | 7.8 | 0.00 | 0.03 | 0.03 | 51 | 1008.2 |
| 20260509195859 | 89 | 269 | 0.9 | 7.8 | 0.00 | 0.03 | 0.03 | 51 | 1008.2 |
| 20260509195808 | 89 | 269 | 1.7 | 7.8 | 0.00 | 0.03 | 0.03 | 51 | 1008.3 |
| 20260509195719 | 89 | 269 | 2.6 | 7.8 | 0.00 | 0.03 | 0.03 | 51 | 1008.3 |
| 20260509195603 | 89 | 265 | 1.7 | 7.8 | 0.00 | 0.03 | 0.03 | 54 | 1008.3 |
| 20260509195507 | 89 | 290 | 2.6 | 7.8 | 0.00 | 0.03 | 0.03 | 54 | 1008.3 |
| 20260509195412 | 89 | 309 | 2.6 | 7.8 | 0.00 | 0.03 | 0.03 | 54 | 1008.4 |
| 20260509195317 | 89 | 249 | 0.9 | 7.0 | 0.00 | 0.03 | 0.03 | 53 | 1008.4 |
| 20260509195212 | 89 | 236 | 0.9 | 7.0 | 0.00 | 0.03 | 0.03 | 54 | 1008.3 |
| 20260509195056 | 88 | 238 | 1.7 | 7.0 | 0.00 | 0.03 | 0.03 | 53 | 1008.3 |
| 20260509195000 | 88 | 245 | 0.9 | 7.0 | 0.00 | 0.03 | 0.03 | 56 | 1008.3 |
| 20260509194906 | 88 | 183 | 0.9 | 8.7 | 0.00 | 0.03 | 0.03 | 54 | 1008.2 |
| 20260509194818 | 88 | 182 | 0.9 | 8.7 | 0.00 | 0.03 | 0.03 | 54 | 1008.2 |
| 20260509194706 | 88 | 182 | 3.5 | 8.7 | 0.00 | 0.03 | 0.03 | 56 | 1008.2 |
| 20260509194611 | 88 | 207 | 2.6 | 8.7 | 0.00 | 0.03 | 0.03 | 55 | 1008.2 |
| 20260509194515 | 88 | 230 | 2.6 | 8.7 | 0.00 | 0.03 | 0.03 | 55 | 1008.3 |
| 20260509194359 | 88 | 146 | 2.6 | 8.7 | 0.00 | 0.03 | 0.03 | 55 | 1008.3 |
| 20260509194310 | 88 | 178 | 3.5 | 8.7 | 0.00 | 0.03 | 0.03 | 56 | 1008.3 |
| 20260509194215 | 89 | 234 | 3.5 | 8.7 | 0.00 | 0.03 | 0.03 | 56 | 1008.4 |
| 20260509194104 | 89 | 209 | 2.6 | 8.7 | 0.00 | 0.03 | 0.03 | 55 | 1008.3 |
| 20260509194008 | 90 | 199 | 3.5 | 8.7 | 0.00 | 0.03 | 0.03 | 54 | 1008.3 |
| 20260509193919 | 90 | 234 | 4.3 | 8.7 | 0.00 | 0.03 | 0.03 | 53 | 1008.3 |
| 20260509193803 | 91 | 219 | 4.3 | 8.7 | 0.00 | 0.03 | 0.03 | 52 | 1008.4 |
| 20260509193714 | 91 | 220 | 5.2 | 8.7 | 0.00 | 0.03 | 0.03 | 53 | 1008.3 |
| 20260509193617 | 91 | 236 | 4.3 | 7.8 | 0.00 | 0.03 | 0.03 | 54 | 1008.3 |
| 20260509193505 | 90 | 276 | 2.6 | 7.8 | 0.00 | 0.03 | 0.03 | 54 | 1008.4 |
| 20260509193410 | 90 | 243 | 2.6 | 6.1 | 0.00 | 0.03 | 0.03 | 55 | 1008.5 |
| 20260509193342 | 89 | 219 | 2.6 | 6.1 | 0.00 | 0.03 | 0.03 | 53 | 1008.5 |
| 20260509193205 | 90 | 236 | 2.6 | 7.0 | 0.00 | 0.03 | 0.03 | 53 | 1008.6 |
| 20260509193110 | 90 | 234 | 0.9 | 7.0 | 0.00 | 0.03 | 0.03 | 55 | 1008.6 |
| 20260509193014 | 89 | 221 | 0.0 | 7.0 | 0.00 | 0.03 | 0.03 | 52 | 1008.5 |
| 20260509192926 | 89 | 221 | 0.9 | 7.0 | 0.00 | 0.03 | 0.03 | 53 | 1008.6 |
| 20260509192814 | 89 | 221 | 1.7 | 7.0 | 0.00 | 0.03 | 0.03 | 54 | 1008.6 |
| 20260509192658 | 89 | 221 | 3.5 | 7.0 | 0.00 | 0.03 | 0.03 | 54 | 1008.7 |
| 20260509192603 | 89 | 232 | 4.3 | 7.0 | 0.00 | 0.03 | 0.03 | 54 | 1008.6 |
| 20260509192514 | 89 | 220 | 4.3 | 7.0 | 0.00 | 0.03 | 0.03 | 53 | 1008.7 |
| 20260509192358 | 89 | 254 | 3.5 | 7.0 | 0.00 | 0.03 | 0.03 | 54 | 1008.6 |
| 20260509192308 | 89 | 224 | 3.5 | 7.0 | 0.00 | 0.03 | 0.03 | 54 | 1008.7 |
| 20260509192219 | 90 | 226 | 3.5 | 8.7 | 0.00 | 0.03 | 0.03 | 55 | 1008.7 |
| 20260509192103 | 90 | 248 | 3.5 | 8.7 | 0.00 | 0.03 | 0.03 | 53 | 1008.7 |
| 20260509192007 | 90 | 227 | 1.7 | 8.7 | 0.00 | 0.03 | 0.03 | 54 | 1008.7 |
| 20260509191912 | 90 | 245 | 0.9 | 8.7 | 0.00 | 0.03 | 0.03 | 55 | 1008.7 |
| 20260509191757 | 89 | 244 | 2.6 | 8.7 | 0.00 | 0.03 | 0.03 | 55 | 1008.8 |
| 20260509191712 | 89 | 242 | 4.3 | 8.7 | 0.00 | 0.03 | 0.03 | 56 | 1008.8 |
| 20260509191617 | 89 | 246 | 4.3 | 8.7 | 0.00 | 0.03 | 0.03 | 56 | 1008.7 |
| 20260509191501 | 89 | 271 | 4.3 | 8.7 | 0.00 | 0.03 | 0.03 | 54 | 1008.8 |
| 20260509191413 | 90 | 213 | 5.2 | 8.7 | 0.00 | 0.03 | 0.03 | 54 | 1008.8 |
| 20260509191317 | 91 | 248 | 4.3 | 7.8 | 0.00 | 0.03 | 0.03 | 54 | 1008.8 |
| 20260509191201 | 91 | 233 | 1.7 | 7.8 | 0.00 | 0.03 | 0.03 | 53 | 1008.8 |
| 20260509191109 | 91 | 263 | 0.0 | 6.1 | 0.00 | 0.03 | 0.03 | 53 | 1008.8 |
| 20260509191014 | 91 | 263 | 0.9 | 6.1 | 0.00 | 0.03 | 0.03 | 52 | 1008.7 |
| 20260509190858 | 91 | 263 | 0.9 | 6.1 | 0.00 | 0.03 | 0.03 | 53 | 1008.8 |
| 20260509190831 | 91 | 277 | 1.7 | 6.1 | 0.00 | 0.03 | 0.03 | 53 | 1008.8 |
| 20260509190717 | 90 | 321 | 1.7 | 6.1 | 0.00 | 0.03 | 0.03 | 52 | 1008.8 |
| 20260509190600 | 89 | 280 | 1.7 | 6.1 | 0.00 | 0.03 | 0.03 | 53 | 1008.8 |
| 20260509190515 | 88 | 280 | 1.7 | 6.1 | 0.00 | 0.03 | 0.03 | 54 | 1008.9 |
| 20260509190359 | 88 | 280 | 2.6 | 9.6 | 0.00 | 0.03 | 0.03 | 54 | 1008.9 |
| 20260509190303 | 88 | 268 | 2.6 | 9.6 | 0.00 | 0.03 | 0.03 | 55 | 1008.9 |
| 20260509190235 | 87 | 267 | 1.7 | 9.6 | 0.00 | 0.03 | 0.03 | 55 | 1009.0 |
| 20260509190059 | 87 | 259 | 0.9 | 9.6 | 0.00 | 0.03 | 0.03 | 54 | 1008.9 |
| 20260509190004 | 87 | 261 | 1.7 | 9.6 | 0.00 | 0.03 | 0.03 | 55 | 1009.0 |
| 20260509185913 | 87 | 260 | 2.6 | 9.6 | 0.00 | 0.03 | 0.03 | 58 | 1009.0 |
| 20260509185801 | 87 | 226 | 2.6 | 9.6 | 0.00 | 0.03 | 0.03 | 56 | 1009.0 |
| 20260509185705 | 87 | 209 | 4.3 | 9.6 | 0.00 | 0.03 | 0.03 | 56 | 1009.0 |
| 20260509185610 | 87 | 210 | 4.3 | 9.6 | 0.00 | 0.03 | 0.03 | 55 | 1009.0 |
| 20260509185522 | 87 | 215 | 3.5 | 9.6 | 0.00 | 0.03 | 0.03 | 57 | 1008.9 |
| 20260509185405 | 87 | 223 | 3.5 | 7.8 | 0.00 | 0.03 | 0.03 | 57 | 1009.0 |
| 20260509185311 | 87 | 205 | 4.3 | 7.8 | 0.00 | 0.03 | 0.03 | 57 | 1009.0 |
| 20260509185159 | 87 | 265 | 2.6 | 7.8 | 0.00 | 0.03 | 0.03 | 57 | 1009.0 |
| 20260509185111 | 87 | 237 | 2.6 | 7.0 | 0.00 | 0.03 | 0.03 | 56 | 1009.1 |
| 20260509185036 | 87 | 239 | 1.7 | 6.1 | 0.00 | 0.03 | 0.03 | 57 | 1009.2 |
| 20260509184920 | 87 | 213 | 0.9 | 3.5 | 0.00 | 0.03 | 0.03 | 56 | 1009.1 |
| 20260509184810 | 87 | 213 | 0.9 | 3.5 | 0.00 | 0.03 | 0.03 | 56 | 1009.1 |
| 20260509184715 | 87 | 213 | 0.9 | 3.5 | 0.00 | 0.03 | 0.03 | 56 | 1009.2 |
| 20260509184603 | 87 | 213 | 0.9 | 6.1 | 0.00 | 0.03 | 0.03 | 57 | 1009.3 |
| 20260509184513 | 87 | 207 | 0.9 | 7.0 | 0.00 | 0.03 | 0.03 | 57 | 1009.2 |
| 20260509184358 | 87 | 207 | 0.0 | 7.0 | 0.00 | 0.03 | 0.03 | 57 | 1009.3 |
| 20260509184303 | 87 | 207 | 0.9 | 7.0 | 0.00 | 0.03 | 0.03 | 57 | 1009.2 |
| 20260509184208 | 87 | 207 | 0.9 | 7.8 | 0.00 | 0.03 | 0.03 | 57 | 1009.3 |
| 20260509184057 | 87 | 207 | 0.9 | 7.8 | 0.00 | 0.03 | 0.03 | 57 | 1009.3 |
| 20260509184023 | 86 | 207 | 1.7 | 7.8 | 0.00 | 0.03 | 0.03 | 59 | 1009.2 |
| 20260509183918 | 86 | 207 | 2.6 | 7.8 | 0.00 | 0.03 | 0.03 | 57 | 1009.3 |
| 20260509183801 | 86 | 213 | 4.3 | 7.8 | 0.00 | 0.03 | 0.03 | 56 | 1009.2 |
| 20260509183729 | 87 | 222 | 4.3 | 7.8 | 0.00 | 0.03 | 0.03 | 59 | 1009.3 |
| 20260509183618 | 87 | 224 | 4.3 | 7.8 | 0.00 | 0.03 | 0.03 | 56 | 1009.3 |
| 20260509183523 | 87 | 188 | 5.2 | 7.8 | 0.00 | 0.03 | 0.03 | 57 | 1009.3 |
| 20260509183407 | 88 | 206 | 3.5 | 7.8 | 0.00 | 0.03 | 0.03 | 57 | 1009.3 |
| 20260509183256 | 88 | 186 | 0.9 | 6.1 | 0.00 | 0.03 | 0.03 | 56 | 1009.4 |
| 20260509183207 | 87 | 182 | 0.0 | 6.1 | 0.00 | 0.03 | 0.03 | 55 | 1009.4 |
| 20260509183112 | 87 | 182 | 0.9 | 6.1 | 0.00 | 0.03 | 0.03 | 54 | 1009.5 |
| 20260509183017 | 87 | 182 | 0.9 | 6.1 | 0.00 | 0.03 | 0.03 | 55 | 1009.5 |
| 20260509182908 | 88 | 198 | 0.9 | 6.1 | 0.00 | 0.03 | 0.03 | 56 | 1009.5 |
| 20260509182812 | 87 | 198 | 2.6 | 6.1 | 0.00 | 0.03 | 0.03 | 59 | 1009.5 |
| 20260509182701 | 87 | 198 | 3.5 | 6.1 | 0.00 | 0.03 | 0.03 | 55 | 1009.5 |
| 20260509182606 | 88 | 190 | 1.7 | 6.1 | 0.00 | 0.03 | 0.03 | 55 | 1009.5 |
| 20260509182510 | 88 | 213 | 1.7 | 5.2 | 0.00 | 0.03 | 0.03 | 57 | 1009.6 |
| 20260509182422 | 87 | 225 | 1.7 | 5.2 | 0.00 | 0.03 | 0.03 | 58 | 1009.5 |
| 20260509182307 | 87 | 244 | 2.6 | 5.2 | 0.00 | 0.03 | 0.03 | 59 | 1009.6 |
| 20260509182211 | 87 | 225 | 2.6 | 5.2 | 0.00 | 0.03 | 0.03 | 57 | 1009.6 |
| 20260509182057 | 87 | 214 | 2.6 | 5.2 | 0.00 | 0.03 | 0.03 | 58 | 1009.7 |
| 20260509182002 | 87 | 219 | 0.9 | 4.3 | 0.00 | 0.03 | 0.03 | 58 | 1009.7 |
| 20260509181913 | 88 | 205 | 0.9 | 2.6 | 0.00 | 0.03 | 0.03 | 58 | 1009.7 |
| 20260509181756 | 88 | 203 | 0.9 | 2.6 | 0.00 | 0.03 | 0.03 | 57 | 1009.7 |
| 20260509181729 | 88 | 198 | 0.0 | 2.6 | 0.00 | 0.03 | 0.03 | 57 | 1009.7 |
| 20260509181611 | 88 | 198 | 0.0 | 2.6 | 0.00 | 0.03 | 0.03 | 58 | 1009.8 |
| 20260509181520 | 87 | 198 | 0.0 | 2.6 | 0.00 | 0.03 | 0.03 | 58 | 1009.7 |
| 20260509181431 | 87 | 198 | 0.0 | 2.6 | 0.00 | 0.03 | 0.03 | 58 | 1009.7 |
| 20260509181315 | 86 | 198 | 0.9 | 2.6 | 0.00 | 0.03 | 0.03 | 58 | 1009.7 |
| 20260509181159 | 86 | 107 | 0.9 | 2.6 | 0.00 | 0.03 | 0.03 | 59 | 1009.6 |
| 20260509181132 | 86 | 105 | 0.9 | 2.6 | 0.00 | 0.03 | 0.03 | 59 | 1009.7 |
| 20260509181016 | 87 | 194 | 0.0 | 2.6 | 0.00 | 0.03 | 0.03 | 58 | 1009.6 |
| 20260509180927 | 87 | 203 | 0.0 | 3.5 | 0.00 | 0.03 | 0.03 | 59 | 1009.7 |
| 20260509180815 | 86 | 203 | 0.0 | 4.3 | 0.00 | 0.03 | 0.03 | 59 | 1009.7 |
| 20260509180700 | 86 | 203 | 0.0 | 8.7 | 0.00 | 0.03 | 0.03 | 59 | 1009.6 |
| 20260509180604 | 87 | 207 | 0.0 | 8.7 | 0.00 | 0.03 | 0.03 | 59 | 1009.6 |
| 20260509180516 | 87 | 207 | 0.0 | 8.7 | 0.00 | 0.03 | 0.03 | 58 | 1009.7 |
| 20260509180421 | 87 | 254 | 0.0 | 8.7 | 0.00 | 0.03 | 0.03 | 57 | 1009.7 |
| 20260509180305 | 87 | 259 | 0.9 | 8.7 | 0.00 | 0.03 | 0.03 | 58 | 1009.7 |
| 20260509180220 | 87 | 259 | 0.9 | 8.7 | 0.00 | 0.03 | 0.03 | 58 | 1009.7 |
| 20260509180057 | 87 | 284 | 1.7 | 8.7 | 0.00 | 0.03 | 0.03 | 58 | 1009.7 |
| 20260509180028 | 86 | 284 | 3.5 | 8.7 | 0.00 | 0.03 | 0.03 | 57 | 1009.7 |
| 20260509175913 | 86 | 282 | 3.5 | 8.7 | 0.00 | 0.03 | 0.03 | 58 | 1009.8 |
| 20260509175824 | 86 | 227 | 1.7 | 7.0 | 0.00 | 0.03 | 0.03 | 62 | 1009.7 |
| 20260509175708 | 86 | 194 | 0.9 | 7.0 | 0.00 | 0.03 | 0.03 | 61 | 1009.8 |
| 20260509175557 | 86 | 174 | 0.9 | 7.8 | 0.00 | 0.03 | 0.03 | 62 | 1009.8 |
| 20260509175502 | 85 | 143 | 2.6 | 8.7 | 0.00 | 0.03 | 0.03 | 61 | 1009.8 |
| 20260509175413 | 85 | 142 | 4.3 | 8.7 | 0.00 | 0.03 | 0.03 | 61 | 1009.8 |
| 20260509175258 | 85 | 218 | 4.3 | 8.7 | 0.00 | 0.03 | 0.03 | 62 | 1009.8 |
| 20260509175203 | 85 | 222 | 4.3 | 8.7 | 0.00 | 0.03 | 0.03 | 61 | 1009.8 |
| 20260509175108 | 85 | 246 | 3.5 | 8.7 | 0.00 | 0.03 | 0.03 | 64 | 1009.8 |
| 20260509174956 | 85 | 219 | 4.3 | 8.7 | 0.00 | 0.03 | 0.03 | 63 | 1009.8 |
| 20260509174908 | 85 | 227 | 5.2 | 8.7 | 0.00 | 0.03 | 0.03 | 62 | 1009.9 |
| 20260509174813 | 85 | 228 | 6.1 | 8.7 | 0.00 | 0.03 | 0.03 | 61 | 1009.9 |
| 20260509174657 | 85 | 225 | 5.2 | 8.7 | 0.00 | 0.03 | 0.03 | 61 | 1010.0 |
| 20260509174629 | 85 | 223 | 3.5 | 8.7 | 0.00 | 0.03 | 0.03 | 62 | 1010.1 |
| 20260509174513 | 85 | 247 | 2.6 | 7.8 | 0.00 | 0.03 | 0.03 | 63 | 1010.2 |
| 20260509174402 | 86 | 190 | 0.9 | 4.3 | 0.00 | 0.03 | 0.03 | 60 | 1010.2 |
| 20260509174307 | 86 | 206 | 1.7 | 4.3 | 0.00 | 0.03 | 0.03 | 61 | 1010.3 |
| 20260509174220 | 86 | 226 | 1.7 | 4.3 | 0.00 | 0.03 | 0.03 | 61 | 1010.3 |
| 20260509174056 | 86 | 217 | 1.7 | 4.3 | 0.00 | 0.03 | 0.03 | 61 | 1010.4 |
| 20260509174007 | 86 | 217 | 1.7 | 4.3 | 0.00 | 0.03 | 0.03 | 61 | 1010.4 |
| 20260509173856 | 86 | 216 | 1.7 | 4.3 | 0.00 | 0.03 | 0.03 | 61 | 1010.5 |
| 20260509173801 | 86 | 215 | 1.7 | 4.3 | 0.00 | 0.03 | 0.03 | 60 | 1010.3 |
| 20260509173707 | 87 | 214 | 0.9 | 5.2 | 0.00 | 0.03 | 0.03 | 60 | 1010.3 |
| 20260509173617 | 87 | 213 | 0.0 | 5.2 | 0.00 | 0.03 | 0.03 | 61 | 1010.4 |
| 20260509173501 | 87 | 213 | 0.0 | 6.1 | 0.00 | 0.03 | 0.03 | 60 | 1010.4 |
| 20260509173406 | 86 | 213 | 0.0 | 6.1 | 0.00 | 0.03 | 0.03 | 60 | 1010.5 |
| 20260509173316 | 86 | 213 | 0.0 | 6.1 | 0.00 | 0.03 | 0.03 | 62 | 1010.4 |
| 20260509173200 | 84 | 214 | 0.0 | 6.1 | 0.00 | 0.03 | 0.03 | 64 | 1010.5 |
| 20260509173112 | 83 | 214 | 0.9 | 6.1 | 0.00 | 0.03 | 0.03 | 64 | 1010.5 |
| 20260509172956 | 83 | 214 | 3.5 | 6.1 | 0.00 | 0.03 | 0.03 | 64 | 1010.5 |
| 20260509172901 | 84 | 213 | 4.3 | 7.8 | 0.00 | 0.03 | 0.03 | 64 | 1010.5 |
| 20260509172812 | 84 | 213 | 3.5 | 7.8 | 0.00 | 0.03 | 0.03 | 62 | 1010.5 |
| 20260509172701 | 85 | 200 | 2.6 | 7.8 | 0.00 | 0.03 | 0.03 | 62 | 1010.5 |
| 20260509172606 | 85 | 248 | 1.7 | 7.8 | 0.00 | 0.03 | 0.03 | 61 | 1010.5 |
| 20260509172511 | 86 | 250 | 1.7 | 7.8 | 0.00 | 0.03 | 0.03 | 62 | 1010.5 |
| 20260509172424 | 86 | 246 | 2.6 | 7.8 | 0.00 | 0.03 | 0.03 | 61 | 1010.5 |
| 20260509172300 | 86 | 242 | 4.3 | 7.8 | 0.00 | 0.03 | 0.03 | 64 | 1010.5 |
| 20260509172232 | 86 | 225 | 3.5 | 7.8 | 0.00 | 0.03 | 0.03 | 64 | 1010.4 |
| 20260509172059 | 87 | 255 | 1.7 | 7.8 | 0.00 | 0.03 | 0.03 | 63 | 1010.5 |
| 20260509172004 | 86 | 263 | 0.0 | 5.2 | 0.00 | 0.03 | 0.03 | 63 | 1010.5 |
| 20260509171915 | 86 | 269 | 0.9 | 6.1 | 0.00 | 0.03 | 0.03 | 63 | 1010.4 |
| 20260509171800 | 85 | 274 | 0.9 | 6.1 | 0.00 | 0.03 | 0.03 | 64 | 1010.4 |
| 20260509171705 | 85 | 274 | 1.7 | 6.1 | 0.00 | 0.03 | 0.03 | 67 | 1010.3 |
| 20260509171637 | 84 | 213 | 1.7 | 6.1 | 0.00 | 0.03 | 0.03 | 65 | 1010.4 |
| 20260509171504 | 84 | 214 | 0.9 | 6.1 | 0.00 | 0.03 | 0.03 | 65 | 1010.4 |
| 20260509171410 | 84 | 157 | 0.9 | 6.1 | 0.00 | 0.03 | 0.03 | 65 | 1010.3 |
| 20260509171315 | 84 | 157 | 1.7 | 6.1 | 0.00 | 0.03 | 0.03 | 66 | 1010.4 |
| 20260509171159 | 84 | 181 | 2.6 | 7.8 | 0.00 | 0.03 | 0.03 | 68 | 1010.4 |
| 20260509171110 | 84 | 180 | 2.6 | 7.8 | 0.00 | 0.03 | 0.03 | 66 | 1010.4 |
| 20260509170959 | 84 | 185 | 0.9 | 7.8 | 0.00 | 0.03 | 0.03 | 67 | 1010.4 |
| 20260509170925 | 84 | 185 | 0.9 | 7.8 | 0.00 | 0.03 | 0.03 | 66 | 1010.4 |
| 20260509170815 | 83 | 246 | 1.7 | 7.8 | 0.00 | 0.03 | 0.03 | 67 | 1010.4 |
| 20260509170701 | 83 | 265 | 3.5 | 7.8 | 0.00 | 0.03 | 0.03 | 66 | 1010.4 |
| 20260509170605 | 83 | 267 | 3.5 | 7.8 | 0.00 | 0.03 | 0.03 | 68 | 1010.5 |
| 20260509170510 | 83 | 252 | 3.5 | 7.8 | 0.00 | 0.03 | 0.03 | 67 | 1010.4 |
| 20260509170358 | 83 | 249 | 0.9 | 7.0 | 0.00 | 0.03 | 0.03 | 69 | 1010.5 |
| 20260509170303 | 83 | 225 | 0.0 | 7.0 | 0.00 | 0.03 | 0.03 | 69 | 1010.5 |
| 20260509170236 | 83 | 225 | 0.0 | 7.0 | 0.00 | 0.03 | 0.03 | 68 | 1010.5 |
| 20260509170059 | 83 | 225 | 0.9 | 7.0 | 0.00 | 0.03 | 0.03 | 66 | 1010.5 |
| 20260509170004 | 84 | 225 | 2.6 | 7.0 | 0.00 | 0.03 | 0.03 | 65 | 1010.5 |
| 20260509165916 | 84 | 225 | 2.6 | 7.0 | 0.00 | 0.03 | 0.03 | 65 | 1010.5 |
| 20260509165804 | 84 | 223 | 1.7 | 7.0 | 0.00 | 0.03 | 0.03 | 68 | 1010.4 |
| 20260509165731 | 84 | 227 | 1.7 | 6.1 | 0.00 | 0.03 | 0.03 | 67 | 1010.6 |
| 20260509165621 | 84 | 227 | 3.5 | 6.1 | 0.00 | 0.03 | 0.03 | 67 | 1010.5 |
| 20260509165505 | 84 | 228 | 4.3 | 7.0 | 0.00 | 0.03 | 0.03 | 66 | 1010.5 |
| 20260509165411 | 85 | 211 | 2.6 | 7.0 | 0.00 | 0.03 | 0.03 | 67 | 1010.5 |
| 20260509165316 | 84 | 281 | 0.9 | 7.0 | 0.00 | 0.03 | 0.03 | 68 | 1010.6 |
| 20260509165204 | 83 | 268 | 0.9 | 7.0 | 0.00 | 0.03 | 0.03 | 69 | 1010.6 |
| 20260509165116 | 83 | 267 | 2.6 | 7.0 | 0.00 | 0.03 | 0.03 | 69 | 1010.5 |
| 20260509165000 | 83 | 266 | 3.5 | 7.0 | 0.00 | 0.03 | 0.03 | 69 | 1010.6 |
| 20260509164905 | 83 | 265 | 3.5 | 7.0 | 0.00 | 0.03 | 0.03 | 70 | 1010.5 |
| 20260509164810 | 83 | 238 | 3.5 | 7.0 | 0.00 | 0.03 | 0.03 | 70 | 1010.5 |
| 20260509164702 | 83 | 223 | 3.5 | 7.0 | 0.00 | 0.03 | 0.03 | 71 | 1010.5 |
| 20260509164609 | 82 | 169 | 2.6 | 7.0 | 0.00 | 0.03 | 0.03 | 69 | 1010.5 |
| 20260509164514 | 82 | 161 | 2.6 | 8.7 | 0.00 | 0.03 | 0.03 | 70 | 1010.5 |
| 20260509164358 | 82 | 205 | 1.7 | 8.7 | 0.00 | 0.03 | 0.03 | 69 | 1010.5 |
| 20260509164304 | 82 | 217 | 2.6 | 8.7 | 0.00 | 0.03 | 0.03 | 71 | 1010.5 |
| 20260509164236 | 82 | 227 | 2.6 | 8.7 | 0.00 | 0.03 | 0.03 | 70 | 1010.5 |
| 20260509164059 | 82 | 188 | 2.6 | 8.7 | 0.00 | 0.03 | 0.03 | 71 | 1010.6 |
| 20260509164031 | 83 | 202 | 2.6 | 8.7 | 0.00 | 0.03 | 0.03 | 70 | 1010.5 |
| 20260509163918 | 82 | 246 | 3.5 | 8.7 | 0.00 | 0.03 | 0.03 | 70 | 1010.5 |
| 20260509163830 | 82 | 236 | 4.3 | 8.7 | 0.00 | 0.03 | 0.03 | 69 | 1010.5 |
| 20260509163715 | 83 | 250 | 4.3 | 8.7 | 0.00 | 0.03 | 0.03 | 69 | 1010.5 |
| 20260509163558 | 84 | 210 | 3.5 | 8.7 | 0.00 | 0.03 | 0.03 | 68 | 1010.5 |
| 20260509163503 | 84 | 253 | 1.7 | 7.0 | 0.00 | 0.03 | 0.03 | 68 | 1010.5 |
| 20260509163415 | 84 | 257 | 0.9 | 7.0 | 0.00 | 0.03 | 0.03 | 70 | 1010.5 |
| 20260509163303 | 83 | 236 | 0.9 | 7.0 | 0.00 | 0.03 | 0.03 | 73 | 1010.5 |
| 20260509163209 | 82 | 236 | 1.7 | 7.0 | 0.00 | 0.03 | 0.03 | 71 | 1010.5 |
| 20260509163114 | 82 | 236 | 2.6 | 7.0 | 0.00 | 0.03 | 0.03 | 72 | 1010.6 |
| 20260509162958 | 82 | 215 | 3.5 | 7.0 | 0.00 | 0.03 | 0.03 | 71 | 1010.5 |
| 20260509162909 | 82 | 227 | 4.3 | 7.0 | 0.00 | 0.03 | 0.03 | 71 | 1010.5 |
| 20260509162758 | 83 | 226 | 3.5 | 7.0 | 0.00 | 0.03 | 0.03 | 72 | 1010.5 |
| 20260509162703 | 82 | 227 | 1.7 | 9.6 | 0.00 | 0.03 | 0.03 | 72 | 1010.5 |
| 20260509162608 | 82 | 207 | 0.9 | 9.6 | 0.00 | 0.03 | 0.03 | 73 | 1010.5 |
| 20260509162519 | 82 | 200 | 1.7 | 9.6 | 0.00 | 0.03 | 0.03 | 73 | 1010.5 |
| 20260509162405 | 82 | 200 | 2.6 | 9.6 | 0.00 | 0.03 | 0.03 | 71 | 1010.6 |
| 20260509162328 | 82 | 223 | 2.6 | 9.6 | 0.00 | 0.03 | 0.03 | 74 | 1010.5 |
| 20260509162219 | 82 | 232 | 2.6 | 9.6 | 0.00 | 0.03 | 0.03 | 74 | 1010.5 |
| 20260509162106 | 81 | 218 | 2.6 | 9.6 | 0.00 | 0.03 | 0.03 | 73 | 1010.4 |
| 20260509162010 | 81 | 239 | 3.5 | 9.6 | 0.00 | 0.03 | 0.03 | 73 | 1010.5 |
| 20260509161915 | 81 | 244 | 2.6 | 9.6 | 0.00 | 0.03 | 0.03 | 73 | 1010.5 |
| 20260509161759 | 80 | 239 | 1.7 | 8.7 | 0.00 | 0.03 | 0.03 | 75 | 1010.4 |
| 20260509161711 | 80 | 261 | 2.6 | 8.7 | 0.00 | 0.03 | 0.03 | 75 | 1010.5 |
| 20260509161559 | 80 | 241 | 2.6 | 8.7 | 0.00 | 0.03 | 0.03 | 74 | 1010.5 |
| 20260509161504 | 80 | 238 | 3.5 | 8.7 | 0.00 | 0.03 | 0.03 | 74 | 1010.4 |
| 20260509161409 | 80 | 217 | 4.3 | 8.7 | 0.00 | 0.03 | 0.03 | 73 | 1010.4 |
| 20260509161321 | 81 | 223 | 5.2 | 8.7 | 0.00 | 0.03 | 0.03 | 73 | 1010.4 |
| 20260509161206 | 81 | 238 | 4.3 | 8.7 | 0.00 | 0.03 | 0.03 | 72 | 1010.4 |
| 20260509161110 | 82 | 265 | 3.5 | 7.8 | 0.00 | 0.03 | 0.03 | 73 | 1010.4 |
| 20260509161019 | 82 | 270 | 1.7 | 7.8 | 0.00 | 0.03 | 0.03 | 73 | 1010.4 |
| 20260509160910 | 81 | 285 | 0.9 | 7.8 | 0.00 | 0.03 | 0.03 | 74 | 1010.5 |
| 20260509160814 | 81 | 228 | 0.9 | 7.8 | 0.00 | 0.03 | 0.03 | 74 | 1010.4 |
| 20260509160659 | 81 | 225 | 0.9 | 7.8 | 0.00 | 0.03 | 0.03 | 73 | 1010.4 |
| 20260509160610 | 81 | 225 | 2.6 | 7.8 | 0.00 | 0.03 | 0.03 | 75 | 1010.4 |
| 20260509160515 | 80 | 268 | 3.5 | 7.8 | 0.00 | 0.03 | 0.03 | 76 | 1010.5 |
| 20260509160402 | 80 | 263 | 3.5 | 7.8 | 0.00 | 0.03 | 0.03 | 77 | 1010.4 |
| 20260509160307 | 79 | 264 | 2.6 | 7.8 | 0.00 | 0.03 | 0.03 | 78 | 1010.5 |
| 20260509160219 | 79 | 275 | 1.7 | 7.8 | 0.00 | 0.03 | 0.03 | 79 | 1010.6 |
| 20260509160124 | 78 | 236 | 4.3 | 7.8 | 0.00 | 0.03 | 0.03 | 79 | 1010.5 |
| 20260509160005 | 78 | 235 | 5.2 | 7.8 | 0.00 | 0.03 | 0.03 | 78 | 1010.5 |
| 20260509155910 | 79 | 227 | 4.3 | 7.8 | 0.00 | 0.03 | 0.03 | 79 | 1010.5 |
| 20260509155758 | 79 | 196 | 2.6 | 7.0 | 0.00 | 0.03 | 0.03 | 79 | 1010.5 |
| 20260509155708 | 79 | 219 | 2.6 | 7.0 | 0.00 | 0.03 | 0.03 | 79 | 1010.5 |
| 20260509155612 | 79 | 232 | 2.6 | 7.0 | 0.00 | 0.03 | 0.03 | 80 | 1010.5 |
| 20260509155524 | 79 | 233 | 3.5 | 7.0 | 0.00 | 0.03 | 0.03 | 79 | 1010.4 |
| 20260509155408 | 79 | 215 | 2.6 | 7.0 | 0.00 | 0.03 | 0.03 | 81 | 1010.5 |
| 20260509155314 | 79 | 230 | 2.6 | 7.0 | 0.00 | 0.03 | 0.03 | 82 | 1010.4 |
| 20260509155157 | 78 | 213 | 3.5 | 7.0 | 0.00 | 0.03 | 0.03 | 80 | 1010.5 |
| 20260509155113 | 78 | 213 | 3.5 | 7.0 | 0.00 | 0.03 | 0.03 | 80 | 1010.5 |
| 20260509154956 | 79 | 233 | 0.9 | 7.0 | 0.00 | 0.03 | 0.03 | 82 | 1010.5 |
| 20260509154901 | 78 | 221 | 0.9 | 7.0 | 0.00 | 0.03 | 0.03 | 83 | 1010.5 |
| 20260509154805 | 78 | 220 | 1.7 | 7.0 | 0.00 | 0.03 | 0.03 | 84 | 1010.5 |
| 20260509154717 | 78 | 220 | 1.7 | 7.0 | 0.00 | 0.03 | 0.03 | 84 | 1010.6 |
| 20260509154605 | 78 | 201 | 2.6 | 7.0 | 0.00 | 0.03 | 0.03 | 84 | 1010.6 |
| 20260509154509 | 78 | 200 | 3.5 | 7.8 | 0.00 | 0.03 | 0.03 | 85 | 1010.6 |
| 20260509154414 | 78 | 227 | 4.3 | 7.8 | 0.00 | 0.03 | 0.03 | 85 | 1010.7 |
| 20260509154257 | 77 | 217 | 2.6 | 7.8 | 0.00 | 0.03 | 0.03 | 86 | 1010.6 |
| 20260509154208 | 77 | 254 | 2.6 | 9.6 | 0.00 | 0.03 | 0.03 | 87 | 1010.6 |
| 20260509154113 | 77 | 225 | 2.6 | 9.6 | 0.00 | 0.03 | 0.03 | 87 | 1010.5 |
| 20260509154002 | 77 | 219 | 3.5 | 10.4 | 0.00 | 0.03 | 0.03 | 88 | 1010.6 |
| 20260509153934 | 77 | 220 | 2.6 | 10.4 | 0.00 | 0.03 | 0.03 | 89 | 1010.5 |
| 20260509153817 | 76 | 219 | 3.5 | 10.4 | 0.00 | 0.03 | 0.03 | 89 | 1010.5 |
| 20260509153702 | 76 | 210 | 4.3 | 10.4 | 0.00 | 0.03 | 0.03 | 89 | 1010.6 |
| 20260509153613 | 75 | 231 | 4.3 | 10.4 | 0.00 | 0.03 | 0.03 | 89 | 1010.6 |
| 20260509153457 | 75 | 221 | 5.2 | 10.4 | 0.00 | 0.03 | 0.03 | 89 | 1010.5 |
| 20260509153402 | 75 | 232 | 6.1 | 10.4 | 0.00 | 0.03 | 0.03 | 89 | 1010.6 |
| 20260509153337 | 75 | 235 | 7.8 | 10.4 | 0.00 | 0.03 | 0.03 | 89 | 1010.5 |
| 20260509153220 | 75 | 236 | 7.0 | 10.4 | 0.00 | 0.03 | 0.03 | 89 | 1010.6 |
| 20260509153110 | 75 | 229 | 7.0 | 11.3 | 0.00 | 0.03 | 0.03 | 90 | 1010.6 |
| 20260509153014 | 75 | 216 | 7.0 | 9.6 | 0.00 | 0.03 | 0.03 | 90 | 1010.6 |
| 20260509152859 | 74 | 225 | 6.1 | 9.6 | 0.00 | 0.03 | 0.03 | 90 | 1010.6 |
| 20260509152809 | 74 | 197 | 7.0 | 9.6 | 0.00 | 0.03 | 0.03 | 90 | 1010.7 |
| 20260509152714 | 74 | 204 | 7.0 | 9.6 | 0.00 | 0.03 | 0.03 | 90 | 1010.7 |
| 20260509152602 | 74 | 224 | 7.0 | 10.4 | 0.00 | 0.03 | 0.03 | 91 | 1010.7 |
| 20260509152507 | 74 | 179 | 5.2 | 10.4 | 0.00 | 0.03 | 0.03 | 91 | 1010.8 |
| 20260509152418 | 74 | 229 | 3.5 | 10.4 | 0.00 | 0.03 | 0.03 | 91 | 1010.7 |
| 20260509152305 | 74 | 225 | 3.5 | 10.4 | 0.00 | 0.03 | 0.03 | 91 | 1010.8 |
| 20260509152207 | 74 | 184 | 5.2 | 10.4 | 0.00 | 0.03 | 0.03 | 91 | 1010.8 |
| 20260509152112 | 74 | 190 | 4.3 | 10.4 | 0.00 | 0.03 | 0.03 | 91 | 1010.8 |
| 20260509151959 | 73 | 234 | 4.3 | 10.4 | 0.00 | 0.03 | 0.03 | 92 | 1010.8 |
| 20260509151910 | 73 | 209 | 4.3 | 10.4 | 0.00 | 0.03 | 0.03 | 91 | 1010.7 |
| 20260509151836 | 73 | 212 | 6.1 | 10.4 | 0.00 | 0.03 | 0.03 | 91 | 1010.7 |
| 20260509151659 | 73 | 196 | 6.1 | 10.4 | 0.00 | 0.03 | 0.03 | 92 | 1010.7 |
| 20260509151604 | 73 | 207 | 5.2 | 10.4 | 0.00 | 0.03 | 0.03 | 92 | 1010.8 |
| 20260509151501 | 73 | 207 | 3.5 | 8.7 | 0.00 | 0.03 | 0.03 | 92 | 1010.6 |
| 20260509151404 | 73 | 221 | 3.5 | 7.8 | 0.00 | 0.03 | 0.03 | 92 | 1010.7 |
| 20260509151308 | 73 | 211 | 3.5 | 7.8 | 0.00 | 0.03 | 0.03 | 92 | 1010.7 |
| 20260509151219 | 73 | 186 | 4.3 | 7.8 | 0.00 | 0.03 | 0.03 | 92 | 1010.7 |
| 20260509151102 | 72 | 190 | 4.3 | 7.0 | 0.00 | 0.03 | 0.03 | 92 | 1010.7 |
| 20260509151027 | 72 | 167 | 4.3 | 9.6 | 0.00 | 0.03 | 0.03 | 92 | 1010.7 |
| 20260509150917 | 72 | 173 | 4.3 | 9.6 | 0.00 | 0.03 | 0.03 | 92 | 1010.7 |
| 20260509150806 | 72 | 216 | 4.3 | 9.6 | 0.00 | 0.03 | 0.03 | 92 | 1010.7 |
| 20260509150712 | 72 | 213 | 4.3 | 9.6 | 0.00 | 0.03 | 0.03 | 92 | 1010.7 |
| 20260509150555 | 72 | 195 | 3.5 | 9.6 | 0.00 | 0.03 | 0.03 | 92 | 1010.7 |
| 20260509150528 | 72 | 207 | 2.6 | 9.6 | 0.00 | 0.03 | 0.03 | 92 | 1010.6 |
| 20260509150440 | 72 | 196 | 2.6 | 9.6 | 0.00 | 0.03 | 0.03 | 92 | 1010.7 |
| 20260509150324 | 72 | 190 | 4.3 | 9.6 | 0.00 | 0.03 | 0.03 | 92 | 1010.7 |
| 20260509150214 | 72 | 193 | 4.3 | 9.6 | 0.00 | 0.03 | 0.03 | 92 | 1010.7 |
| 20260509150057 | 72 | 178 | 4.3 | 8.7 | 0.00 | 0.03 | 0.03 | 92 | 1010.6 |
| 20260509150006 | 72 | 187 | 4.3 | 8.7 | 0.00 | 0.03 | 0.03 | 92 | 1010.7 |
| 20260509145918 | 72 | 182 | 5.2 | 8.7 | 0.00 | 0.03 | 0.03 | 92 | 1010.7 |
| 20260509145802 | 72 | 171 | 4.3 | 8.7 | 0.01 | 0.03 | 0.03 | 92 | 1010.7 |
| 20260509145707 | 72 | 184 | 2.6 | 7.8 | 0.01 | 0.03 | 0.03 | 92 | 1010.6 |
| 20260509145612 | 72 | 159 | 2.6 | 7.8 | 0.01 | 0.03 | 0.03 | 92 | 1010.7 |
| 20260509145501 | 72 | 200 | 4.3 | 7.8 | 0.01 | 0.03 | 0.03 | 92 | 1010.6 |
| 20260509145412 | 72 | 190 | 4.3 | 7.8 | 0.01 | 0.03 | 0.03 | 92 | 1010.6 |
| 20260509145317 | 72 | 181 | 2.6 | 7.8 | 0.01 | 0.03 | 0.03 | 92 | 1010.6 |
| 20260509145202 | 72 | 171 | 2.6 | 7.8 | 0.01 | 0.03 | 0.03 | 92 | 1010.5 |
| 20260509145113 | 72 | 189 | 3.5 | 7.8 | 0.01 | 0.03 | 0.03 | 92 | 1010.5 |
| 20260509145018 | 72 | 176 | 3.5 | 7.8 | 0.01 | 0.03 | 0.03 | 92 | 1010.6 |
| 20260509144906 | 72 | 172 | 2.6 | 8.7 | 0.01 | 0.03 | 0.03 | 92 | 1010.4 |
| 20260509144838 | 72 | 194 | 3.5 | 8.7 | 0.01 | 0.03 | 0.03 | 92 | 1010.4 |
| 20260509144703 | 72 | 182 | 3.5 | 8.7 | 0.01 | 0.03 | 0.03 | 92 | 1010.4 |
| 20260509144608 | 72 | 177 | 3.5 | 8.7 | 0.01 | 0.03 | 0.03 | 92 | 1010.4 |
| 20260509144513 | 72 | 202 | 3.5 | 8.7 | 0.01 | 0.03 | 0.03 | 92 | 1010.3 |
| 20260509144358 | 72 | 207 | 4.3 | 8.7 | 0.01 | 0.03 | 0.03 | 92 | 1010.3 |
| 20260509144307 | 72 | 155 | 5.2 | 8.7 | 0.01 | 0.03 | 0.03 | 92 | 1010.3 |
| 20260509144218 | 72 | 204 | 5.2 | 8.7 | 0.01 | 0.03 | 0.03 | 92 | 1010.3 |
| 20260509144102 | 72 | 173 | 4.3 | 8.7 | 0.01 | 0.03 | 0.03 | 92 | 1010.3 |
| 20260509144007 | 72 | 172 | 4.3 | 8.7 | 0.01 | 0.03 | 0.03 | 92 | 1010.3 |
| 20260509143919 | 72 | 182 | 3.5 | 7.8 | 0.01 | 0.03 | 0.03 | 92 | 1010.3 |
| 20260509143803 | 72 | 190 | 4.3 | 7.8 | 0.01 | 0.03 | 0.03 | 92 | 1010.3 |
| 20260509143714 | 72 | 193 | 5.2 | 7.8 | 0.01 | 0.03 | 0.03 | 92 | 1010.2 |
| 20260509143557 | 72 | 175 | 4.3 | 7.8 | 0.01 | 0.03 | 0.03 | 92 | 1010.2 |
| 20260509143501 | 72 | 194 | 3.5 | 7.8 | 0.01 | 0.03 | 0.03 | 92 | 1010.2 |
| 20260509143412 | 72 | 194 | 2.6 | 7.8 | 0.01 | 0.03 | 0.03 | 92 | 1010.1 |
| 20260509143257 | 72 | 175 | 2.6 | 7.8 | 0.01 | 0.03 | 0.03 | 92 | 1010.1 |
| 20260509143222 | 72 | 174 | 4.3 | 7.8 | 0.01 | 0.03 | 0.03 | 92 | 1010.2 |
| 20260509143117 | 72 | 200 | 4.3 | 7.8 | 0.01 | 0.03 | 0.03 | 92 | 1010.0 |
| 20260509143000 | 72 | 193 | 3.5 | 7.0 | 0.01 | 0.03 | 0.03 | 92 | 1010.1 |
| 20260509142905 | 72 | 165 | 4.3 | 7.0 | 0.01 | 0.03 | 0.03 | 92 | 1010.1 |
| 20260509142837 | 72 | 187 | 4.3 | 7.0 | 0.01 | 0.03 | 0.03 | 92 | 1010.2 |
| 20260509142721 | 72 | 169 | 4.3 | 7.0 | 0.01 | 0.03 | 0.03 | 92 | 1010.0 |
| 20260509142627 | 72 | 165 | 2.6 | 8.7 | 0.01 | 0.03 | 0.03 | 92 | 1010.1 |
| 20260509142515 | 72 | 159 | 2.6 | 8.7 | 0.01 | 0.03 | 0.03 | 92 | 1010.0 |
| 20260509142402 | 72 | 157 | 2.6 | 8.7 | 0.01 | 0.03 | 0.03 | 92 | 1010.0 |
| 20260509142307 | 72 | 157 | 3.5 | 8.7 | 0.01 | 0.03 | 0.03 | 92 | 1010.0 |
| 20260509142211 | 72 | 177 | 3.5 | 8.7 | 0.01 | 0.03 | 0.03 | 92 | 1010.0 |
| 20260509142055 | 72 | 138 | 4.3 | 8.7 | 0.01 | 0.03 | 0.03 | 92 | 1009.9 |
| 20260509142000 | 72 | 157 | 4.3 | 8.7 | 0.01 | 0.03 | 0.03 | 92 | 1009.8 |
| 20260509141916 | 72 | 162 | 4.3 | 8.7 | 0.01 | 0.03 | 0.03 | 92 | 1009.9 |
| 20260509141759 | 72 | 188 | 4.3 | 8.7 | 0.01 | 0.03 | 0.03 | 92 | 1009.9 |
| 20260509141704 | 72 | 174 | 3.5 | 8.7 | 0.01 | 0.03 | 0.03 | 92 | 1009.9 |
| 20260509141609 | 72 | 143 | 3.5 | 8.7 | 0.01 | 0.03 | 0.03 | 92 | 1009.9 |
| 20260509141521 | 72 | 177 | 4.3 | 8.7 | 0.01 | 0.03 | 0.03 | 92 | 1009.8 |
| 20260509141405 | 72 | 184 | 3.5 | 7.8 | 0.01 | 0.03 | 0.03 | 92 | 1009.8 |
| 20260509141313 | 72 | 169 | 4.3 | 7.8 | 0.01 | 0.03 | 0.03 | 92 | 1009.9 |
| 20260509141157 | 72 | 158 | 4.3 | 7.8 | 0.01 | 0.03 | 0.03 | 92 | 1009.9 |
| 20260509141129 | 72 | 143 | 3.5 | 7.8 | 0.01 | 0.03 | 0.03 | 92 | 1009.8 |
| 20260509141013 | 72 | 199 | 4.3 | 8.7 | 0.01 | 0.03 | 0.03 | 92 | 1010.0 |
| 20260509140858 | 72 | 174 | 4.3 | 8.7 | 0.01 | 0.03 | 0.03 | 92 | 1009.9 |
| 20260509140808 | 72 | 205 | 3.5 | 8.7 | 0.01 | 0.03 | 0.03 | 92 | 1009.9 |
| 20260509140657 | 72 | 169 | 3.5 | 8.7 | 0.01 | 0.03 | 0.03 | 92 | 1009.9 |
| 20260509140601 | 72 | 178 | 3.5 | 8.7 | 0.01 | 0.03 | 0.03 | 92 | 1009.9 |
| 20260509140507 | 72 | 168 | 2.6 | 8.7 | 0.01 | 0.03 | 0.03 | 92 | 1009.8 |
| 20260509140438 | 72 | 149 | 3.5 | 8.7 | 0.01 | 0.03 | 0.03 | 92 | 1009.9 |
| 20260509140302 | 72 | 152 | 5.2 | 8.7 | 0.01 | 0.03 | 0.03 | 92 | 1009.9 |
| 20260509140207 | 72 | 170 | 4.3 | 8.7 | 0.01 | 0.03 | 0.03 | 92 | 1009.8 |
| 20260509140115 | 72 | 175 | 3.5 | 9.6 | 0.01 | 0.03 | 0.03 | 92 | 1009.8 |
| 20260509140006 | 72 | 156 | 3.5 | 7.0 | 0.01 | 0.03 | 0.03 | 92 | 1009.8 |
| 20260509135910 | 72 | 153 | 4.3 | 7.0 | 0.00 | 0.02 | 0.02 | 92 | 1009.8 |
| 20260509135816 | 72 | 159 | 3.5 | 7.0 | 0.00 | 0.02 | 0.02 | 92 | 1009.9 |
| 20260509135700 | 72 | 153 | 3.5 | 6.1 | 0.00 | 0.02 | 0.02 | 92 | 1009.8 |
| 20260509135632 | 72 | 174 | 2.6 | 7.0 | 0.00 | 0.02 | 0.02 | 92 | 1010.0 |
| 20260509135458 | 72 | 141 | 2.6 | 6.1 | 0.00 | 0.02 | 0.02 | 92 | 1009.9 |
| 20260509135403 | 72 | 136 | 1.7 | 3.5 | 0.00 | 0.02 | 0.02 | 92 | 1010.0 |
| 20260509135315 | 72 | 134 | 1.7 | 3.5 | 0.00 | 0.02 | 0.02 | 92 | 1010.0 |
| 20260509135159 | 72 | 127 | 0.9 | 2.6 | 0.00 | 0.02 | 0.02 | 92 | 1010.0 |
| 20260509135104 | 71 | 126 | 0.9 | 2.6 | 0.00 | 0.02 | 0.02 | 92 | 1010.0 |
| 20260509135015 | 71 | 123 | 0.9 | 2.6 | 0.00 | 0.02 | 0.02 | 92 | 1010.1 |
| 20260509134920 | 71 | 123 | 0.9 | 2.6 | 0.00 | 0.02 | 0.02 | 92 | 1010.2 |
| 20260509134809 | 71 | 122 | 0.0 | 1.7 | 0.00 | 0.02 | 0.02 | 92 | 1010.1 |
| 20260509134720 | 72 | 111 | 0.0 | 1.7 | 0.00 | 0.02 | 0.02 | 92 | 1010.1 |
| 20260509134604 | 72 | 111 | 0.0 | 1.7 | 0.00 | 0.02 | 0.02 | 92 | 1010.2 |
| 20260509134510 | 72 | 111 | 0.0 | 1.7 | 0.00 | 0.02 | 0.02 | 92 | 1010.3 |
| 20260509134414 | 72 | 111 | 0.0 | 1.7 | 0.00 | 0.02 | 0.02 | 92 | 1010.2 |
| 20260509134303 | 72 | 112 | 0.0 | 1.7 | 0.00 | 0.02 | 0.02 | 92 | 1010.2 |
| 20260509134216 | 72 | 111 | 0.0 | 1.7 | 0.00 | 0.02 | 0.02 | 92 | 1010.2 |
| 20260509134121 | 72 | 46 | 0.0 | 1.7 | 0.00 | 0.02 | 0.02 | 92 | 1010.3 |
| 20260509134005 | 72 | 46 | 0.0 | 1.7 | 0.00 | 0.02 | 0.02 | 92 | 1010.2 |
| 20260509133937 | 72 | 46 | 0.0 | 1.7 | 0.00 | 0.02 | 0.02 | 92 | 1010.3 |
| 20260509133801 | 72 | 259 | 0.0 | 2.6 | 0.00 | 0.02 | 0.02 | 92 | 1010.3 |
| 20260509133706 | 72 | 259 | 0.0 | 4.3 | 0.00 | 0.02 | 0.02 | 92 | 1010.3 |
| 20260509133614 | 72 | 258 | 0.0 | 4.3 | 0.00 | 0.02 | 0.02 | 92 | 1010.4 |
| 20260509133458 | 72 | 258 | 0.0 | 4.3 | 0.00 | 0.02 | 0.02 | 92 | 1010.4 |
| 20260509133409 | 72 | 257 | 0.0 | 4.3 | 0.00 | 0.02 | 0.02 | 92 | 1010.4 |
| 20260509133314 | 72 | 252 | 0.0 | 4.3 | 0.00 | 0.02 | 0.02 | 92 | 1010.3 |
| 20260509133159 | 72 | 252 | 0.0 | 4.3 | 0.00 | 0.02 | 0.02 | 92 | 1010.3 |
| 20260509133132 | 72 | 252 | 0.0 | 4.3 | 0.00 | 0.02 | 0.02 | 92 | 1010.3 |
| 20260509132959 | 72 | 355 | 0.9 | 4.3 | 0.00 | 0.02 | 0.02 | 92 | 1010.4 |
| 20260509132904 | 72 | 350 | 1.7 | 4.3 | 0.00 | 0.02 | 0.02 | 92 | 1010.3 |
| 20260509132810 | 72 | 321 | 1.7 | 4.3 | 0.00 | 0.02 | 0.02 | 92 | 1010.4 |
| 20260509132721 | 72 | 312 | 1.7 | 4.3 | 0.00 | 0.02 | 0.02 | 92 | 1010.3 |
| 20260509132627 | 72 | 360 | 1.7 | 4.3 | 0.00 | 0.02 | 0.02 | 92 | 1010.4 |
| 20260509132511 | 72 | 25 | 1.7 | 4.3 | 0.00 | 0.02 | 0.02 | 92 | 1010.4 |
| 20260509132359 | 72 | 31 | 2.6 | 4.3 | 0.00 | 0.02 | 0.02 | 92 | 1010.4 |
| 20260509132310 | 71 | 26 | 1.7 | 4.3 | 0.00 | 0.02 | 0.02 | 92 | 1010.4 |
| 20260509132236 | 71 | 17 | 1.7 | 5.2 | 0.00 | 0.02 | 0.02 | 92 | 1010.4 |
| 20260509132059 | 72 | 9 | 1.7 | 5.2 | 0.00 | 0.02 | 0.02 | 92 | 1010.5 |
| 20260509132001 | 72 | 19 | 1.7 | 5.2 | 0.00 | 0.02 | 0.02 | 92 | 1010.5 |
| 20260509131912 | 71 | 46 | 1.7 | 5.2 | 0.00 | 0.02 | 0.02 | 92 | 1010.6 |
| 20260509131828 | 71 | 46 | 1.7 | 5.2 | 0.00 | 0.02 | 0.02 | 92 | 1010.6 |
| 20260509131712 | 71 | 52 | 1.7 | 5.2 | 0.00 | 0.02 | 0.02 | 92 | 1010.6 |
| 20260509131617 | 71 | 40 | 2.6 | 5.2 | 0.00 | 0.02 | 0.02 | 92 | 1010.6 |
| 20260509131500 | 71 | 21 | 3.5 | 5.2 | 0.00 | 0.02 | 0.02 | 92 | 1010.6 |
| 20260509131412 | 71 | 5 | 3.5 | 6.1 | 0.00 | 0.02 | 0.02 | 92 | 1010.5 |
| 20260509131256 | 71 | 5 | 2.6 | 4.3 | 0.00 | 0.02 | 0.02 | 92 | 1010.4 |
| 20260509131223 | 71 | 21 | 1.7 | 4.3 | 0.00 | 0.02 | 0.02 | 92 | 1010.5 |
| 20260509131117 | 71 | 23 | 0.9 | 4.3 | 0.00 | 0.02 | 0.02 | 92 | 1010.4 |
| 20260509131002 | 71 | 26 | 0.0 | 4.3 | 0.00 | 0.02 | 0.02 | 92 | 1010.4 |
| 20260509130906 | 72 | 26 | 0.0 | 4.3 | 0.00 | 0.02 | 0.02 | 92 | 1010.3 |
| 20260509130817 | 72 | 26 | 0.0 | 4.3 | 0.00 | 0.02 | 0.02 | 92 | 1010.3 |
| 20260509130703 | 71 | 26 | 0.9 | 4.3 | 0.00 | 0.02 | 0.02 | 92 | 1010.3 |
| 20260509130607 | 71 | 26 | 0.0 | 4.3 | 0.00 | 0.02 | 0.02 | 92 | 1010.2 |
| 20260509130455 | 71 | 26 | 0.9 | 4.3 | 0.00 | 0.02 | 0.02 | 92 | 1010.2 |
| 20260509130401 | 71 | 26 | 1.7 | 4.3 | 0.00 | 0.02 | 0.02 | 92 | 1010.2 |
| 20260509130312 | 71 | 26 | 2.6 | 4.3 | 0.00 | 0.02 | 0.02 | 92 | 1010.2 |
| 20260509130217 | 71 | 17 | 1.7 | 3.5 | 0.00 | 0.02 | 0.02 | 92 | 1010.2 |
| 20260509130100 | 71 | 23 | 0.9 | 2.6 | 0.00 | 0.02 | 0.02 | 92 | 1010.0 |
| 20260509130033 | 71 | 20 | 0.9 | 2.6 | 0.00 | 0.02 | 0.02 | 92 | 1010.1 |
| 20260509125900 | 71 | 22 | 0.9 | 2.6 | 0.00 | 0.02 | 0.02 | 92 | 1010.0 |
| 20260509125805 | 71 | 24 | 1.7 | 3.5 | 0.00 | 0.02 | 0.02 | 92 | 1009.9 |
| 20260509125737 | 71 | 16 | 1.7 | 3.5 | 0.00 | 0.02 | 0.02 | 92 | 1009.9 |
| 20260509125558 | 71 | 15 | 0.9 | 4.3 | 0.00 | 0.02 | 0.02 | 92 | 1009.8 |
| 20260509125509 | 71 | 17 | 0.9 | 4.3 | 0.00 | 0.02 | 0.02 | 92 | 1009.7 |
| 20260509125414 | 71 | 16 | 0.9 | 4.3 | 0.00 | 0.02 | 0.02 | 92 | 1009.7 |
| 20260509125307 | 71 | 15 | 0.9 | 4.3 | 0.00 | 0.02 | 0.02 | 92 | 1009.7 |
| 20260509125208 | 71 | 9 | 0.9 | 4.3 | 0.00 | 0.02 | 0.02 | 92 | 1009.7 |
| 20260509125113 | 71 | 12 | 1.7 | 4.3 | 0.00 | 0.02 | 0.02 | 92 | 1009.7 |
| 20260509124957 | 71 | 9 | 1.7 | 4.3 | 0.00 | 0.02 | 0.02 | 92 | 1009.8 |
| 20260509124908 | 71 | 5 | 1.7 | 4.3 | 0.00 | 0.02 | 0.02 | 92 | 1009.9 |
| 20260509124814 | 71 | 9 | 1.7 | 4.3 | 0.00 | 0.02 | 0.02 | 92 | 1009.9 |
| 20260509124701 | 71 | 17 | 2.6 | 4.3 | 0.00 | 0.02 | 0.02 | 92 | 1010.0 |
| 20260509124606 | 71 | 17 | 2.6 | 4.3 | 0.00 | 0.02 | 0.02 | 92 | 1010.0 |
| 20260509124518 | 71 | 11 | 1.7 | 3.5 | 0.00 | 0.02 | 0.02 | 92 | 1010.1 |
| 20260509124403 | 71 | 5 | 0.9 | 3.5 | 0.00 | 0.02 | 0.02 | 92 | 1010.0 |
| 20260509124308 | 71 | 76 | 0.0 | 0.9 | 0.00 | 0.02 | 0.02 | 92 | 1010.0 |
| 20260509124156 | 71 | 76 | 0.0 | 0.0 | 0.00 | 0.02 | 0.02 | 92 | 1009.9 |
| 20260509124101 | 71 | 76 | 0.0 | 0.0 | 0.00 | 0.02 | 0.02 | 92 | 1009.9 |
| 20260509124033 | 71 | 76 | 0.0 | 0.0 | 0.00 | 0.02 | 0.02 | 92 | 1009.8 |
| 20260509123857 | 71 | 76 | 0.0 | 0.0 | 0.00 | 0.02 | 0.02 | 92 | 1009.9 |
| 20260509123830 | 71 | 76 | 0.0 | 0.0 | 0.00 | 0.02 | 0.02 | 92 | 1009.8 |
| 20260509123715 | 71 | 76 | 0.0 | 0.0 | 0.00 | 0.02 | 0.02 | 92 | 1009.8 |
| 20260509123557 | 71 | 76 | 0.0 | 0.0 | 0.00 | 0.02 | 0.02 | 92 | 1009.9 |
| 20260509123506 | 71 | 76 | 0.0 | 0.0 | 0.00 | 0.02 | 0.02 | 92 | 1009.9 |
| 20260509123417 | 71 | 76 | 0.0 | 0.0 | 0.00 | 0.02 | 0.02 | 92 | 1009.9 |
| 20260509123321 | 71 | 76 | 0.0 | 0.0 | 0.00 | 0.02 | 0.02 | 92 | 1009.9 |
| 20260509123227 | 71 | 76 | 0.0 | 0.0 | 0.00 | 0.02 | 0.02 | 92 | 1009.9 |
| 20260509123111 | 71 | 76 | 0.0 | 0.9 | 0.00 | 0.02 | 0.02 | 92 | 1009.9 |
| 20260509122955 | 71 | 76 | 0.0 | 0.9 | 0.00 | 0.02 | 0.02 | 92 | 1009.9 |
| 20260509122911 | 71 | 76 | 0.0 | 0.9 | 0.00 | 0.02 | 0.02 | 92 | 1009.9 |
| 20260509122755 | 71 | 76 | 0.0 | 0.9 | 0.00 | 0.02 | 0.02 | 92 | 1009.9 |
| 20260509122700 | 71 | 76 | 0.0 | 0.9 | 0.00 | 0.02 | 0.02 | 92 | 1009.9 |
| 20260509122606 | 71 | 76 | 0.0 | 0.9 | 0.00 | 0.02 | 0.02 | 92 | 1009.9 |
| 20260509122517 | 71 | 76 | 0.0 | 0.9 | 0.00 | 0.02 | 0.02 | 92 | 1009.9 |
| 20260509122406 | 71 | 76 | 0.0 | 0.9 | 0.00 | 0.02 | 0.02 | 92 | 1009.8 |
| 20260509122311 | 71 | 76 | 0.0 | 0.9 | 0.00 | 0.02 | 0.02 | 92 | 1009.9 |
| 20260509122216 | 71 | 76 | 0.0 | 0.9 | 0.00 | 0.02 | 0.02 | 92 | 1009.9 |
| 20260509122100 | 71 | 78 | 0.0 | 0.9 | 0.00 | 0.02 | 0.02 | 92 | 1010.0 |
| 20260509122012 | 71 | 78 | 0.0 | 1.7 | 0.00 | 0.02 | 0.02 | 92 | 1009.9 |
| 20260509121917 | 71 | 78 | 0.0 | 1.7 | 0.00 | 0.02 | 0.02 | 92 | 1010.0 |
| 20260509121805 | 71 | 78 | 0.0 | 1.7 | 0.00 | 0.02 | 0.02 | 92 | 1010.0 |
| 20260509121710 | 71 | 78 | 0.0 | 1.7 | 0.00 | 0.02 | 0.02 | 92 | 1010.1 |
| 20260509121615 | 71 | 78 | 0.0 | 1.7 | 0.00 | 0.02 | 0.02 | 92 | 1010.0 |
| 20260509121459 | 71 | 78 | 0.0 | 1.7 | 0.00 | 0.02 | 0.02 | 92 | 1010.1 |
| 20260509121410 | 71 | 78 | 0.0 | 1.7 | 0.00 | 0.02 | 0.02 | 92 | 1010.1 |
| 20260509121258 | 71 | 78 | 0.9 | 1.7 | 0.00 | 0.02 | 0.02 | 92 | 1010.0 |
| 20260509121204 | 71 | 78 | 0.9 | 1.7 | 0.00 | 0.02 | 0.02 | 92 | 1010.0 |
| 20260509121109 | 71 | 78 | 0.0 | 1.7 | 0.00 | 0.02 | 0.02 | 92 | 1010.0 |
| 20260509121020 | 71 | 32 | 0.0 | 0.9 | 0.00 | 0.02 | 0.02 | 92 | 1010.0 |
| 20260509120904 | 71 | 32 | 0.0 | 0.9 | 0.00 | 0.02 | 0.02 | 92 | 1010.0 |
| 20260509120809 | 71 | 32 | 0.0 | 0.9 | 0.00 | 0.02 | 0.02 | 92 | 1009.9 |
| 20260509120658 | 71 | 32 | 0.0 | 0.9 | 0.00 | 0.02 | 0.02 | 92 | 1010.0 |
| 20260509120603 | 71 | 32 | 0.0 | 0.9 | 0.00 | 0.02 | 0.02 | 92 | 1010.0 |
| 20260509120514 | 71 | 32 | 0.0 | 0.9 | 0.00 | 0.02 | 0.02 | 92 | 1010.0 |
| 20260509120358 | 71 | 32 | 0.0 | 0.9 | 0.00 | 0.02 | 0.02 | 92 | 1010.0 |
| 20260509120304 | 71 | 32 | 0.0 | 0.9 | 0.00 | 0.02 | 0.02 | 92 | 1010.0 |
| 20260509120209 | 71 | 32 | 0.0 | 0.9 | 0.00 | 0.02 | 0.02 | 92 | 1010.1 |
| 20260509120057 | 71 | 32 | 0.0 | 0.0 | 0.00 | 0.02 | 0.02 | 92 | 1010.1 |
| 20260509120009 | 71 | 32 | 0.0 | 0.0 | 0.00 | 0.02 | 0.02 | 92 | 1010.0 |
| 20260509115912 | 71 | 32 | 0.0 | 0.0 | 0.01 | 0.02 | 0.02 | 92 | 1010.1 |
| 20260509115757 | 71 | 32 | 0.0 | 0.0 | 0.01 | 0.02 | 0.02 | 92 | 1010.1 |
| 20260509115702 | 71 | 32 | 0.0 | 0.0 | 0.01 | 0.02 | 0.02 | 92 | 1010.0 |
| 20260509115611 | 71 | 32 | 0.0 | 0.0 | 0.02 | 0.02 | 0.02 | 92 | 1010.1 |
| 20260509115455 | 71 | 32 | 0.0 | 0.0 | 0.02 | 0.02 | 0.02 | 92 | 1010.1 |
| 20260509115427 | 71 | 32 | 0.0 | 0.0 | 0.02 | 0.02 | 0.02 | 92 | 1010.1 |
| 20260509115317 | 71 | 32 | 0.0 | 0.0 | 0.02 | 0.02 | 0.02 | 92 | 1010.1 |
| 20260509115201 | 71 | 32 | 0.0 | 0.0 | 0.02 | 0.02 | 0.02 | 92 | 1010.1 |
| 20260509115107 | 71 | 32 | 0.0 | 0.0 | 0.02 | 0.02 | 0.02 | 92 | 1010.1 |
| 20260509115011 | 71 | 32 | 0.0 | 0.0 | 0.02 | 0.02 | 0.02 | 92 | 1010.0 |
| 20260509114900 | 71 | 32 | 0.0 | 0.0 | 0.02 | 0.02 | 0.02 | 92 | 1010.1 |
| 20260509114833 | 71 | 32 | 0.0 | 0.0 | 0.02 | 0.02 | 0.02 | 92 | 1010.1 |
| 20260509114657 | 71 | 32 | 0.0 | 0.0 | 0.02 | 0.02 | 0.02 | 92 | 1010.1 |
| 20260509114601 | 71 | 32 | 0.0 | 0.0 | 0.02 | 0.02 | 0.02 | 92 | 1010.1 |
| 20260509114513 | 71 | 32 | 0.0 | 0.0 | 0.02 | 0.02 | 0.02 | 92 | 1010.0 |
| 20260509114402 | 71 | 32 | 0.0 | 0.9 | 0.02 | 0.02 | 0.02 | 92 | 1010.1 |
| 20260509114306 | 71 | 32 | 0.0 | 0.9 | 0.02 | 0.02 | 0.02 | 92 | 1010.2 |
| 20260509114211 | 71 | 32 | 0.0 | 0.9 | 0.02 | 0.02 | 0.02 | 92 | 1010.2 |
| 20260509114056 | 71 | 32 | 0.0 | 0.9 | 0.02 | 0.02 | 0.02 | 92 | 1010.3 |
| 20260509114001 | 71 | 32 | 0.0 | 0.9 | 0.02 | 0.02 | 0.02 | 91 | 1010.2 |
| 20260509113912 | 71 | 32 | 0.0 | 0.9 | 0.02 | 0.02 | 0.02 | 91 | 1010.3 |
| 20260509113801 | 71 | 32 | 0.0 | 1.7 | 0.02 | 0.02 | 0.02 | 91 | 1010.4 |
| 20260509113707 | 71 | 32 | 0.0 | 1.7 | 0.02 | 0.02 | 0.02 | 91 | 1010.3 |
| 20260509113611 | 71 | 32 | 0.0 | 1.7 | 0.02 | 0.02 | 0.02 | 91 | 1010.4 |
| 20260509113501 | 71 | 32 | 0.0 | 1.7 | 0.02 | 0.02 | 0.02 | 91 | 1010.4 |
| 20260509113406 | 71 | 32 | 0.0 | 1.7 | 0.02 | 0.02 | 0.02 | 91 | 1010.5 |
| 20260509113311 | 71 | 32 | 0.0 | 1.7 | 0.02 | 0.02 | 0.02 | 91 | 1010.5 |
| 20260509113200 | 71 | 32 | 0.0 | 1.7 | 0.02 | 0.02 | 0.02 | 91 | 1010.5 |
| 20260509113110 | 71 | 32 | 0.9 | 1.7 | 0.02 | 0.02 | 0.02 | 91 | 1010.4 |
| 20260509113015 | 71 | 32 | 0.0 | 2.6 | 0.02 | 0.02 | 0.02 | 91 | 1010.6 |
| 20260509112900 | 71 | 32 | 0.9 | 2.6 | 0.02 | 0.02 | 0.02 | 91 | 1010.6 |
| 20260509112811 | 71 | 32 | 0.9 | 2.6 | 0.02 | 0.02 | 0.02 | 91 | 1010.6 |
| 20260509112715 | 71 | 5 | 0.0 | 2.6 | 0.02 | 0.02 | 0.02 | 91 | 1010.7 |
| 20260509112604 | 71 | 5 | 0.0 | 2.6 | 0.02 | 0.02 | 0.02 | 91 | 1010.7 |
| 20260509112509 | 71 | 5 | 0.0 | 2.6 | 0.02 | 0.02 | 0.02 | 91 | 1010.7 |
| 20260509112421 | 71 | 5 | 0.9 | 3.5 | 0.02 | 0.02 | 0.02 | 91 | 1010.7 |
| 20260509112326 | 71 | 5 | 0.9 | 3.5 | 0.02 | 0.02 | 0.02 | 91 | 1010.8 |
| 20260509112216 | 71 | 5 | 0.9 | 3.5 | 0.02 | 0.02 | 0.02 | 91 | 1010.7 |
| 20260509112122 | 71 | 59 | 0.9 | 3.5 | 0.02 | 0.02 | 0.02 | 91 | 1010.6 |
| 20260509112005 | 71 | 59 | 0.9 | 4.3 | 0.02 | 0.02 | 0.02 | 91 | 1010.6 |
| 20260509111921 | 71 | 59 | 0.9 | 4.3 | 0.02 | 0.02 | 0.02 | 91 | 1010.6 |
| 20260509111758 | 71 | 59 | 0.9 | 4.3 | 0.02 | 0.02 | 0.02 | 91 | 1010.5 |
| 20260509111709 | 71 | 59 | 1.7 | 4.3 | 0.02 | 0.02 | 0.02 | 91 | 1010.6 |
| 20260509111614 | 71 | 59 | 1.7 | 4.3 | 0.02 | 0.02 | 0.02 | 91 | 1010.6 |
| 20260509111458 | 71 | 63 | 1.7 | 4.3 | 0.02 | 0.02 | 0.02 | 91 | 1010.7 |
| 20260509111409 | 71 | 35 | 2.6 | 4.3 | 0.02 | 0.02 | 0.02 | 91 | 1010.7 |
| 20260509111257 | 71 | 35 | 2.6 | 4.3 | 0.02 | 0.02 | 0.02 | 91 | 1010.8 |
| 20260509111202 | 71 | 30 | 2.6 | 4.3 | 0.02 | 0.02 | 0.02 | 91 | 1010.8 |
| 20260509111108 | 71 | 26 | 1.7 | 5.2 | 0.02 | 0.02 | 0.02 | 91 | 1010.9 |
| 20260509111019 | 71 | 39 | 0.9 | 5.2 | 0.02 | 0.02 | 0.02 | 91 | 1010.8 |
| 20260509110924 | 71 | 20 | 2.6 | 5.2 | 0.02 | 0.02 | 0.02 | 91 | 1010.8 |
| 20260509110808 | 71 | 23 | 2.6 | 7.0 | 0.02 | 0.02 | 0.02 | 91 | 1010.8 |
| 20260509110703 | 71 | 12 | 2.6 | 7.0 | 0.02 | 0.02 | 0.02 | 91 | 1010.8 |
| 20260509110607 | 71 | 13 | 2.6 | 7.0 | 0.02 | 0.02 | 0.02 | 91 | 1010.8 |
| 20260509110513 | 71 | 32 | 2.6 | 7.0 | 0.02 | 0.02 | 0.02 | 91 | 1010.8 |
| 20260509110357 | 71 | 34 | 2.6 | 7.0 | 0.02 | 0.02 | 0.02 | 91 | 1010.8 |
| 20260509110329 | 71 | 32 | 2.6 | 7.0 | 0.02 | 0.02 | 0.02 | 91 | 1010.7 |
| 20260509110214 | 71 | 28 | 2.6 | 7.0 | 0.02 | 0.02 | 0.02 | 91 | 1010.8 |
| 20260509110034 | 71 | 38 | 3.5 | 7.0 | 0.02 | 0.02 | 0.02 | 91 | 1010.8 |
| 20260509105857 | 71 | 38 | 3.5 | 4.3 | 0.01 | 0.01 | 0.01 | 91 | 1010.7 |
| 20260509105803 | 71 | 42 | 2.6 | 5.2 | 0.01 | 0.01 | 0.01 | 91 | 1010.8 |
| 20260509105708 | 71 | 28 | 1.7 | 5.2 | 0.00 | 0.00 | 0.00 | 91 | 1010.8 |
| 20260509105558 | 71 | 28 | 0.9 | 5.2 | 0.00 | 0.00 | 0.00 | 91 | 1010.8 |
| 20260509105507 | 71 | 28 | 1.7 | 5.2 | 0.00 | 0.00 | 0.00 | 91 | 1010.9 |
| 20260509105412 | 71 | 29 | 2.6 | 5.2 | 0.00 | 0.00 | 0.00 | 91 | 1010.9 |
| 20260509105257 | 71 | 16 | 2.6 | 5.2 | 0.00 | 0.00 | 0.00 | 91 | 1010.9 |
| 20260509105208 | 71 | 23 | 2.6 | 5.2 | 0.00 | 0.00 | 0.00 | 91 | 1010.9 |
| 20260509105114 | 71 | 25 | 2.6 | 7.0 | 0.00 | 0.00 | 0.00 | 91 | 1010.9 |
| 20260509104958 | 71 | 5 | 1.7 | 7.0 | 0.00 | 0.00 | 0.00 | 91 | 1010.9 |
| 20260509104913 | 71 | 360 | 1.7 | 7.0 | 0.00 | 0.00 | 0.00 | 91 | 1010.9 |
| 20260509104757 | 71 | 32 | 2.6 | 7.0 | 0.00 | 0.00 | 0.00 | 91 | 1010.9 |
| 20260509104702 | 71 | 24 | 2.6 | 7.0 | 0.00 | 0.00 | 0.00 | 91 | 1010.9 |
| 20260509104607 | 71 | 22 | 2.6 | 7.0 | 0.00 | 0.00 | 0.00 | 91 | 1010.9 |
| 20260509104518 | 71 | 16 | 3.5 | 7.0 | 0.00 | 0.00 | 0.00 | 91 | 1010.9 |
| 20260509104403 | 71 | 27 | 3.5 | 7.0 | 0.00 | 0.00 | 0.00 | 91 | 1010.9 |
| 20260509104312 | 71 | 37 | 3.5 | 7.0 | 0.00 | 0.00 | 0.00 | 91 | 1010.9 |
| 20260509104156 | 71 | 35 | 3.5 | 7.0 | 0.00 | 0.00 | 0.00 | 91 | 1010.9 |
| 20260509104109 | 71 | 49 | 3.5 | 7.0 | 0.00 | 0.00 | 0.00 | 91 | 1010.8 |
| 20260509104013 | 71 | 44 | 3.5 | 7.0 | 0.00 | 0.00 | 0.00 | 91 | 1010.9 |
| 20260509103918 | 71 | 43 | 3.5 | 7.0 | 0.00 | 0.00 | 0.00 | 91 | 1010.8 |
| 20260509103810 | 71 | 48 | 3.5 | 7.0 | 0.00 | 0.00 | 0.00 | 91 | 1010.9 |
| 20260509103659 | 71 | 51 | 3.5 | 7.0 | 0.00 | 0.00 | 0.00 | 91 | 1010.8 |
| 20260509103603 | 71 | 27 | 2.6 | 7.0 | 0.00 | 0.00 | 0.00 | 91 | 1010.9 |
| 20260509103508 | 71 | 30 | 2.6 | 7.0 | 0.00 | 0.00 | 0.00 | 91 | 1010.8 |
| 20260509103441 | 71 | 37 | 1.7 | 4.3 | 0.00 | 0.00 | 0.00 | 91 | 1010.9 |
| 20260509103302 | 71 | 35 | 1.7 | 4.3 | 0.00 | 0.00 | 0.00 | 91 | 1010.8 |
| 20260509103207 | 71 | 35 | 2.6 | 4.3 | 0.00 | 0.00 | 0.00 | 91 | 1010.8 |
| 20260509103056 | 71 | 32 | 2.6 | 4.3 | 0.00 | 0.00 | 0.00 | 91 | 1010.8 |
| 20260509103007 | 71 | 33 | 2.6 | 4.3 | 0.00 | 0.00 | 0.00 | 91 | 1010.7 |
| 20260509102912 | 71 | 33 | 2.6 | 4.3 | 0.00 | 0.00 | 0.00 | 91 | 1010.7 |
| 20260509102818 | 71 | 33 | 1.7 | 4.3 | 0.00 | 0.00 | 0.00 | 91 | 1010.6 |
| 20260509102708 | 71 | 94 | 1.7 | 2.6 | 0.00 | 0.00 | 0.00 | 91 | 1010.7 |
| 20260509102612 | 71 | 94 | 1.7 | 2.6 | 0.00 | 0.00 | 0.00 | 91 | 1010.7 |
| 20260509102500 | 71 | 94 | 1.7 | 2.6 | 0.00 | 0.00 | 0.00 | 91 | 1010.7 |
| 20260509102405 | 71 | 97 | 0.9 | 2.6 | 0.00 | 0.00 | 0.00 | 91 | 1010.7 |
| 20260509102317 | 71 | 107 | 0.9 | 2.6 | 0.00 | 0.00 | 0.00 | 91 | 1010.7 |
| 20260509102200 | 71 | 107 | 0.9 | 2.6 | 0.00 | 0.00 | 0.00 | 91 | 1010.7 |
| 20260509102133 | 71 | 107 | 0.9 | 1.7 | 0.00 | 0.00 | 0.00 | 91 | 1010.6 |
| 20260509101957 | 71 | 107 | 0.9 | 1.7 | 0.00 | 0.00 | 0.00 | 91 | 1010.6 |
| 20260509101901 | 71 | 107 | 0.0 | 0.9 | 0.00 | 0.00 | 0.00 | 91 | 1010.5 |
| 20260509101811 | 71 | 107 | 0.0 | 2.6 | 0.00 | 0.00 | 0.00 | 91 | 1010.5 |
| 20260509101722 | 71 | 107 | 0.0 | 2.6 | 0.00 | 0.00 | 0.00 | 91 | 1010.5 |
| 20260509101606 | 71 | 107 | 0.0 | 2.6 | 0.00 | 0.00 | 0.00 | 91 | 1010.4 |
| 20260509101510 | 71 | 107 | 0.0 | 2.6 | 0.00 | 0.00 | 0.00 | 91 | 1010.4 |
| 20260509101415 | 71 | 107 | 0.0 | 2.6 | 0.00 | 0.00 | 0.00 | 91 | 1010.3 |
| 20260509101304 | 71 | 107 | 0.0 | 2.6 | 0.00 | 0.00 | 0.00 | 91 | 1010.3 |
| 20260509101216 | 71 | 107 | 0.0 | 2.6 | 0.00 | 0.00 | 0.00 | 91 | 1010.3 |
| 20260509101119 | 71 | 107 | 0.9 | 2.6 | 0.00 | 0.00 | 0.00 | 91 | 1010.2 |
| 20260509101003 | 71 | 107 | 0.9 | 2.6 | 0.00 | 0.00 | 0.00 | 91 | 1010.2 |
| 20260509100907 | 71 | 107 | 0.0 | 2.6 | 0.00 | 0.00 | 0.00 | 91 | 1010.2 |
| 20260509100812 | 71 | 107 | 0.0 | 0.9 | 0.00 | 0.00 | 0.00 | 91 | 1010.1 |
| 20260509100702 | 71 | 107 | 0.0 | 0.9 | 0.00 | 0.00 | 0.00 | 91 | 1010.2 |
| 20260509100633 | 71 | 107 | 0.0 | 0.9 | 0.00 | 0.00 | 0.00 | 91 | 1010.0 |
| 20260509100456 | 71 | 107 | 0.0 | 0.9 | 0.00 | 0.00 | 0.00 | 91 | 1010.0 |
| 20260509100401 | 71 | 107 | 0.0 | 0.9 | 0.00 | 0.00 | 0.00 | 91 | 1009.9 |
| 20260509100313 | 71 | 107 | 0.0 | 0.9 | 0.00 | 0.00 | 0.00 | 91 | 1009.9 |
| 20260509100157 | 71 | 107 | 0.0 | 0.0 | 0.00 | 0.00 | 0.00 | 91 | 1009.8 |
| 20260509100105 | 71 | 107 | 0.0 | 2.6 | 0.00 | 0.00 | 0.00 | 91 | 1009.8 |
| 20260509100035 | 71 | 107 | 0.0 | 2.6 | 0.00 | 0.00 | 0.00 | 91 | 1009.8 |
| 20260509095923 | 71 | 107 | 0.0 | 5.2 | 0.00 | 0.00 | 0.00 | 91 | 1009.8 |
| 20260509095827 | 71 | 107 | 0.0 | 5.2 | 0.00 | 0.00 | 0.00 | 91 | 1009.8 |
| 20260509095711 | 71 | 107 | 0.0 | 5.2 | 0.00 | 0.00 | 0.00 | 91 | 1009.7 |
| 20260509095622 | 71 | 107 | 0.0 | 5.2 | 0.00 | 0.00 | 0.00 | 91 | 1009.7 |
| 20260509095506 | 71 | 107 | 0.0 | 5.2 | 0.00 | 0.00 | 0.00 | 91 | 1009.7 |
| 20260509095411 | 71 | 107 | 0.9 | 5.2 | 0.00 | 0.00 | 0.00 | 91 | 1009.7 |
| 20260509095327 | 71 | 107 | 1.7 | 5.2 | 0.00 | 0.00 | 0.00 | 91 | 1009.6 |
| 20260509095211 | 71 | 107 | 2.6 | 5.2 | 0.00 | 0.00 | 0.00 | 91 | 1009.6 |
| 20260509095143 | 71 | 107 | 2.6 | 5.2 | 0.00 | 0.00 | 0.00 | 91 | 1009.5 |
| 20260509095028 | 71 | 111 | 2.6 | 5.2 | 0.00 | 0.00 | 0.00 | 91 | 1009.5 |
| 20260509094912 | 71 | 111 | 2.6 | 5.2 | 0.00 | 0.00 | 0.00 | 91 | 1009.4 |
| 20260509094802 | 71 | 93 | 1.7 | 5.2 | 0.00 | 0.00 | 0.00 | 91 | 1009.5 |
| 20260509094707 | 71 | 93 | 2.6 | 5.2 | 0.00 | 0.00 | 0.00 | 91 | 1009.4 |
| 20260509094615 | 71 | 93 | 2.6 | 5.2 | 0.00 | 0.00 | 0.00 | 91 | 1009.4 |
| 20260509094527 | 71 | 86 | 1.7 | 3.5 | 0.00 | 0.00 | 0.00 | 91 | 1009.4 |
| 20260509094410 | 71 | 80 | 0.9 | 1.7 | 0.00 | 0.00 | 0.00 | 91 | 1009.4 |
| 20260509094255 | 71 | 80 | 0.0 | 0.0 | 0.00 | 0.00 | 0.00 | 91 | 1009.5 |
| 20260509094200 | 71 | 80 | 0.0 | 0.0 | 0.00 | 0.00 | 0.00 | 91 | 1009.4 |
| 20260509094133 | 71 | 80 | 0.0 | 0.0 | 0.00 | 0.00 | 0.00 | 91 | 1009.5 |
| 20260509094000 | 71 | 80 | 0.0 | 0.0 | 0.00 | 0.00 | 0.00 | 91 | 1009.5 |
| 20260509093932 | 71 | 80 | 0.0 | 0.0 | 0.00 | 0.00 | 0.00 | 91 | 1009.4 |
| 20260509093756 | 71 | 80 | 0.0 | 0.0 | 0.00 | 0.00 | 0.00 | 91 | 1009.5 |
| 20260509093701 | 71 | 80 | 0.0 | 0.0 | 0.00 | 0.00 | 0.00 | 91 | 1009.7 |
| 20260509093605 | 71 | 80 | 0.0 | 0.0 | 0.00 | 0.00 | 0.00 | 91 | 1009.7 |
| 20260509093517 | 71 | 80 | 0.0 | 0.0 | 0.00 | 0.00 | 0.00 | 91 | 1009.7 |
| 20260509093405 | 71 | 80 | 0.0 | 0.0 | 0.00 | 0.00 | 0.00 | 91 | 1009.7 |
| 20260509093309 | 71 | 80 | 0.0 | 0.0 | 0.00 | 0.00 | 0.00 | 91 | 1009.7 |
| 20260509093214 | 71 | 80 | 0.0 | 0.0 | 0.00 | 0.00 | 0.00 | 91 | 1009.7 |
| 20260509093058 | 71 | 80 | 0.0 | 0.9 | 0.00 | 0.00 | 0.00 | 91 | 1009.7 |
| 20260509093030 | 71 | 80 | 0.0 | 1.7 | 0.00 | 0.00 | 0.00 | 91 | 1009.7 |
| 20260509092914 | 71 | 80 | 0.0 | 1.7 | 0.00 | 0.00 | 0.00 | 91 | 1009.7 |
| 20260509092803 | 71 | 80 | 0.0 | 1.7 | 0.00 | 0.00 | 0.00 | 91 | 1009.7 |
| 20260509092714 | 71 | 80 | 0.0 | 1.7 | 0.00 | 0.00 | 0.00 | 91 | 1009.7 |
| 20260509092559 | 71 | 80 | 0.0 | 1.7 | 0.00 | 0.00 | 0.00 | 91 | 1009.7 |
| 20260509092504 | 71 | 80 | 0.0 | 1.7 | 0.00 | 0.00 | 0.00 | 91 | 1009.6 |
| 20260509092409 | 71 | 80 | 0.0 | 1.7 | 0.00 | 0.00 | 0.00 | 91 | 1009.5 |
| 20260509092314 | 71 | 80 | 0.0 | 1.7 | 0.00 | 0.00 | 0.00 | 91 | 1009.5 |
| 20260509092210 | 71 | 80 | 0.0 | 1.7 | 0.00 | 0.00 | 0.00 | 91 | 1009.5 |
| 20260509092113 | 71 | 81 | 0.0 | 0.9 | 0.00 | 0.00 | 0.00 | 91 | 1009.5 |
| 20260509091957 | 71 | 81 | 0.0 | 1.7 | 0.00 | 0.00 | 0.00 | 91 | 1009.4 |
| 20260509091903 | 71 | 81 | 0.0 | 1.7 | 0.00 | 0.00 | 0.00 | 91 | 1009.4 |
| 20260509091808 | 71 | 81 | 0.0 | 2.6 | 0.00 | 0.00 | 0.00 | 91 | 1009.4 |
| 20260509091656 | 71 | 81 | 0.0 | 2.6 | 0.00 | 0.00 | 0.00 | 91 | 1009.4 |
| 20260509091607 | 71 | 81 | 0.0 | 2.6 | 0.00 | 0.00 | 0.00 | 91 | 1009.4 |
| 20260509091539 | 71 | 81 | 0.0 | 2.6 | 0.00 | 0.00 | 0.00 | 91 | 1009.4 |
| 20260509091402 | 71 | 81 | 0.0 | 2.6 | 0.00 | 0.00 | 0.00 | 91 | 1009.4 |
| 20260509091307 | 71 | 81 | 0.9 | 2.6 | 0.00 | 0.00 | 0.00 | 91 | 1009.4 |
| 20260509091239 | 71 | 81 | 0.9 | 2.6 | 0.00 | 0.00 | 0.00 | 91 | 1009.3 |
| 20260509091102 | 71 | 81 | 0.9 | 2.6 | 0.00 | 0.00 | 0.00 | 91 | 1009.3 |
| 20260509091011 | 71 | 81 | 1.7 | 2.6 | 0.00 | 0.00 | 0.00 | 91 | 1009.3 |
| 20260509090856 | 71 | 82 | 0.9 | 2.6 | 0.00 | 0.00 | 0.00 | 91 | 1009.2 |
| 20260509090801 | 71 | 82 | 0.9 | 2.6 | 0.00 | 0.00 | 0.00 | 91 | 1009.2 |
| 20260509090713 | 71 | 82 | 0.9 | 2.6 | 0.00 | 0.00 | 0.00 | 91 | 1009.2 |
| 20260509090556 | 71 | 82 | 0.0 | 0.9 | 0.00 | 0.00 | 0.00 | 91 | 1009.2 |
| 20260509090501 | 71 | 82 | 0.0 | 0.9 | 0.00 | 0.00 | 0.00 | 91 | 1009.2 |
| 20260509090410 | 71 | 82 | 0.0 | 1.7 | 0.00 | 0.00 | 0.00 | 91 | 1009.2 |
| 20260509090321 | 71 | 82 | 0.0 | 1.7 | 0.00 | 0.00 | 0.00 | 91 | 1009.2 |
| 20260509090158 | 71 | 82 | 0.0 | 1.7 | 0.00 | 0.00 | 0.00 | 91 | 1009.2 |
| 20260509090110 | 71 | 82 | 0.0 | 1.7 | 0.00 | 0.00 | 0.00 | 91 | 1009.2 |
| 20260509090015 | 71 | 82 | 0.0 | 1.7 | 0.00 | 0.00 | 0.00 | 91 | 1009.4 |
| 20260509085904 | 71 | 82 | 0.0 | 1.7 | 0.00 | 0.00 | 0.00 | 91 | 1009.3 |
| 20260509085809 | 71 | 82 | 0.0 | 1.7 | 0.00 | 0.00 | 0.00 | 91 | 1009.3 |
| 20260509085720 | 71 | 82 | 0.0 | 1.7 | 0.00 | 0.00 | 0.00 | 91 | 1009.4 |
| 20260509085604 | 71 | 82 | 0.0 | 1.7 | 0.00 | 0.00 | 0.00 | 90 | 1009.3 |
| 20260509085510 | 71 | 82 | 0.0 | 1.7 | 0.00 | 0.00 | 0.00 | 90 | 1009.3 |
| 20260509085415 | 71 | 82 | 0.0 | 1.7 | 0.00 | 0.00 | 0.00 | 90 | 1009.3 |
| 20260509085306 | 71 | 82 | 0.0 | 1.7 | 0.00 | 0.00 | 0.00 | 91 | 1009.3 |
| 20260509085215 | 71 | 82 | 0.0 | 1.7 | 0.00 | 0.00 | 0.00 | 90 | 1009.3 |
| 20260509085059 | 71 | 82 | 0.0 | 1.7 | 0.00 | 0.00 | 0.00 | 91 | 1009.3 |
| 20260509085005 | 71 | 82 | 0.0 | 1.7 | 0.00 | 0.00 | 0.00 | 91 | 1009.3 |
| 20260509084915 | 71 | 82 | 0.0 | 1.7 | 0.00 | 0.00 | 0.00 | 90 | 1009.5 |
| 20260509084820 | 71 | 82 | 0.0 | 1.7 | 0.00 | 0.00 | 0.00 | 91 | 1009.4 |
| 20260509084709 | 71 | 82 | 0.0 | 1.7 | 0.00 | 0.00 | 0.00 | 91 | 1009.6 |
| 20260509084641 | 71 | 82 | 0.0 | 2.6 | 0.00 | 0.00 | 0.00 | 90 | 1009.5 |
| 20260509084457 | 71 | 82 | 0.0 | 3.5 | 0.00 | 0.00 | 0.00 | 90 | 1009.7 |
| 20260509084430 | 71 | 82 | 0.0 | 3.5 | 0.00 | 0.00 | 0.00 | 90 | 1009.5 |
| 20260509084313 | 71 | 82 | 0.0 | 3.5 | 0.00 | 0.00 | 0.00 | 90 | 1009.5 |
| 20260509084158 | 71 | 82 | 0.0 | 3.5 | 0.00 | 0.00 | 0.00 | 90 | 1009.6 |
| 20260509084114 | 71 | 82 | 0.0 | 3.5 | 0.00 | 0.00 | 0.00 | 90 | 1009.6 |
| 20260509084018 | 71 | 82 | 0.9 | 3.5 | 0.00 | 0.00 | 0.00 | 90 | 1009.7 |
| 20260509083902 | 71 | 82 | 0.9 | 3.5 | 0.00 | 0.00 | 0.00 | 90 | 1009.6 |
| 20260509083813 | 71 | 82 | 1.7 | 3.5 | 0.00 | 0.00 | 0.00 | 90 | 1009.6 |
| 20260509083659 | 71 | 82 | 0.9 | 3.5 | 0.00 | 0.00 | 0.00 | 90 | 1009.6 |
| 20260509083603 | 71 | 82 | 0.9 | 2.6 | 0.00 | 0.00 | 0.00 | 90 | 1009.6 |
| 20260509083512 | 71 | 82 | 0.9 | 2.6 | 0.00 | 0.00 | 0.00 | 90 | 1009.6 |
| 20260509083356 | 71 | 82 | 0.9 | 2.6 | 0.00 | 0.00 | 0.00 | 90 | 1009.7 |
| 20260509083307 | 71 | 82 | 0.9 | 2.6 | 0.00 | 0.00 | 0.00 | 90 | 1009.7 |
| 20260509083212 | 71 | 82 | 0.9 | 2.6 | 0.00 | 0.00 | 0.00 | 90 | 1009.7 |
| 20260509083057 | 71 | 82 | 0.0 | 2.6 | 0.00 | 0.00 | 0.00 | 90 | 1009.7 |
| 20260509083002 | 71 | 82 | 0.0 | 2.6 | 0.00 | 0.00 | 0.00 | 90 | 1009.8 |
| 20260509082856 | 71 | 82 | 0.9 | 2.6 | 0.00 | 0.00 | 0.00 | 90 | 1009.9 |
| 20260509082801 | 71 | 82 | 0.9 | 2.6 | 0.00 | 0.00 | 0.00 | 90 | 1009.8 |
| 20260509082712 | 71 | 82 | 0.9 | 2.6 | 0.00 | 0.00 | 0.00 | 90 | 1009.8 |
| 20260509082617 | 71 | 82 | 0.9 | 2.6 | 0.00 | 0.00 | 0.00 | 90 | 1009.8 |
| 20260509082501 | 71 | 82 | 0.9 | 2.6 | 0.00 | 0.00 | 0.00 | 90 | 1009.7 |
| 20260509082413 | 71 | 83 | 0.0 | 3.5 | 0.00 | 0.00 | 0.00 | 90 | 1009.8 |
| 20260509082300 | 71 | 83 | 0.9 | 3.5 | 0.00 | 0.00 | 0.00 | 90 | 1009.8 |
| 20260509082204 | 71 | 83 | 0.9 | 3.5 | 0.00 | 0.00 | 0.00 | 90 | 1009.9 |
| 20260509082109 | 71 | 83 | 0.9 | 3.5 | 0.00 | 0.00 | 0.00 | 90 | 1009.8 |
| 20260509082041 | 71 | 88 | 0.9 | 3.5 | 0.00 | 0.00 | 0.00 | 90 | 1009.7 |
| 20260509081904 | 71 | 92 | 0.9 | 3.5 | 0.00 | 0.00 | 0.00 | 90 | 1009.8 |
| 20260509081809 | 71 | 92 | 0.9 | 3.5 | 0.00 | 0.00 | 0.00 | 90 | 1009.8 |
| 20260509081658 | 71 | 92 | 1.7 | 3.5 | 0.00 | 0.00 | 0.00 | 90 | 1009.8 |
| 20260509081603 | 71 | 92 | 1.7 | 3.5 | 0.00 | 0.00 | 0.00 | 90 | 1009.8 |
| 20260509081514 | 71 | 96 | 0.9 | 3.5 | 0.00 | 0.00 | 0.00 | 90 | 1009.8 |
| 20260509081359 | 71 | 120 | 0.0 | 2.6 | 0.00 | 0.00 | 0.00 | 90 | 1009.8 |
| 20260509081304 | 71 | 120 | 0.9 | 2.6 | 0.00 | 0.00 | 0.00 | 90 | 1010.0 |
| 20260509081209 | 71 | 120 | 0.9 | 2.6 | 0.00 | 0.00 | 0.00 | 90 | 1010.0 |
| 20260509081058 | 71 | 120 | 0.9 | 2.6 | 0.00 | 0.00 | 0.00 | 90 | 1010.0 |
| 20260509081030 | 71 | 120 | 0.9 | 2.6 | 0.00 | 0.00 | 0.00 | 90 | 1010.0 |
| 20260509080914 | 71 | 120 | 0.0 | 1.7 | 0.00 | 0.00 | 0.00 | 90 | 1010.0 |
| 20260509080758 | 71 | 120 | 0.0 | 1.7 | 0.00 | 0.00 | 0.00 | 90 | 1010.0 |
| 20260509080711 | 71 | 120 | 0.0 | 1.7 | 0.00 | 0.00 | 0.00 | 90 | 1010.0 |
| 20260509080615 | 71 | 120 | 0.0 | 1.7 | 0.00 | 0.00 | 0.00 | 90 | 1010.0 |
| 20260509080503 | 71 | 120 | 0.0 | 1.7 | 0.00 | 0.00 | 0.00 | 90 | 1009.9 |
| 20260509080408 | 71 | 120 | 0.0 | 1.7 | 0.00 | 0.00 | 0.00 | 90 | 1009.9 |
| 20260509080321 | 71 | 120 | 0.0 | 1.7 | 0.00 | 0.00 | 0.00 | 90 | 1009.8 |
| 20260509080157 | 71 | 120 | 0.9 | 3.5 | 0.00 | 0.00 | 0.00 | 90 | 1009.8 |
| 20260509080108 | 71 | 120 | 0.9 | 3.5 | 0.00 | 0.00 | 0.00 | 90 | 1009.7 |
| 20260509080034 | 71 | 120 | 0.0 | 3.5 | 0.00 | 0.00 | 0.00 | 90 | 1009.6 |
| 20260509075901 | 71 | 120 | 0.9 | 3.5 | 0.00 | 0.00 | 0.00 | 90 | 1009.6 |
| 20260509075834 | 71 | 120 | 0.9 | 3.5 | 0.00 | 0.00 | 0.00 | 90 | 1009.6 |
| 20260509075657 | 71 | 119 | 0.0 | 3.5 | 0.00 | 0.00 | 0.00 | 90 | 1009.5 |
| 20260509075602 | 71 | 119 | 0.9 | 3.5 | 0.00 | 0.00 | 0.00 | 90 | 1009.5 |
| 20260509075535 | 71 | 119 | 0.9 | 3.5 | 0.00 | 0.00 | 0.00 | 90 | 1009.4 |
| 20260509075358 | 71 | 119 | 1.7 | 3.5 | 0.00 | 0.00 | 0.00 | 89 | 1009.4 |
| 20260509075308 | 71 | 119 | 0.9 | 3.5 | 0.00 | 0.00 | 0.00 | 89 | 1009.4 |
| 20260509075219 | 71 | 119 | 0.9 | 2.6 | 0.00 | 0.00 | 0.00 | 89 | 1009.4 |
| 20260509075124 | 71 | 119 | 0.9 | 3.5 | 0.00 | 0.00 | 0.00 | 89 | 1009.4 |
| 20260509075008 | 71 | 119 | 0.0 | 3.5 | 0.00 | 0.00 | 0.00 | 89 | 1009.5 |
| 20260509074920 | 71 | 119 | 0.0 | 3.5 | 0.00 | 0.00 | 0.00 | 89 | 1009.5 |
| 20260509074804 | 71 | 119 | 0.0 | 3.5 | 0.00 | 0.00 | 0.00 | 89 | 1009.5 |
| 20260509074708 | 71 | 119 | 0.0 | 3.5 | 0.00 | 0.00 | 0.00 | 89 | 1009.5 |
| 20260509074601 | 71 | 119 | 0.0 | 3.5 | 0.00 | 0.00 | 0.00 | 89 | 1009.5 |
| 20260509074504 | 71 | 119 | 0.9 | 3.5 | 0.00 | 0.00 | 0.00 | 89 | 1009.4 |
| 20260509074409 | 71 | 119 | 1.7 | 3.5 | 0.00 | 0.00 | 0.00 | 89 | 1009.4 |
| 20260509074320 | 71 | 119 | 2.6 | 3.5 | 0.00 | 0.00 | 0.00 | 89 | 1009.3 |
| 20260509074204 | 71 | 122 | 1.7 | 3.5 | 0.00 | 0.00 | 0.00 | 89 | 1009.4 |
| 20260509074109 | 71 | 128 | 0.9 | 3.5 | 0.00 | 0.00 | 0.00 | 89 | 1009.4 |
| 20260509073957 | 71 | 128 | 0.9 | 3.5 | 0.00 | 0.00 | 0.00 | 89 | 1009.4 |
| 20260509073931 | 71 | 130 | 0.9 | 3.5 | 0.00 | 0.00 | 0.00 | 89 | 1009.4 |
| 20260509073815 | 71 | 130 | 1.7 | 3.5 | 0.00 | 0.00 | 0.00 | 89 | 1009.5 |
| 20260509073729 | 71 | 130 | 1.7 | 3.5 | 0.00 | 0.00 | 0.00 | 89 | 1009.5 |
| 20260509073631 | 72 | 130 | 1.7 | 3.5 | 0.00 | 0.00 | 0.00 | 89 | 1009.6 |
| 20260509073542 | 72 | 130 | 1.7 | 3.5 | 0.00 | 0.00 | 0.00 | 89 | 1009.4 |
| 20260509073405 | 72 | 145 | 0.9 | 2.6 | 0.00 | 0.00 | 0.00 | 89 | 1009.5 |
| 20260509073314 | 71 | 150 | 0.0 | 2.6 | 0.00 | 0.00 | 0.00 | 89 | 1009.5 |
| 20260509073159 | 72 | 150 | 0.0 | 2.6 | 0.00 | 0.00 | 0.00 | 89 | 1009.5 |
| 20260509073104 | 72 | 150 | 0.0 | 2.6 | 0.00 | 0.00 | 0.00 | 89 | 1009.4 |
| 20260509073015 | 72 | 150 | 0.9 | 2.6 | 0.00 | 0.00 | 0.00 | 89 | 1009.4 |
| 20260509072859 | 72 | 150 | 0.9 | 2.6 | 0.00 | 0.00 | 0.00 | 89 | 1009.5 |
| 20260509072805 | 72 | 150 | 0.0 | 2.6 | 0.00 | 0.00 | 0.00 | 89 | 1009.4 |
| 20260509072714 | 72 | 150 | 0.0 | 2.6 | 0.00 | 0.00 | 0.00 | 89 | 1009.5 |
| 20260509072558 | 72 | 150 | 0.9 | 2.6 | 0.00 | 0.00 | 0.00 | 89 | 1009.5 |
| 20260509072531 | 72 | 150 | 0.9 | 2.6 | 0.00 | 0.00 | 0.00 | 89 | 1009.5 |
| 20260509072415 | 72 | 196 | 0.9 | 2.6 | 0.00 | 0.00 | 0.00 | 89 | 1009.7 |
| 20260509072327 | 72 | 196 | 0.0 | 2.6 | 0.00 | 0.00 | 0.00 | 89 | 1009.7 |
| 20260509072211 | 72 | 196 | 0.0 | 2.6 | 0.00 | 0.00 | 0.00 | 89 | 1009.7 |
| 20260509072100 | 72 | 196 | 0.0 | 2.6 | 0.00 | 0.00 | 0.00 | 89 | 1009.7 |
| 20260509072005 | 72 | 196 | 0.9 | 2.6 | 0.00 | 0.00 | 0.00 | 89 | 1009.7 |
| 20260509071916 | 72 | 196 | 1.7 | 2.6 | 0.00 | 0.00 | 0.00 | 89 | 1009.7 |
| 20260509071821 | 72 | 202 | 1.7 | 2.6 | 0.00 | 0.00 | 0.00 | 89 | 1009.7 |
| 20260509071705 | 72 | 202 | 0.9 | 2.6 | 0.00 | 0.00 | 0.00 | 89 | 1009.7 |
| 20260509071618 | 72 | 202 | 0.9 | 2.6 | 0.00 | 0.00 | 0.00 | 89 | 1009.7 |
| 20260509071504 | 72 | 204 | 0.0 | 2.6 | 0.00 | 0.00 | 0.00 | 89 | 1009.7 |
| 20260509071408 | 72 | 205 | 0.0 | 2.6 | 0.00 | 0.00 | 0.00 | 89 | 1009.6 |
| 20260509071313 | 72 | 205 | 0.0 | 2.6 | 0.00 | 0.00 | 0.00 | 89 | 1009.6 |
| 20260509071157 | 72 | 205 | 0.0 | 2.6 | 0.00 | 0.00 | 0.00 | 89 | 1009.7 |
| 20260509071102 | 72 | 205 | 0.0 | 3.5 | 0.00 | 0.00 | 0.00 | 89 | 1009.6 |
| 20260509071014 | 72 | 205 | 0.9 | 3.5 | 0.00 | 0.00 | 0.00 | 89 | 1009.6 |
| 20260509070902 | 71 | 205 | 0.9 | 3.5 | 0.00 | 0.00 | 0.00 | 89 | 1009.7 |
| 20260509070807 | 72 | 205 | 0.9 | 3.5 | 0.00 | 0.00 | 0.00 | 89 | 1009.8 |
| 20260509070714 | 72 | 211 | 0.0 | 3.5 | 0.00 | 0.00 | 0.00 | 89 | 1009.8 |
| 20260509070557 | 72 | 211 | 0.0 | 3.5 | 0.00 | 0.00 | 0.00 | 89 | 1009.8 |
| 20260509070508 | 72 | 211 | 0.9 | 3.5 | 0.00 | 0.00 | 0.00 | 89 | 1009.8 |
| 20260509070357 | 72 | 211 | 0.9 | 3.5 | 0.00 | 0.00 | 0.00 | 89 | 1009.9 |
| 20260509070302 | 72 | 211 | 1.7 | 3.5 | 0.00 | 0.00 | 0.00 | 89 | 1010.0 |
| 20260509070207 | 72 | 211 | 1.7 | 3.5 | 0.00 | 0.00 | 0.00 | 89 | 1009.9 |
| 20260509070118 | 72 | 211 | 2.6 | 3.5 | 0.00 | 0.00 | 0.00 | 89 | 1009.9 |
| 20260509070023 | 72 | 211 | 1.7 | 5.2 | 0.00 | 0.00 | 0.00 | 89 | 1010.0 |
| 20260509065912 | 72 | 192 | 1.7 | 5.2 | 0.00 | 0.00 | 0.00 | 89 | 1010.0 |
| 20260509065756 | 72 | 191 | 1.7 | 5.2 | 0.00 | 0.00 | 0.00 | 89 | 1009.9 |
| 20260509065710 | 72 | 192 | 1.7 | 5.2 | 0.00 | 0.00 | 0.00 | 89 | 1009.9 |
| 20260509065615 | 72 | 192 | 1.7 | 5.2 | 0.00 | 0.00 | 0.00 | 89 | 1009.9 |
| 20260509065500 | 72 | 208 | 1.7 | 5.2 | 0.00 | 0.00 | 0.00 | 89 | 1009.9 |
| 20260509065404 | 72 | 208 | 1.7 | 5.2 | 0.00 | 0.00 | 0.00 | 89 | 1009.8 |
| 20260509065309 | 72 | 209 | 1.7 | 5.2 | 0.00 | 0.00 | 0.00 | 89 | 1009.9 |
| 20260509065159 | 72 | 230 | 2.6 | 5.2 | 0.00 | 0.00 | 0.00 | 89 | 1009.9 |
| 20260509065108 | 72 | 214 | 3.5 | 5.2 | 0.00 | 0.00 | 0.00 | 89 | 1009.9 |
| 20260509065013 | 72 | 217 | 1.7 | 7.0 | 0.00 | 0.00 | 0.00 | 89 | 1010.0 |
| 20260509064925 | 72 | 225 | 0.9 | 7.0 | 0.00 | 0.00 | 0.00 | 89 | 1009.8 |
| 20260509064830 | 72 | 227 | 1.7 | 7.0 | 0.00 | 0.00 | 0.00 | 89 | 1009.8 |
| 20260509064720 | 72 | 227 | 1.7 | 7.0 | 0.00 | 0.00 | 0.00 | 89 | 1009.8 |
| 20260509064624 | 72 | 206 | 1.7 | 7.0 | 0.00 | 0.00 | 0.00 | 89 | 1009.8 |
| 20260509064508 | 72 | 202 | 1.7 | 7.0 | 0.00 | 0.00 | 0.00 | 88 | 1009.7 |
| 20260509064402 | 72 | 231 | 2.6 | 7.0 | 0.00 | 0.00 | 0.00 | 88 | 1009.7 |
| 20260509064307 | 72 | 232 | 3.5 | 7.0 | 0.00 | 0.00 | 0.00 | 88 | 1009.6 |
| 20260509064212 | 72 | 200 | 3.5 | 7.0 | 0.00 | 0.00 | 0.00 | 88 | 1009.7 |
| 20260509064055 | 72 | 177 | 3.5 | 7.0 | 0.00 | 0.00 | 0.00 | 88 | 1009.6 |
| 20260509064007 | 72 | 176 | 2.6 | 7.0 | 0.00 | 0.00 | 0.00 | 88 | 1009.5 |
| 20260509063911 | 72 | 181 | 2.6 | 7.0 | 0.00 | 0.00 | 0.00 | 89 | 1009.5 |
| 20260509063759 | 72 | 175 | 3.5 | 7.0 | 0.00 | 0.00 | 0.00 | 88 | 1009.5 |
| 20260509063704 | 72 | 184 | 4.3 | 8.7 | 0.00 | 0.00 | 0.00 | 88 | 1009.4 |
| 20260509063615 | 72 | 190 | 2.6 | 7.0 | 0.00 | 0.00 | 0.00 | 88 | 1009.4 |
| 20260509063459 | 72 | 150 | 3.5 | 7.0 | 0.00 | 0.00 | 0.00 | 88 | 1009.4 |
| 20260509063404 | 72 | 182 | 4.3 | 7.0 | 0.00 | 0.00 | 0.00 | 88 | 1009.4 |
| 20260509063309 | 72 | 146 | 4.3 | 7.8 | 0.00 | 0.00 | 0.00 | 88 | 1009.4 |
| 20260509063158 | 72 | 157 | 4.3 | 7.8 | 0.00 | 0.00 | 0.00 | 88 | 1009.3 |
| 20260509063102 | 72 | 157 | 3.5 | 7.8 | 0.00 | 0.00 | 0.00 | 88 | 1009.2 |
| 20260509063014 | 72 | 168 | 2.6 | 7.8 | 0.00 | 0.00 | 0.00 | 88 | 1009.3 |
| 20260509062858 | 72 | 130 | 3.5 | 7.8 | 0.00 | 0.00 | 0.00 | 88 | 1009.2 |
| 20260509062803 | 72 | 153 | 3.5 | 8.7 | 0.00 | 0.00 | 0.00 | 88 | 1009.2 |
| 20260509062712 | 72 | 190 | 2.6 | 8.7 | 0.00 | 0.00 | 0.00 | 88 | 1009.2 |
| 20260509062624 | 72 | 150 | 3.5 | 8.7 | 0.00 | 0.00 | 0.00 | 88 | 1009.3 |
| 20260509062508 | 72 | 173 | 4.3 | 8.7 | 0.00 | 0.00 | 0.00 | 88 | 1009.3 |
| 20260509062420 | 72 | 184 | 4.3 | 8.7 | 0.00 | 0.00 | 0.00 | 88 | 1009.3 |
| 20260509062325 | 72 | 175 | 4.3 | 8.7 | 0.00 | 0.00 | 0.00 | 88 | 1009.3 |
| 20260509062215 | 72 | 169 | 4.3 | 8.7 | 0.00 | 0.00 | 0.00 | 88 | 1009.3 |
| 20260509062059 | 72 | 186 | 5.2 | 8.7 | 0.00 | 0.00 | 0.00 | 88 | 1009.3 |
| 20260509062004 | 72 | 182 | 5.2 | 8.7 | 0.00 | 0.00 | 0.00 | 88 | 1009.4 |
| 20260509061919 | 72 | 184 | 3.5 | 9.6 | 0.00 | 0.00 | 0.00 | 88 | 1009.3 |
| 20260509061803 | 72 | 184 | 2.6 | 9.6 | 0.00 | 0.00 | 0.00 | 88 | 1009.4 |
| 20260509061729 | 72 | 182 | 3.5 | 9.6 | 0.00 | 0.00 | 0.00 | 88 | 1009.4 |
| 20260509061620 | 72 | 211 | 3.5 | 9.6 | 0.00 | 0.00 | 0.00 | 88 | 1009.4 |
| 20260509061525 | 72 | 204 | 3.5 | 9.6 | 0.00 | 0.00 | 0.00 | 88 | 1009.4 |
| 20260509061409 | 72 | 200 | 3.5 | 9.6 | 0.00 | 0.00 | 0.00 | 88 | 1009.4 |
| 20260509061258 | 72 | 196 | 4.3 | 9.6 | 0.00 | 0.00 | 0.00 | 88 | 1009.4 |
| 20260509061230 | 72 | 197 | 5.2 | 9.6 | 0.00 | 0.00 | 0.00 | 88 | 1009.5 |